[[{"header":{"parameterUnit":"m.s-1","parameterCategory":1,"la1":30.6,"la2":28.766,"lo1":-90.7593,"lo2":-88.6598,"dy":0.0162,"dx":0.0183,"nx":116,"ny":114,"refTime":"2023-09-19T18:00:00:Z","depth":0,"parameterNumber":2,"parameterNumberName":"U-component_of_WINDS"},"data":[0.0,0.0,0.0,0.0,0.0,0.0,0.0,0.0,0.0,0.0,0.0,0.0,0.0,0.0,0.0,0.0,0.0,0.0,0.0,0.0,0.0,0.0,0.0,0.0,0.0,0.0,0.0,0.0,0.0,0.0,0.0,0.0,0.0,0.0,0.0,0.0,0.0,0.0,0.0,0.0,0.0,0.0,0.0,0.0,0.0,0.0,0.0,0.0,0.0,0.0,0.0,0.0,0.0,0.0,0.0,0.0,0.0,0.0,0.0,0.0,0.0,0.0,0.0,0.0,0.0,0.0,0.0,0.0,0.0,0.0,0.0,0.0,0.0,0.0,0.0,0.0,0.0,0.0,0.0,0.0,0.0,0.0,0.0,0.0,0.0,0.0,0.0,0.0,0.0,0.0,0.0,0.0,0.0,0.0,0.0,0.0,0.0,0.0,0.0,0.0,0.0,0.0,0.0,0.0,0.0,0.0,0.0,0.0,0.0,0.0,0.0,0.0,0.0,0.0,0.0,0.0,0.0,0.0,0.0,0.0,0.0,0.0,0.0,0.0,0.0,0.0,0.0,0.0,0.0,0.0,0.0,0.0,0.0,0.0,0.0,0.0,0.0,0.0,0.0,0.0,0.0,0.0,0.0,0.0,0.0,0.0,0.0,0.0,0.0,0.0,0.0,0.0,0.0,0.0,0.0,0.0,0.0,0.0,0.0,0.0,0.0,0.0,0.0,0.0,0.0,0.0,0.0,0.0,0.0,0.0,0.0,0.0,0.0,0.0,0.0,0.0,0.0,0.0,0.0,0.0,0.0,0.0,0.0,0.0,0.0,0.0,0.0,0.0,0.0,0.0,0.0,0.0,0.0,0.0,0.0,0.0,0.0,0.0,0.0,0.0,0.0,0.0,0.0,0.0,0.0,0.0,0.0,0.0,0.0,0.0,0.0,0.0,0.0,0.0,0.0,0.0,0.0,0.0,0.0,0.0,0.0,0.0,0.0,0.0,0.0,0.0,0.0,0.0,0.0,0.0,0.0,0.0,0.0,0.0,0.0,0.0,0.0,0.0,0.0,0.0,0.0,0.0,0.0,0.0,0.0,0.0,0.0,0.0,0.0,0.0,0.0,0.0,0.0,0.0,0.0,0.0,0.0,0.0,0.0,0.0,0.0,0.0,0.0,0.0,0.0,0.0,0.0,0.0,0.0,0.0,0.0,0.0,0.0,0.0,0.0,0.0,0.0,0.0,0.0,0.0,0.0,0.0,0.0,0.0,0.0,0.0,0.0,0.0,0.0,0.0,0.0,0.0,0.0,0.0,0.0,0.0,0.0,0.0,0.0,0.0,0.0,0.0,0.0,0.0,0.0,0.0,0.0,0.0,0.0,0.0,0.0,0.0,0.0,0.0,0.0,0.0,0.0,0.0,0.0,0.0,0.0,0.0,0.0,0.0,0.0,0.0,0.0,0.0,0.0,0.0,0.0,0.0,0.0,0.0,0.0,0.0,0.0,0.0,0.0,0.0,0.0,0.0,0.0,0.0,0.0,0.0,0.0,0.0,0.0,0.0,0.0,0.0,0.0,0.0,0.0,0.0,0.0,0.0,0.0,0.0,0.0,0.0,0.0,0.0,0.0,0.0,0.0,0.0,0.0,0.0,0.0,0.0,0.0,0.0,0.0,0.0,0.0,0.0,0.0,0.0,0.0,0.0,0.0,0.0,0.0,0.0,0.0,0.0,0.0,0.0,0.0,0.0,0.0,0.0,0.0,0.0,0.0,0.0,0.0,0.0,0.0,0.0,0.0,0.0,0.0,0.0,0.0,0.0,0.0,0.0,0.0,0.0,0.0,0.0,0.0,0.0,0.0,0.0,0.0,0.0,0.0,0.0,0.0,0.0,0.0,0.0,0.0,0.0,0.0,0.0,0.0,0.0,0.0,0.0,0.0,0.0,0.0,0.0,0.0,0.0,0.0,0.0,0.0,0.0,0.0,0.0,0.0,0.0,0.0,0.0,0.0,0.0,0.0,0.0,0.0,0.0,0.0,0.0,0.0,0.0,0.0,0.0,0.0,0.0,0.0,0.0,0.0,0.0,0.0,0.0,0.0,0.0,0.0,0.0,0.0,0.0,0.0,0.0,0.0,0.0,0.0,0.0,0.0,0.0,0.0,0.0,0.0,0.0,0.0,0.0,0.0,0.0,0.0,0.0,0.0,0.0,0.0,0.0,0.0,0.0,0.0,0.0,0.0,0.0,0.0,0.0,0.0,0.0,0.0,0.0,0.0,0.0,0.0,0.0,0.0,0.0,0.0,0.0,0.0,0.0,0.0,0.0,0.0,0.0,0.0,0.0,0.0,0.0,0.0,0.0,0.0,0.0,0.0,0.0,0.0,0.0,0.0,0.0,0.0,0.0,0.0,0.0,0.0,0.0,0.0,0.0,0.0,0.0,0.0,0.0,0.0,0.0,0.0,0.0,0.0,0.0,0.0,0.0,0.0,0.0,0.0,0.0,0.0,0.0,0.0,0.0,0.0,0.0,0.0,0.0,0.0,0.0,0.0,0.0,0.0,0.0,0.0,0.0,0.0,0.0,0.0,0.0,0.0,0.0,0.0,0.0,0.0,0.0,0.0,0.0,0.0,0.0,0.0,0.0,0.0,0.0,0.0,0.0,0.0,0.0,0.0,0.0,0.0,0.0,0.0,0.0,0.0,0.0,0.0,0.0,0.0,0.0,0.0,0.0,0.0,0.0,0.0,0.0,0.0,0.0,0.0,0.0,0.0,0.0,0.0,0.0,0.0,0.0,0.0,0.0,0.0,0.0,0.0,0.0,0.0,0.0,0.0,0.0,0.0,0.0,0.0,0.0,0.0,0.0,0.0,0.0,0.0,0.0,0.0,0.0,0.0,0.0,0.0,0.0,0.0,0.0,0.0,0.0,0.0,0.0,0.0,0.0,0.0,0.0,0.0,0.0,0.0,0.0,0.0,0.0,0.0,0.0,0.0,0.0,0.0,0.0,0.0,0.0,0.0,0.0,0.0,0.0,0.0,0.0,0.0,0.0,0.0,0.0,0.0,0.0,0.0,0.0,0.0,0.0,0.0,0.0,0.0,0.0,0.0,0.0,0.0,0.0,0.0,0.0,0.0,0.0,0.0,0.0,0.0,0.0,0.0,0.0,0.0,0.0,0.0,0.0,0.0,0.0,0.0,0.0,0.0,0.0,0.0,0.0,0.0,0.0,0.0,0.0,0.0,0.0,0.0,0.0,0.0,0.0,0.0,0.0,0.0,0.0,0.0,0.0,0.0,0.0,0.0,0.0,0.0,0.0,0.0,0.0,0.0,0.0,0.0,0.0,0.0,0.0,0.0,0.0,0.0,0.0,0.0,0.0,0.0,0.0,0.0,0.0,0.0,0.0,0.0,0.0,0.0,0.0,0.0,0.0,0.0,0.0,0.0,0.0,0.0,0.0,0.0,0.0,0.0,0.0,0.0,0.0,0.0,0.0,0.0,0.0,0.0,0.0,0.0,0.0,0.0,0.0,0.0,0.0,0.0,0.0,0.0,0.0,0.0,0.0,0.0,0.0,0.0,0.0,0.0,0.0,0.0,0.0,0.0,0.0,0.0,0.0,0.0,0.0,0.0,0.0,0.0,0.0,0.0,0.0,0.0,0.0,0.0,0.0,0.0,0.0,0.0,0.0,0.0,0.0,0.0,0.0,0.0,0.0,0.0,0.0,0.0,0.0,0.0,0.0,0.0,0.0,0.0,0.0,0.0,0.0,0.0,0.0,0.0,0.0,0.0,0.0,0.0,0.0,0.0,0.0,0.0,0.0,0.0,0.0,0.0,0.0,0.0,0.0,0.0,0.0,0.0,0.0,0.0,0.0,0.0,0.0,0.0,0.0,0.0,0.0,0.0,0.0,0.0,0.0,0.0,0.0,0.0,0.0,0.0,0.0,0.0,0.0,0.0,0.0,0.0,0.0,0.0,0.0,0.0,0.0,0.0,0.0,0.0,0.0,0.0,0.0,0.0,0.0,0.0,0.0,0.0,0.0,0.0,0.0,0.0,0.0,0.0,0.0,0.0,0.0,0.0,0.0,0.0,0.0,0.0,0.0,0.0,0.0,0.0,0.0,0.0,0.0,0.0,0.0,0.0,0.0,0.0,0.0,0.0,0.0,0.0,0.0,0.0,0.0,0.0,0.0,0.0,0.0,0.0,0.0,0.0,0.0,0.0,0.0,0.0,0.0,0.0,0.0,0.0,0.0,0.0,0.0,0.0,0.0,0.0,0.0,0.0,0.0,0.0,0.0,0.0,0.0,0.0,0.0,0.0,0.0,0.0,0.0,0.0,0.0,0.0,0.0,0.0,0.0,0.0,0.0,0.0,0.0,0.0,0.0,0.0,0.0,0.0,0.0,0.0,0.0,0.0,0.0,0.0,0.0,0.0,0.0,0.0,0.0,0.0,0.0,0.0,0.0,0.0,0.0,0.0,0.0,0.0,0.0,0.0,0.0,0.0,0.0,0.0,0.0,0.0,0.0,0.0,0.0,0.0,0.0,0.0,0.0,0.0,0.0,0.0,0.0,0.0,0.0,0.0,0.0,0.0,0.0,0.0,0.0,0.0,0.0,0.0,0.0,0.0,0.0,0.0,0.0,0.0,0.0,0.0,0.0,0.0,0.0,0.0,0.0,0.0,0.0,0.0,0.0,0.0,0.0,0.0,0.0,0.0,0.0,0.0,0.0,0.0,0.0,0.0,0.0,0.0,0.0,0.0,0.0,0.0,0.0,0.0,0.0,0.0,0.0,0.0,0.0,0.0,0.0,0.0,0.0,0.0,0.0,0.0,0.0,0.0,0.0,0.0,0.0,0.0,0.0,0.0,0.0,0.0,0.0,0.0,0.0,0.0,0.0,0.0,0.0,0.0,0.0,0.0,0.0,0.0,0.0,0.0,0.0,0.0,0.0,0.0,0.0,0.0,0.0,0.0,0.0,0.0,0.0,0.0,0.0,0.0,0.0,0.0,0.0,0.0,0.0,0.0,0.0,0.0,0.0,0.0,0.0,0.0,0.0,0.0,0.0,0.0,0.0,0.0,0.0,0.0,0.0,0.0,0.0,0.0,0.0,0.0,0.0,0.0,0.0,0.0,0.0,0.0,0.0,0.0,0.0,0.0,0.0,0.0,0.0,0.0,0.0,0.0,0.0,0.0,0.0,0.0,0.0,0.0,0.0,0.0,0.0,0.0,0.0,0.0,0.0,0.0,0.0,0.0,0.0,0.0,0.0,0.0,0.0,0.0,0.0,0.0,0.0,0.0,0.0,0.0,0.0,0.0,0.0,0.0,0.0,0.0,0.0,0.0,0.0,0.0,0.0,0.0,0.0,0.0,0.0,0.0,0.0,0.0,0.0,0.0,0.0,0.0,0.0,0.0,0.0,0.0,0.0,0.0,0.0,0.0,0.0,0.0,0.0,0.0,0.0,0.0,0.0,0.0,0.0,0.0,0.0,0.0,0.0,0.0,0.0,0.0,0.0,0.0,0.0,0.0,0.0,0.0,0.0,0.0,0.0,0.0,0.0,0.0,0.0,0.0,0.0,0.0,0.0,0.0,0.0,0.0,0.0,0.0,0.0,0.0,0.0,0.0,0.0,0.0,0.0,0.0,0.0,0.0,0.0,0.0,0.0,0.0,0.0,0.0,0.0,0.0,0.0,0.0,0.0,0.0,0.0,0.0,0.0,0.0,0.0,0.0,0.0,0.0,0.0,0.0,0.0,0.0,0.0,0.0,0.0,0.0,0.0,0.0,0.0,0.0,0.0,0.0,0.0,0.0,0.0,0.0,0.0,0.0,0.0,0.0,0.0,0.0,0.0,0.0,0.0,0.0,0.0,0.0,0.0,0.0,0.0,0.0,0.0,0.0,0.0,0.0,0.0,0.0,0.0,0.0,0.0,0.0,0.0,0.0,0.0,0.0,0.0,0.0,0.0,0.0,0.0,0.0,0.0,0.0,0.0,0.0,0.0,0.0,0.0,0.0,0.0,0.0,0.0,0.0,0.0,0.0,0.0,0.0,0.0,0.0,0.0,0.0,0.0,0.0,0.0,0.0,0.0,0.0,0.0,0.0,0.0,0.0,0.0,3.0254,3.0243,0.0,0.0,0.0,0.0,0.0,0.0,0.0,0.0,0.0,0.0,0.0,0.0,0.0,0.0,0.0,0.0,0.0,0.0,0.0,0.0,0.0,0.0,0.0,0.0,0.0,0.0,0.0,0.0,0.0,0.0,0.0,0.0,0.0,0.0,0.0,0.0,0.0,0.0,2.5624,2.5605,2.5604,2.5523,2.5406,2.5243,0.0,0.0,0.0,0.0,0.0,0.0,0.0,0.0,0.0,0.0,0.0,0.0,0.0,0.0,0.0,0.0,0.0,0.0,0.0,0.0,0.0,0.0,0.0,0.0,0.0,0.0,0.0,0.0,0.0,0.0,0.0,0.0,0.0,0.0,0.0,0.0,0.0,0.0,0.0,0.0,0.0,0.0,0.0,0.0,0.0,0.0,0.0,0.0,0.0,0.0,0.0,0.0,0.0,0.0,0.0,0.0,0.0,0.0,0.0,0.0,0.0,0.0,0.0,0.0,0.0,0.0,0.0,0.0,0.0,0.0,3.1155,3.08,0.0,0.0,0.0,0.0,0.0,0.0,0.0,0.0,0.0,0.0,0.0,0.0,0.0,0.0,0.0,0.0,0.0,0.0,0.0,0.0,0.0,0.0,0.0,0.0,0.0,0.0,0.0,0.0,0.0,0.0,0.0,0.0,0.0,0.0,0.0,0.0,0.0,0.0,2.5634,2.5615,2.5613,2.5604,2.5505,2.5359,2.5341,0.0,0.0,0.0,0.0,0.0,0.0,0.0,0.0,0.0,0.0,0.0,0.0,0.0,0.0,0.0,0.0,0.0,0.0,0.0,0.0,0.0,0.0,0.0,0.0,0.0,0.0,0.0,0.0,0.0,0.0,0.0,0.0,0.0,0.0,0.0,0.0,0.0,0.0,0.0,0.0,0.0,0.0,0.0,0.0,0.0,0.0,0.0,0.0,0.0,0.0,0.0,0.0,0.0,0.0,0.0,0.0,0.0,0.0,0.0,0.0,0.0,0.0,0.0,3.3067,3.3395,3.3405,3.3405,3.3405,3.3327,3.1877,3.1257,3.1249,3.1245,0.0,0.0,0.0,0.0,0.0,0.0,0.0,0.0,0.0,0.0,0.0,0.0,0.0,0.0,0.0,0.0,0.0,0.0,0.0,0.0,0.0,2.5703,2.5703,2.5703,2.5703,2.5703,0.0,0.0,0.0,0.0,0.0,0.0,0.0,2.5632,2.5632,2.5699,2.5687,2.5698,2.5683,2.5634,2.5586,2.5556,2.5506,2.5434,2.5367,0.0,0.0,0.0,0.0,0.0,0.0,0.0,0.0,0.0,0.0,0.0,0.0,0.0,0.0,0.0,0.0,0.0,0.0,0.0,0.0,0.0,0.0,0.0,0.0,0.0,0.0,0.0,0.0,0.0,0.0,0.0,0.0,0.0,0.0,0.0,0.0,0.0,0.0,0.0,0.0,0.0,2.9723,3.054,0.0,0.0,0.0,0.0,0.0,0.0,0.0,0.0,0.0,0.0,0.0,0.0,0.0,3.3066,3.3063,3.317,3.3239,3.323,3.3347,3.3399,3.3411,3.3411,3.3411,3.3392,3.315,0.0,3.3063,3.3065,0.0,0.0,0.0,0.0,0.0,0.0,0.0,0.0,0.0,0.0,0.0,0.0,0.0,0.0,0.0,0.0,0.0,0.0,0.0,0.0,0.0,2.5702,2.5702,2.5702,2.5703,2.5702,2.5694,0.0,0.0,0.0,0.0,0.0,2.5639,2.5613,2.5625,2.5697,2.5698,2.5691,2.5715,2.6175,2.6395,2.6419,2.6864,2.6743,2.623,2.6669,0.0,0.0,0.0,0.0,0.0,0.0,0.0,0.0,0.0,0.0,0.0,0.0,0.0,0.0,0.0,0.0,0.0,0.0,0.0,0.0,0.0,0.0,0.0,0.0,0.0,0.0,0.0,0.0,0.0,0.0,0.0,0.0,0.0,0.0,0.0,0.0,0.0,0.0,0.0,3.0078,3.0448,3.0753,3.1233,3.1532,0.0,0.0,0.0,0.0,0.0,0.0,0.0,0.0,0.0,3.3394,3.3398,3.3392,3.3404,3.3883,3.4131,3.4147,3.4632,3.4858,3.4854,3.4831,3.4807,3.4807,3.4813,3.4813,3.4729,3.379,3.3359,3.3294,0.0,0.0,0.0,0.0,3.3169,3.323,0.0,0.0,0.0,0.0,0.0,0.0,0.0,0.0,0.0,0.0,0.0,0.0,2.5683,2.5698,2.5696,2.5696,2.5701,2.5703,2.5703,2.5678,0.0,0.0,0.0,2.5589,2.5596,2.562,2.5648,2.5698,2.593,2.6037,2.605,2.6917,2.7337,2.7374,2.8235,2.8099,2.7235,2.7863,2.8093,2.8016,0.0,0.0,0.0,0.0,0.0,0.0,0.0,0.0,0.0,0.0,0.0,0.0,0.0,0.0,0.0,0.0,0.0,0.0,0.0,0.0,0.0,0.0,0.0,0.0,0.0,0.0,0.0,0.0,0.0,0.0,0.0,0.0,0.0,0.0,0.0,0.0,0.0,3.0856,3.0951,3.1113,3.1716,3.2196,0.0,0.0,0.0,0.0,0.0,0.0,3.4042,3.4072,3.408,3.4062,3.4072,3.4081,3.4081,3.4719,3.5028,3.5048,3.5685,3.5994,3.5994,3.5942,3.6055,3.627,3.6231,3.6362,3.642,3.4737,3.4007,3.3964,3.3963,3.3935,3.39,3.3892,3.3887,3.3979,0.0,0.0,0.0,0.0,0.0,0.0,0.0,0.0,0.0,0.0,0.0,2.5478,2.5683,2.5707,2.5693,2.5693,2.5709,2.5702,2.5701,2.5644,2.559,2.5605,2.5543,2.5525,2.5601,2.5654,2.5701,2.5693,2.6529,2.6922,2.6942,2.7836,2.8239,2.8271,2.916,2.9057,2.8223,2.8203,2.8158,2.8087,2.7956,0.0,0.0,0.0,0.0,0.0,0.0,0.0,0.0,0.0,0.0,0.0,0.0,0.0,0.0,0.0,0.0,0.0,0.0,0.0,0.0,0.0,0.0,0.0,0.0,0.0,0.0,0.0,0.0,0.0,0.0,0.0,0.0,0.0,0.0,0.0,0.0,0.0,0.0,3.1948,3.207,0.0,0.0,0.0,0.0,3.4569,3.463,3.4998,3.5837,3.5876,3.5876,3.5879,3.5876,3.5874,3.5874,3.5913,3.5932,3.5932,3.5971,3.5991,3.5991,3.6001,3.6446,3.7226,3.7167,3.76,3.8224,3.6484,3.5758,3.577,3.5769,3.5778,3.5761,3.5759,3.5753,3.5769,0.0,0.0,0.0,0.0,0.0,0.0,0.0,0.0,0.0,2.4803,2.5119,2.5404,2.5605,2.5662,2.5698,2.569,2.5696,2.5703,2.5702,2.5639,2.559,2.5531,2.5505,2.5538,2.5593,2.6164,2.6497,2.6548,2.7401,2.7842,2.7855,2.8684,2.9074,2.9104,2.9971,3.0199,2.9913,2.9885,2.982,2.9777,2.9671,2.9574,0.0,0.0,0.0,0.0,0.0,0.0,0.0,0.0,0.0,0.0,0.0,0.0,0.0,0.0,0.0,0.0,0.0,0.0,0.0,0.0,0.0,0.0,0.0,0.0,0.0,0.0,0.0,0.0,0.0,0.0,0.0,0.0,0.0,0.0,0.0,0.0,0.0,3.2897,3.3429,0.0,3.4218,3.4739,3.5198,3.5506,3.554,3.5662,3.5973,3.652,3.6836,3.6841,3.7382,3.7672,3.7672,3.7672,3.7672,3.7672,3.7672,3.765,3.7604,3.7613,3.778,3.8064,3.8049,3.8213,3.8447,3.7837,3.7576,3.7576,3.757,3.723,3.6732,3.6738,3.6417,3.5956,0.0,0.0,0.0,0.0,0.0,0.0,0.0,0.0,0.0,2.4742,2.507,2.535,2.5586,2.5662,2.5697,2.5693,2.5683,2.5661,2.5673,2.5593,2.5538,2.5468,2.548,2.5536,2.5593,2.6452,2.6911,2.6961,2.8127,2.8704,2.8712,2.9546,2.9936,2.9963,3.0517,3.0763,3.076,3.0739,3.0722,3.0685,3.0591,3.0501,3.0379,0.0,0.0,0.0,0.0,0.0,0.0,0.0,0.0,0.0,0.0,0.0,0.0,0.0,0.0,0.0,0.0,0.0,0.0,0.0,0.0,0.0,0.0,0.0,0.0,0.0,0.0,0.0,0.0,0.0,0.0,0.0,0.0,0.0,0.0,3.3039,3.3517,3.3802,3.4354,3.481,3.5114,3.5664,3.6127,3.6411,3.6438,3.6561,3.6855,3.7422,3.7733,3.7745,3.8302,3.859,3.8593,3.8593,3.8593,3.8593,3.8593,3.8567,3.8498,3.8506,3.8649,3.8945,3.8934,3.9104,3.9376,3.9376,3.9382,3.931,3.8725,3.8146,3.7649,3.763,3.7297,3.685,0.0,0.0,0.0,0.0,0.0,0.0,0.0,2.2786,2.4369,2.4672,2.4994,2.5298,2.557,2.5668,2.5701,2.5698,2.5636,2.5603,2.5593,2.5527,2.5466,2.5395,2.5468,2.5543,2.564,2.649,2.6943,2.6981,2.8693,2.953,2.9552,3.0399,3.0808,3.0799,3.073,3.0695,3.0697,3.0625,3.0637,3.0678,3.0546,3.0472,3.0375,0.0,0.0,0.0,0.0,0.0,0.0,0.0,0.0,0.0,0.0,0.0,0.0,0.0,0.0,0.0,0.0,0.0,0.0,0.0,0.0,0.0,0.0,0.0,0.0,0.0,0.0,0.0,0.0,0.0,0.0,0.0,0.0,0.0,3.3551,3.3461,3.3796,3.4644,3.4745,3.5084,3.5952,3.6031,3.6406,3.7279,3.7348,3.7704,3.8555,3.8633,3.8632,3.8646,3.8654,3.8687,3.869,3.8687,3.8687,3.8687,3.8687,3.8645,3.8573,3.8584,3.9039,3.9842,3.985,4.0331,4.111,4.111,4.111,4.0935,3.924,3.8558,3.8539,3.8531,3.8511,3.8497,0.0,0.0,0.0,0.0,0.0,0.0,0.0,2.2465,2.3843,2.472,2.5138,2.5418,2.5576,2.562,2.5629,2.5621,2.5576,2.5506,2.5468,2.5449,2.5422,2.539,2.5464,2.5827,2.6533,2.7393,2.8149,2.8787,2.9849,3.038,3.0383,3.0619,3.073,3.0736,3.0704,3.0678,3.0614,3.0548,3.0511,3.0482,3.0491,3.0439,3.0316,0.0,0.0,0.0,0.0,0.0,0.0,0.0,0.0,0.0,0.0,0.0,0.0,0.0,0.0,0.0,0.0,0.0,0.0,0.0,0.0,0.0,0.0,0.0,0.0,0.0,0.0,0.0,0.0,0.0,0.0,0.0,3.5078,3.5345,3.4476,3.4846,3.5295,3.5544,3.5568,3.5927,3.6859,3.6933,3.7297,3.8183,3.8242,3.8358,3.8594,3.9198,3.9545,3.9532,4.0115,4.0405,4.0405,4.0418,4.0414,4.0414,4.0407,4.0398,4.0384,4.0329,4.0435,4.0669,4.0669,4.0799,4.1032,4.1085,4.111,4.1052,4.0565,4.0,3.9435,3.9441,3.9045,3.8597,0.0,0.0,0.0,0.0,0.0,0.0,0.0,2.2423,2.3645,2.4755,2.5184,2.5449,2.559,2.5599,2.5609,2.5596,2.5529,2.5472,2.5406,2.5395,2.5404,2.5401,2.5464,2.5924,2.6838,2.7705,2.8586,2.946,3.0263,3.0664,3.0658,3.0656,3.0668,3.0668,3.1014,3.1116,3.1081,3.1337,3.1422,3.136,3.1335,3.0887,3.0202,3.006,2.9972,2.9891,2.9806,2.9825,2.9859,2.9895,0.0,0.0,0.0,0.0,0.0,0.0,0.0,0.0,0.0,0.0,0.0,0.0,0.0,0.0,0.0,0.0,0.0,0.0,0.0,0.0,0.0,0.0,0.0,0.0,3.5679,3.5932,3.5767,3.6153,3.6445,3.6445,3.6776,3.7196,3.7756,3.7808,3.8154,3.9032,3.909,3.925,3.9628,4.0131,4.0394,4.0398,4.0867,4.1101,4.1097,4.1109,4.1105,4.11,4.1091,4.1095,4.1065,4.1013,4.0972,4.0949,4.0957,4.0964,4.0964,4.1018,4.1052,4.1059,0.0,0.0,0.0,0.0,4.0019,3.9669,0.0,0.0,0.0,0.0,0.0,0.0,0.0,2.2395,2.3566,2.4657,2.5163,2.5464,2.56,2.5604,2.5591,2.5599,2.5538,2.5464,2.5401,2.5406,2.5406,2.541,2.5557,2.6047,2.6922,2.7809,2.8676,2.9547,3.0242,3.0602,3.0593,3.0673,3.0722,3.0752,3.1574,3.1871,3.1862,3.2493,3.2723,3.2653,3.2523,3.1575,3.0198,3.0089,2.995,2.9859,2.9808,2.9847,2.994,3.0011,0.0,0.0,0.0,0.0,0.0,0.0,0.0,0.0,0.0,0.0,0.0,0.0,0.0,0.0,0.0,0.0,0.0,0.0,0.0,0.0,0.0,0.0,0.0,0.0,3.6159,3.6434,3.723,3.7425,3.7467,3.737,3.8032,3.8544,3.8633,3.8658,3.9009,3.9871,3.9954,4.0274,4.1068,4.1097,0.0,0.0,0.0,4.11,4.1086,4.1086,4.1081,4.1084,4.1084,4.1039,4.098,4.098,4.0935,4.0898,4.0878,4.0896,4.0896,4.096,4.0976,4.1006,4.1065,4.111,4.111,4.111,4.111,4.1091,0.0,0.0,0.0,0.0,0.0,0.0,0.0,2.1663,2.281,2.3953,2.4955,2.5587,2.5671,2.5626,2.557,2.5517,2.5459,2.5406,2.5395,2.5406,2.5432,2.5488,2.6168,2.696,2.7828,2.8702,2.9569,3.0447,3.0543,3.0576,3.053,3.1177,3.1482,3.1518,3.2331,3.2622,3.2508,3.2592,3.2559,3.246,3.2353,3.1785,3.0964,3.0841,3.0355,2.9754,2.9719,3.017,3.0772,3.0772,3.1242,3.1826,3.1845,3.1789,0.0,0.0,0.0,0.0,0.0,0.0,0.0,0.0,0.0,0.0,0.0,0.0,0.0,0.0,0.0,0.0,0.0,0.0,0.0,3.6929,3.7055,3.7327,3.8131,3.8848,3.9045,3.8324,3.8402,3.8778,3.9477,3.9555,3.9916,4.0788,4.0842,4.092,4.109,4.1105,4.1096,4.1106,4.11,4.107,4.1026,4.1025,4.0991,4.0929,4.0932,0.0,4.0849,4.0849,4.0818,4.0823,4.0815,4.0826,4.0819,4.084,4.0878,4.0929,4.1052,4.111,4.111,4.111,4.111,4.111,0.0,0.0,0.0,0.0,0.0,0.0,0.0,2.1451,2.2559,2.3747,2.4861,2.5591,2.5648,2.5652,2.5613,2.556,2.5493,2.5452,2.5444,2.5444,2.5478,2.5551,2.6391,2.7258,2.8139,2.8975,2.9836,3.07,3.064,3.0577,3.0511,3.1328,3.1677,3.1705,3.2935,3.3442,3.3325,3.3627,3.3675,3.3544,3.3445,3.2915,3.2145,3.1732,3.128,3.0904,3.0903,3.1185,3.1562,3.1581,3.1883,3.2202,3.2279,3.2241,3.2238,0.0,0.0,0.0,0.0,0.0,0.0,0.0,0.0,0.0,0.0,0.0,0.0,0.0,0.0,3.5989,3.6459,0.0,3.6895,3.7753,3.7909,3.8181,3.9039,3.9524,3.9649,3.9201,3.9532,3.9961,4.0401,4.044,4.0616,4.1025,4.1045,4.1058,4.1052,4.1052,4.1026,4.1006,4.0999,4.0976,4.0904,4.0897,4.0869,4.0789,4.0798,4.0754,4.0655,4.0649,4.0655,4.0654,4.0648,4.0655,4.0649,4.0723,4.0768,4.08,4.0915,4.0984,4.1059,4.1059,4.1065,4.111,0.0,0.0,0.0,0.0,0.0,0.0,0.0,0.0,2.2469,2.3484,2.4694,2.5489,2.5565,2.5634,2.5671,2.5615,2.5565,2.5515,2.5522,2.5517,2.5542,2.5591,2.6593,2.7483,2.8188,2.9149,3.0004,3.0688,3.0629,3.0558,3.053,3.1491,3.1903,3.1904,3.3585,3.4263,3.4139,3.4679,3.4811,3.4687,3.4539,3.408,3.3381,3.2753,3.2345,3.2103,3.2103,3.2217,3.2349,3.2408,3.25,3.2613,3.2712,3.2672,3.2705,3.3423,3.3585,0.0,0.0,0.0,0.0,0.0,0.0,0.0,0.0,3.5688,3.5741,3.5818,3.6002,3.6372,3.7097,3.7402,3.7814,3.8613,3.8743,3.9053,3.9925,4.0045,4.0058,4.0058,4.0662,4.111,4.111,4.1085,4.1059,4.1006,4.0991,4.0964,4.096,4.0952,4.0935,4.0858,4.0849,4.0819,4.0738,4.0734,4.0718,4.0655,4.0655,4.0602,4.0481,4.0481,4.0485,4.0492,4.0485,4.0466,4.0466,4.0582,4.0623,4.0655,4.0723,4.082,4.0921,4.0972,4.1006,4.1059,0.0,0.0,0.0,0.0,0.0,0.0,0.0,0.0,0.0,2.2533,2.4188,2.5374,2.5493,2.5571,2.5624,2.5675,2.5632,2.5593,2.559,2.5581,2.5598,2.5609,2.7186,2.8108,2.8197,2.9757,3.06,3.0711,3.0634,3.0593,3.0625,3.2141,3.2781,3.2735,3.4414,3.5073,3.4887,3.4889,3.4811,3.4687,3.4539,3.4439,3.4323,3.412,3.3228,3.21,3.21,3.2608,3.3269,3.3269,3.3738,3.432,3.4341,3.4341,3.4339,3.437,3.4386,3.4405,3.4647,3.4959,3.5282,3.5496,3.5621,3.5704,0.0,3.5767,3.5814,3.5872,3.6512,3.7108,3.7253,3.7929,3.8728,3.953,3.9657,3.9964,4.0822,4.0947,4.0955,4.0955,4.1033,4.111,4.111,4.1059,4.0999,4.1003,4.0943,4.0888,4.084,4.0819,4.0787,4.073,4.0718,4.0649,4.0521,4.0521,4.0526,4.0519,4.0519,4.0469,4.0422,4.0422,4.0408,4.0413,4.0394,4.0377,4.0323,4.0353,4.0367,4.0438,4.05,4.0568,4.0667,4.0849,4.0913,4.0921,0.0,0.0,0.0,0.0,0.0,0.0,0.0,0.0,0.0,0.0,2.4282,2.5243,2.542,2.5576,2.5678,2.5705,2.567,2.5658,2.5664,2.5625,2.5605,2.5605,2.7265,2.8193,2.8193,2.9877,3.0764,3.0767,3.0685,3.0649,3.0673,3.1825,3.2568,3.2979,3.4095,3.4791,3.5108,3.4964,3.4811,3.4649,3.3992,3.3717,3.3672,3.3538,3.3129,3.2695,3.3161,3.3579,0.0,3.3923,3.4147,3.4431,3.4473,3.4495,3.4495,3.4495,3.4473,3.4498,3.4793,3.5174,3.5504,3.5679,3.576,3.5833,3.5903,3.5914,3.606,3.6606,3.6999,3.7551,3.8571,3.9043,3.9569,4.0413,4.0554,4.0674,4.1045,4.1091,4.1085,4.1059,4.1039,4.1039,4.1039,4.1018,4.0988,4.0936,4.0849,4.0746,4.0687,4.0649,4.061,4.0574,4.0545,4.0496,4.0434,4.0441,4.0408,4.0375,4.0375,4.0377,4.0344,4.0344,4.0308,4.0291,4.0234,4.0215,4.0196,4.0234,4.0271,4.0289,4.036,4.0389,4.045,4.0699,4.08,4.084,0.0,0.0,0.0,0.0,0.0,0.0,0.0,0.0,0.0,0.0,0.0,2.5188,2.5428,2.5601,2.5707,2.5703,2.5703,2.57,2.5709,2.5642,2.5601,2.5601,2.7266,2.8198,2.8201,2.991,3.0807,3.0798,3.0753,3.073,3.0749,3.155,3.2191,3.2725,3.3489,3.4109,3.4546,3.4365,3.4225,3.4035,3.3271,3.2901,3.2873,3.2939,3.2943,3.3078,3.3852,3.4197,3.4245,3.4221,3.4221,3.4245,3.4316,3.434,3.4404,3.445,3.452,3.4653,3.5007,3.5374,3.5679,3.581,3.5885,3.6005,3.6293,3.6355,3.6606,3.748,3.7844,3.8377,3.9576,4.0006,4.0374,4.1007,4.1075,4.1065,4.1065,4.1078,4.1052,4.0972,4.0964,4.0976,4.0949,4.0952,4.0936,4.0856,4.075,4.0642,4.0545,4.05,4.0454,4.0441,4.0408,4.0356,4.0358,4.0362,4.0345,4.0308,4.0308,4.0309,4.031,4.0272,4.0234,4.0176,4.0077,4.0036,4.0015,4.0036,4.0017,4.0038,4.0099,4.012,4.0158,4.0367,4.0557,4.0723,0.0,0.0,0.0,0.0,0.0,0.0,0.0,0.0,0.0,0.0,0.0,0.0,0.0,2.5657,2.5703,2.5702,2.5698,2.5701,2.5706,2.5636,2.5593,2.5595,2.7274,2.8201,2.8203,2.99,3.0799,3.0808,3.0798,3.0794,3.0817,3.161,3.1974,3.1969,3.2781,3.3072,3.2949,3.2818,3.2722,3.2635,3.2428,3.2298,3.2275,3.287,3.3008,3.3,3.3746,3.4049,3.4099,3.4023,3.4049,3.4124,3.4173,3.4245,3.4316,3.4386,3.4693,3.5047,3.5309,3.5599,3.5821,3.5967,3.6007,3.6225,3.7065,3.726,3.7512,3.8378,3.9234,3.9818,3.9803,4.0482,4.1061,4.1097,4.1052,4.1007,4.0993,4.0991,4.0968,4.0913,4.0906,4.0869,4.0798,4.0858,4.0856,4.0725,4.064,4.0558,4.0422,4.0394,4.0379,4.0307,4.0288,4.0308,4.0291,4.031,4.031,4.031,4.031,4.031,4.031,4.0234,4.0176,4.0096,3.9954,3.9867,3.9804,3.967,3.9623,3.9623,3.9623,3.967,3.9739,3.9785,4.012,4.0519,0.0,0.0,0.0,0.0,0.0,0.0,0.0,0.0,0.0,0.0,0.0,0.0,0.0,0.0,0.0,0.0,2.5652,2.5628,2.5634,2.5565,2.5529,2.5531,2.665,2.7546,2.8127,2.9318,3.0212,3.0801,3.081,3.0801,3.0808,3.1072,3.1487,3.1976,3.2244,3.2628,3.3034,3.2941,3.2827,3.267,3.1933,3.1574,3.1468,3.1536,3.1818,3.2261,0.0,3.3419,3.378,3.3753,3.378,3.3868,3.4023,3.4148,3.4293,3.4567,3.4888,3.517,3.5399,3.5621,3.5818,3.5963,3.6433,3.6946,3.7223,3.7747,3.8413,3.9277,3.9704,4.0057,4.0574,4.0891,4.1111,4.1097,4.1039,4.0993,4.1006,4.0957,4.0924,4.0898,4.0819,4.0734,4.0668,4.0694,4.0681,4.064,4.0523,4.0427,4.0341,4.0326,4.0328,4.0291,4.0291,4.031,4.031,4.031,4.031,4.031,4.031,4.0291,4.0234,4.0118,3.9996,3.9892,3.9758,3.9642,3.9526,3.9477,3.9452,3.9401,3.9401,3.9427,3.9433,3.9502,3.9628,3.9816,0.0,0.0,0.0,0.0,0.0,0.0,0.0,0.0,0.0,0.0,0.0,0.0,0.0,0.0,0.0,0.0,0.0,2.5644,2.5634,2.5579,2.5543,2.5544,2.6378,2.7107,2.7653,2.8864,2.9793,3.0364,3.0661,3.08,3.0801,3.08,3.1072,3.1574,3.1574,3.1826,3.2227,3.2208,3.2104,3.1922,3.1216,3.086,3.0758,3.0847,3.1084,0.0,3.2404,3.2936,3.325,3.3496,3.3643,3.378,3.3947,3.4179,3.4439,3.4832,3.513,3.5341,3.554,3.5732,3.5963,3.6376,3.6882,3.7461,3.8053,3.8631,3.9286,4.0142,4.033,4.0489,4.0989,4.1106,4.11,4.1065,4.1018,4.0957,4.0957,4.0887,4.0819,4.0834,4.0713,4.0596,4.053,4.0496,4.05,4.0527,4.043,4.0362,4.0308,4.031,4.031,4.031,4.031,4.031,4.031,4.031,4.0291,4.0253,4.0253,4.0234,4.0118,3.9996,3.9848,3.9735,3.9551,3.9427,3.9272,3.9237,3.9183,3.9129,3.9082,3.9036,3.9064,3.9091,3.9137,3.9245,0.0,0.0,0.0,0.0,0.0,0.0,0.0,0.0,0.0,0.0,0.0,0.0,0.0,0.0,0.0,0.0,0.0,0.0,2.5697,2.5624,2.56,2.56,2.6393,2.6851,2.6889,2.8526,2.9424,2.9539,3.0336,3.074,3.0739,3.0779,3.0799,3.08,3.0798,3.0762,3.0704,3.0695,3.061,3.0492,3.0356,3.0228,3.017,3.0745,3.0827,3.0804,3.2181,3.2636,3.2637,3.3359,3.3698,3.386,3.3998,3.4348,3.4793,3.5117,3.5353,3.5549,3.5754,3.5905,3.6202,3.7022,3.7304,3.7773,3.9363,3.9803,4.0101,4.0925,4.1097,4.11,4.1106,4.11,4.1064,4.1013,4.0932,4.0907,4.0878,4.0784,4.07,4.07,4.0583,4.0473,4.0406,4.0341,4.0325,4.0396,4.0325,4.0308,4.031,4.031,4.031,4.031,4.031,4.031,4.031,4.031,4.0253,4.0196,4.0196,4.0118,3.9975,3.9848,3.9693,3.9551,3.935,3.9192,3.9073,3.8921,3.8833,3.8762,3.8634,3.8585,3.8585,3.8585,3.8664,3.8833,0.0,0.0,0.0,0.0,0.0,0.0,0.0,0.0,0.0,0.0,0.0,0.0,0.0,0.0,0.0,0.0,0.0,0.0,2.5541,2.5579,2.5576,2.5531,2.5746,2.6158,2.6802,2.7315,2.7883,2.8564,2.9402,2.9835,2.9858,3.0509,3.0767,3.0732,3.078,3.08,3.0771,3.0724,3.0646,3.0571,3.0491,3.0379,3.0245,3.0316,3.0576,3.0922,3.115,3.1945,3.297,3.3558,3.3972,3.4293,3.4505,3.4774,3.5032,3.5273,3.5496,3.5678,3.582,3.5948,3.6046,3.6285,3.7307,3.8375,3.875,3.9836,4.0836,4.1047,4.1111,4.1106,4.11,4.1064,4.1026,4.0991,4.0945,4.0858,4.0776,4.0694,4.0621,4.0569,4.0476,4.0394,4.0323,4.0308,4.031,4.0328,4.031,4.0291,4.031,4.031,4.031,4.031,4.031,4.031,4.031,4.0253,4.0196,4.0118,4.0077,3.9935,3.9762,3.9575,3.9376,3.9137,3.8989,3.8815,3.8646,3.8634,3.8572,3.8478,3.8478,3.8446,3.8446,3.8446,3.8478,3.851,0.0,0.0,0.0,0.0,0.0,0.0,0.0,0.0,0.0,0.0,0.0,0.0,0.0,0.0,0.0,0.0,0.0,0.0,0.0,2.5473,2.5506,2.5453,2.5451,2.5691,2.6179,2.6622,2.7093,2.7588,2.8494,2.8921,2.8934,2.9435,2.9644,2.9615,3.004,3.0227,3.0249,3.0564,3.0659,0.0,0.0,3.0414,3.0299,3.0161,3.0262,3.0508,3.0675,3.1544,3.2735,3.3545,3.4161,3.4632,3.4925,3.5114,3.5268,3.5477,3.563,3.576,3.5908,3.5965,3.6091,3.6476,3.7277,3.8174,3.8889,3.9799,4.0598,4.0974,4.1058,4.1064,4.1058,4.102,4.0991,4.0926,4.0837,4.0725,4.0623,4.0496,4.0422,4.0372,4.0342,4.029,4.0272,4.0272,4.031,4.031,4.031,4.031,4.031,4.031,4.031,4.031,4.031,4.0291,4.0253,4.0157,4.0077,3.9954,3.9892,3.9717,3.9477,3.9324,3.911,3.8826,3.8725,3.859,3.8401,3.8401,3.8368,3.8322,3.8322,3.8322,3.8322,3.8322,3.8322,3.8322,0.0,0.0,0.0,0.0,0.0,0.0,0.0,0.0,0.0,0.0,0.0,0.0,0.0,0.0,0.0,0.0,0.0,0.0,0.0,0.0,0.0,0.0,2.5383,2.5385,2.5393,2.6193,2.6612,2.6601,2.7546,2.8019,2.8022,2.8145,2.8193,2.8225,2.8987,2.933,2.9387,3.0205,3.0508,3.0447,3.0472,3.0414,3.0279,0.0,0.0,2.9902,3.0583,3.1314,3.2146,3.3291,3.4124,3.4772,3.5196,3.538,3.5481,3.5668,3.5755,3.5844,3.5962,3.6003,3.6189,3.6933,3.7152,3.762,3.9254,3.9656,3.9954,4.0831,4.1,4.1007,4.0993,4.0984,4.0935,4.0818,4.0668,4.0564,4.0489,4.0323,4.0196,4.0177,4.0177,4.0196,4.0196,4.0253,4.031,4.031,4.031,4.031,4.031,4.031,4.031,4.0291,4.0291,4.0253,4.0157,4.0036,3.9892,3.9758,3.9693,3.9477,3.9156,3.9073,3.8855,3.8572,3.8478,3.8401,3.8274,3.8274,3.8241,3.8192,3.8192,3.8192,3.8192,3.8192,3.8192,3.8192,0.0,0.0,0.0,0.0,0.0,0.0,0.0,0.0,0.0,0.0,2.29,2.3931,0.0,0.0,0.0,0.0,0.0,0.0,0.0,0.0,0.0,0.0,2.5318,2.5343,2.539,2.5553,2.5638,2.5646,2.6583,2.703,2.7051,2.7847,2.8193,2.8212,2.8364,2.8427,2.8473,2.9329,2.9668,2.9656,3.026,3.0428,3.0292,0.0,0.0,0.0,3.0696,3.1129,3.1516,3.2554,3.3459,3.4297,3.5252,3.5596,3.566,3.5767,3.5839,3.589,3.5981,3.6009,3.6033,3.6192,3.6713,3.7442,3.8415,3.9186,3.9953,4.0828,4.0999,4.0993,4.1006,4.0941,4.0869,4.0746,4.0596,4.0473,4.0341,4.0272,4.0177,4.0118,4.0176,4.0196,4.0196,4.0253,4.031,4.031,4.031,4.031,4.031,4.031,4.0272,4.0215,4.0234,4.0118,3.9954,3.987,3.9758,3.9551,3.9427,3.9219,3.895,3.8785,3.8572,3.8354,3.8274,3.8241,3.8225,3.8225,3.8225,3.8192,3.8192,3.8192,3.8192,3.8192,3.8192,3.8174,0.0,0.0,0.0,0.0,0.0,0.0,0.0,1.8731,1.9587,2.0362,2.1437,2.2521,2.3656,2.395,0.0,0.0,0.0,0.0,0.0,0.0,0.0,0.0,0.0,0.0,2.5241,2.5273,2.5313,2.5361,0.0,2.6087,2.613,2.6621,2.6876,2.6926,2.7362,2.7569,2.7571,2.8418,2.8992,2.9373,2.9699,3.0042,0.0,0.0,0.0,0.0,0.0,3.0481,3.0693,3.1771,3.2449,3.3102,3.4565,3.5385,3.5818,3.5844,3.5895,3.5951,3.5982,3.5995,3.5992,3.5953,3.6234,3.6729,3.7545,3.8393,3.9268,4.0143,4.0673,4.0999,4.1003,4.0943,4.0849,4.0725,4.0526,4.0356,4.0252,4.0138,4.0036,4.0015,4.0096,4.0157,4.0157,4.0234,4.031,4.031,4.031,4.031,4.031,4.0253,4.0215,4.0196,4.0098,3.9954,3.9804,3.9647,3.9477,3.9245,3.9137,3.8931,3.8652,3.8541,3.8401,3.8259,3.8225,3.8192,3.8192,3.8192,3.8192,3.8192,3.8192,3.8192,3.8192,3.8122,3.8088,3.807,0.0,0.0,0.0,0.0,0.0,0.0,0.0,1.7666,1.8474,1.922,1.994,2.0893,2.2245,2.2845,2.3244,0.0,0.0,0.0,0.0,0.0,0.0,0.0,0.0,0.0,0.0,0.0,0.0,2.5271,2.5341,0.0,0.0,0.0,0.0,0.0,2.6423,2.6699,2.6704,2.7502,2.8191,0.0,0.0,2.9569,0.0,0.0,0.0,0.0,0.0,2.9926,3.0098,3.1027,3.1565,3.2058,3.3514,3.4737,3.5663,3.586,3.5951,3.6004,3.5992,3.5996,3.5984,3.5924,3.5891,3.6106,3.6919,3.7774,3.8657,3.9513,4.04,4.1025,4.1007,4.0926,4.0839,4.072,4.05,4.0304,4.0234,4.0057,3.9911,3.9911,4.0036,4.0117,4.0117,4.0215,4.031,4.031,4.0291,4.0291,4.0291,4.0234,4.0176,4.0118,3.9954,3.9781,3.9599,3.9401,3.9192,3.8913,3.8862,3.8652,3.8368,3.8368,3.8322,3.8192,3.8192,3.8192,3.8192,3.8192,3.8192,3.8192,3.8174,3.8174,3.814,3.8002,3.7949,3.7915,0.0,0.0,0.0,0.0,0.0,0.0,0.0,1.665,1.7531,1.806,1.8801,1.9373,1.9726,2.1087,2.2148,0.0,0.0,0.0,0.0,0.0,0.0,0.0,0.0,0.0,0.0,0.0,0.0,2.5217,2.5293,0.0,0.0,0.0,0.0,0.0,0.0,2.582,2.5867,2.6661,0.0,0.0,0.0,0.0,0.0,0.0,0.0,0.0,0.0,2.9991,3.0142,3.0407,3.1127,3.1939,3.2163,3.3387,3.4884,3.5743,3.6009,3.6004,3.5995,3.5992,3.5985,3.5922,3.5892,3.6105,3.6923,3.7782,3.8641,3.9517,4.0441,4.1065,4.1006,4.0896,4.0789,4.0703,4.053,4.036,4.0307,4.0118,3.9996,3.9996,4.0057,4.0117,4.0117,4.0215,4.031,4.031,4.0253,4.0196,4.0196,4.0196,4.0098,3.9848,3.9762,3.9575,3.9264,3.9129,3.8884,3.8646,3.8572,3.8465,3.8307,3.8307,3.8274,3.8192,3.8192,3.8192,3.8192,3.8192,3.8192,3.8192,3.807,3.8018,3.8002,3.7934,3.7846,3.7703,0.0,0.0,0.0,0.0,0.0,0.0,1.4392,1.5452,1.6298,1.6889,1.7477,1.7918,1.8177,1.8782,1.9687,0.0,0.0,0.0,0.0,0.0,0.0,0.0,0.0,0.0,0.0,0.0,2.5149,2.5203,2.5262,0.0,0.0,0.0,0.0,0.0,0.0,2.5679,2.5654,2.5945,0.0,0.0,0.0,0.0,0.0,0.0,0.0,0.0,0.0,0.0,3.0123,3.0286,3.067,3.1149,3.1755,3.2435,3.3321,3.4792,3.5581,3.6007,3.5996,3.596,3.5934,3.5917,3.5866,3.5908,3.6234,3.7016,3.7909,3.8739,3.9662,4.0461,4.0915,4.0921,4.0859,4.0818,4.0662,4.0504,4.0425,4.0214,4.0059,4.0057,4.0057,4.0036,4.0036,4.0118,4.0176,4.0176,4.0157,4.0118,4.0077,4.0057,3.9933,3.9739,3.9575,3.9324,3.9036,3.8844,3.8646,3.8433,3.8401,3.8322,3.8241,3.8241,3.8225,3.8192,3.8192,3.8192,3.8192,3.8192,3.814,3.807,3.8018,3.7915,3.781,3.7649,3.754,3.7429,0.0,0.0,0.0,0.0,0.0,1.2649,1.3318,1.4343,1.5241,1.584,1.6343,1.6727,1.6941,1.7037,1.7572,1.8921,0.0,0.0,0.0,0.0,0.0,0.0,0.0,0.0,0.0,0.0,2.5125,2.5168,2.5239,2.5303,0.0,0.0,2.5613,2.5676,0.0,0.0,0.0,0.0,0.0,0.0,0.0,0.0,0.0,0.0,0.0,0.0,0.0,0.0,0.0,0.0,0.0,3.0617,3.1291,3.1746,3.2361,3.4148,3.5115,3.5679,3.5937,3.5949,3.5897,3.5897,3.5859,3.5795,3.5807,3.6538,3.7364,3.7936,3.8988,3.9974,4.0552,4.0782,4.0896,4.0898,4.0738,4.0607,4.0534,4.0321,4.0158,4.0118,4.0077,4.0017,3.9996,4.0057,4.0077,4.0077,4.0077,4.0036,3.9975,3.9867,3.9758,3.9623,3.935,3.9055,3.8773,3.8603,3.8433,3.8274,3.8274,3.8259,3.8192,3.8192,3.8192,3.8192,3.8192,3.8174,3.814,3.814,3.8088,3.7967,3.788,3.7774,3.7595,3.7374,3.7241,3.7105,0.0,0.0,0.0,0.0,0.0,0.0,1.2503,1.3453,1.4343,1.5006,1.5534,1.5876,1.5988,1.6144,1.6318,1.6509,0.0,0.0,0.0,0.0,0.0,0.0,0.0,0.0,0.0,0.0,2.5101,2.5101,2.5168,2.5274,2.5395,2.5473,2.5547,2.5601,0.0,0.0,0.0,0.0,0.0,0.0,0.0,0.0,0.0,0.0,0.0,0.0,0.0,0.0,0.0,0.0,0.0,0.0,0.0,3.1254,3.2336,3.4087,3.4644,3.4906,3.5761,3.5946,3.5892,3.5903,3.5859,3.5799,3.5803,3.6526,3.7189,3.7209,3.8585,3.9805,3.9805,4.04,4.0904,4.0904,4.0796,4.0687,4.0621,4.0441,4.0271,4.0215,4.0137,4.0077,3.9996,4.0057,4.0077,3.9996,3.9996,3.9975,3.9911,3.9712,3.9526,3.9401,3.9137,3.8826,3.851,3.8387,3.8274,3.8192,3.8192,3.8192,3.8192,3.8192,3.8192,3.8192,3.8192,3.8122,3.7984,3.7984,3.7967,3.7864,3.7703,3.754,3.7374,3.7185,3.697,3.6811,0.0,0.0,0.0,0.0,0.0,0.0,0.0,1.2716,1.3569,1.4258,1.4731,1.5062,1.5379,1.5603,1.5901,1.6324,0.0,0.0,0.0,0.0,0.0,0.0,0.0,0.0,0.0,0.0,2.5106,2.5184,2.519,2.5244,2.533,2.5345,2.5409,2.5451,2.5457,2.5427,0.0,0.0,0.0,0.0,0.0,0.0,2.6975,0.0,0.0,0.0,0.0,0.0,0.0,0.0,0.0,0.0,0.0,0.0,0.0,3.2533,3.375,3.4756,3.5039,3.5496,3.5899,3.5903,3.5872,3.5878,3.5872,3.6099,3.6482,3.7073,3.8117,3.9084,3.9688,4.0441,4.0972,4.0972,4.0897,4.0815,4.0745,4.0515,4.0341,4.0196,4.0058,3.9954,3.9933,3.9954,3.9954,3.9933,3.9933,3.9911,3.9889,3.9665,3.9477,3.9324,3.9017,3.8725,3.8446,3.8289,3.8225,3.8192,3.8192,3.8192,3.8192,3.8192,3.8192,3.8192,3.8192,3.8122,3.7984,3.7984,3.7898,3.7667,3.754,3.7279,3.697,3.6869,3.665,3.6468,0.0,0.0,0.0,0.0,0.0,0.0,0.0,1.2147,1.2919,1.3589,1.4093,1.4523,1.4937,1.5244,1.5647,1.6225,0.0,0.0,0.0,0.0,0.0,0.0,0.0,0.0,0.0,2.5063,2.5125,2.5195,2.5209,2.5233,2.5303,2.529,2.5506,2.5848,2.5848,2.5976,0.0,0.0,0.0,0.0,0.0,0.0,2.6012,0.0,0.0,0.0,0.0,0.0,0.0,0.0,0.0,0.0,0.0,0.0,0.0,0.0,3.2608,3.3868,3.4529,3.5074,3.5516,3.5831,3.5903,3.5905,3.5892,3.5898,3.6047,3.6598,3.7403,3.8285,3.9143,3.9968,4.0616,4.0948,4.0943,4.0868,4.0781,4.0545,4.0339,4.0139,3.9977,3.9889,3.9889,3.9889,3.9889,3.9889,3.9889,3.9889,3.9889,3.9647,3.9452,3.9298,3.8931,3.8603,3.8415,3.8274,3.8192,3.8192,3.8192,3.8192,3.8192,3.8192,3.8192,3.8192,3.8192,3.8106,0.0,3.7967,3.7757,3.7466,3.7354,3.7087,3.6748,3.6643,3.6502,3.6301,0.0,0.0,0.0,0.0,0.0,0.0,0.0,0.0,1.2393,1.3074,1.3621,1.4104,1.4616,1.5028,1.5558,1.6225,0.0,0.0,0.0,0.0,0.0,0.0,0.0,0.0,0.0,2.4999,2.512,2.5191,2.5195,2.5258,2.5388,2.538,2.5842,2.6679,2.668,2.7052,2.7618,2.6616,2.5693,2.4836,2.4588,2.4923,0.0,0.0,0.0,0.0,0.0,0.0,0.0,0.0,0.0,0.0,0.0,0.0,0.0,0.0,0.0,0.0,0.0,3.4609,3.4881,3.5692,3.5909,3.5905,3.5911,3.5911,0.0,3.5908,3.659,3.7467,3.8344,3.9169,3.9993,4.085,4.0935,4.0837,4.0706,4.053,4.0286,4.0038,3.9933,3.9889,3.9889,3.9889,3.9889,3.9889,3.9889,3.9889,3.9889,3.9647,3.9452,3.9298,3.8855,3.8541,3.8382,3.8274,3.8192,3.8192,3.8192,3.8192,3.8192,3.8192,3.8192,3.8192,3.8192,3.809,3.7899,3.7899,3.7685,3.7297,3.7147,3.693,3.6661,3.6544,3.6402,3.6301,0.0,0.0,0.0,0.0,0.0,0.0,0.0,0.0,0.0,0.0,1.2987,1.3457,1.4118,1.4686,1.5311,0.0,0.0,0.0,0.0,0.0,0.0,0.0,0.0,0.0,0.0,2.4861,2.5025,2.5206,2.5206,2.5554,2.6209,2.6167,2.6615,2.7445,2.7438,2.7459,2.7405,2.6507,2.5866,2.5424,2.4701,2.4431,0.0,0.0,0.0,0.0,2.8125,2.9008,0.0,0.0,0.0,0.0,0.0,0.0,0.0,0.0,3.0906,3.1339,3.2423,0.0,3.4902,3.5757,3.5985,3.5963,0.0,3.5894,3.5903,3.5908,3.659,3.7467,3.8344,3.9195,4.0046,4.0877,4.0949,4.0849,4.0718,4.0457,4.0177,3.9954,3.9911,3.9889,3.9889,3.9889,3.9889,3.9889,3.9889,3.9889,3.9889,3.9647,3.9452,3.9298,3.8892,3.8578,3.8382,3.8274,3.8192,3.8192,3.8192,3.8192,3.8192,3.8192,3.8192,3.8192,3.8192,3.8088,3.7967,3.7934,3.7703,3.7354,3.7126,3.6829,3.6544,3.6402,3.6276,3.6208,0.0,0.0,0.0,0.0,0.0,0.0,0.0,0.0,0.0,0.0,0.0,0.0,0.0,0.0,0.0,0.0,0.0,0.0,0.0,0.0,0.0,0.0,0.0,2.385,2.4314,2.4939,2.5395,2.5653,2.606,2.6536,2.7063,2.7007,2.7453,2.8261,2.8574,2.8188,2.7327,2.6731,2.5907,2.5005,2.4432,0.0,0.0,0.0,0.0,0.0,2.7647,2.8645,0.0,2.9735,2.994,3.0123,0.0,0.0,0.0,0.0,3.0753,3.0994,3.1854,3.3071,3.4305,3.5195,3.5695,3.5997,3.5958,3.5948,3.5943,3.5919,3.6289,3.6985,3.8266,3.8889,3.9604,4.0799,4.0921,4.0789,4.0559,4.0325,4.0077,3.9911,3.9889,3.9889,3.9889,3.9889,3.9889,3.9889,3.9889,3.9889,3.9889,3.9647,3.9452,3.9298,3.8873,3.8559,3.8382,3.8274,3.8192,3.8192,3.8192,3.8192,3.8192,3.8192,3.8192,3.8192,3.8192,3.8122,3.7984,3.7967,3.7721,3.7374,3.722,3.6908,3.6602,3.6444,3.6335,3.6225,0.0,0.0,0.0,0.0,0.0,0.0,0.0,0.0,0.0,0.0,0.0,0.0,0.0,0.0,0.0,0.0,0.0,0.0,0.0,0.0,0.0,0.0,0.0,2.3642,2.4198,2.5245,2.5955,2.6284,2.7058,2.758,2.7834,2.7853,2.8292,2.9093,2.9497,2.8874,2.7422,2.6933,2.5857,2.445,2.415,0.0,0.0,0.0,0.0,0.0,0.0,0.0,0.0,2.9608,2.9857,3.0083,3.0241,0.0,0.0,0.0,0.0,0.0,3.168,3.2619,3.3601,3.4485,3.5351,3.6005,3.5994,3.6005,3.5981,3.5914,3.5909,3.6392,3.7993,3.8402,3.902,4.0551,4.0771,4.0642,4.0341,4.0177,4.0057,3.9911,3.9889,3.9889,3.9889,3.9889,3.9889,3.9889,3.9889,3.9889,3.9889,3.9647,3.9452,3.9298,3.8855,3.8541,3.8382,3.8274,3.8192,3.8192,3.8192,3.8192,3.8192,3.8192,3.8192,3.8192,3.8225,3.8156,3.807,3.807,3.781,3.7485,3.7372,3.7122,3.6725,3.6585,3.6419,3.6268,0.0,0.0,0.0,0.0,0.0,0.0,0.0,0.0,0.0,0.0,0.0,0.0,0.0,0.0,0.0,0.0,0.0,0.0,0.0,0.0,0.0,2.2801,2.3725,2.4521,2.5166,2.5855,2.637,2.6708,2.7071,2.7654,2.8461,2.8533,2.9004,2.9794,2.9109,2.8563,2.8051,2.6525,2.5634,2.5146,2.4388,0.0,0.0,0.0,0.0,0.0,0.0,0.0,0.0,2.9511,2.9774,2.9959,3.0161,0.0,0.0,0.0,0.0,0.0,3.0878,3.2099,3.3535,3.4468,3.5368,3.5995,3.6005,3.6007,3.597,3.5919,3.589,3.6216,3.7214,3.7993,3.8812,3.9754,4.0258,4.0496,4.0323,4.0177,4.0057,3.9911,3.9889,3.9889,3.9889,3.9889,3.9889,3.9889,3.9889,3.9889,3.9889,3.9647,3.9452,3.9298,3.8892,3.8578,3.8382,3.8274,3.8192,3.8192,3.8192,3.8192,3.8192,3.8192,3.8192,3.8192,3.8241,3.8274,3.8256,3.8256,3.8122,3.788,3.7649,3.7354,3.7009,3.6766,3.6602,3.6419,0.0,0.0,0.0,0.0,0.0,0.0,0.0,0.0,0.0,0.0,0.0,0.0,0.0,0.0,0.0,0.0,0.0,0.0,0.0,0.0,0.0,2.3364,2.4463,2.5107,2.5232,2.6179,2.6872,2.7278,2.8015,2.8651,2.9149,2.929,2.9304,2.9228,2.8695,2.7844,2.6767,2.5912,2.5205,2.4664,0.0,0.0,0.0,0.0,0.0,0.0,0.0,0.0,0.0,0.0,2.9664,2.9876,3.0075,0.0,0.0,0.0,0.0,0.0,3.0691,3.198,3.3404,3.3843,3.4979,3.5994,3.5996,3.5992,3.5999,3.5962,3.5947,3.6202,3.7049,3.7915,3.8889,4.0102,4.0417,4.0434,4.027,4.0158,4.0057,3.9911,3.9889,3.9889,3.9889,3.9889,3.9889,3.9889,3.9889,3.9889,3.9889,3.9647,3.9452,3.9298,3.891,3.8578,3.8382,3.8274,3.8192,3.8192,3.8192,3.8192,3.8192,3.8259,3.8241,3.8241,3.8322,3.8336,3.8336,3.8336,3.8289,3.8156,3.7881,3.7577,3.7206,3.6748,3.6502,3.6402,0.0,0.0,0.0,0.0,0.0,0.0,0.0,0.0,0.0,0.0,0.0,0.0,0.0,0.0,0.0,0.0,0.0,0.0,0.0,0.0,2.3011,2.3936,2.4958,2.5469,2.5424,2.6531,2.7338,2.783,2.8784,2.926,2.9233,2.9436,2.9055,2.8212,2.7864,2.6916,2.556,2.5241,2.474,2.4113,0.0,0.0,0.0,0.0,0.0,0.0,0.0,0.0,0.0,0.0,0.0,0.0,0.0,0.0,0.0,3.053,3.0618,3.0683,3.0704,3.1981,3.331,3.3303,3.4651,3.5977,3.6005,3.5995,3.5994,3.6001,3.5997,3.6172,3.6787,3.7747,3.896,4.0521,4.0615,4.0419,4.0233,4.0157,4.0057,3.9911,3.9889,3.9889,3.9889,3.9889,3.9889,3.9889,3.9889,3.9889,3.9889,3.9647,3.9452,3.9298,3.891,3.8578,3.8382,3.8274,3.8192,3.8192,3.8192,3.8225,3.8225,3.8274,3.8307,3.8322,3.8382,3.8415,3.8415,3.8465,3.8401,3.8322,3.8106,3.7757,3.7356,3.6834,3.6609,3.6509,0.0,0.0,0.0,0.0,0.0,0.0,0.0,0.0,0.0,0.0,0.0,0.0,0.0,0.0,0.0,0.0,0.0,0.0,0.0,0.0,2.2987,2.4474,2.5005,2.5603,2.6371,2.7099,2.7699,2.8147,2.8633,2.8576,2.8122,2.8334,2.7942,2.7083,2.6318,2.58,2.5448,2.4634,2.4246,2.417,2.3976,0.0,0.0,0.0,0.0,0.0,0.0,0.0,0.0,0.0,0.0,0.0,0.0,0.0,3.0321,3.0462,3.0557,3.0618,3.0683,3.1974,3.3303,3.331,3.4613,3.5929,3.5988,3.6005,3.5995,3.5991,3.5991,3.6009,3.5992,3.7267,3.8831,4.0447,4.0588,4.0425,4.0215,4.0157,4.0057,3.9911,3.9889,3.9889,3.9889,3.9889,3.9889,3.9889,3.9889,3.9889,3.9889,3.9647,3.9452,3.9298,3.891,3.8578,3.8382,3.8274,3.8192,3.8192,3.8192,3.8241,3.8307,3.8307,3.8322,3.8401,3.8478,3.8491,3.851,3.8627,3.8609,3.8478,3.8322,3.7898,3.7392,3.7297,3.7164,3.7031,0.0,0.0,0.0,0.0,0.0,0.0,0.0,0.0,0.0,0.0,0.0,0.0,0.0,0.0,0.0,0.0,0.0,0.0,0.0,2.254,2.3679,2.4695,2.5091,2.561,2.6229,2.6985,2.7648,2.821,2.8203,2.8099,2.792,2.7545,2.6916,2.6098,2.5764,2.5264,2.4671,2.4338,2.4446,2.4803,2.4702,2.5,0.0,0.0,0.0,0.0,0.0,0.0,0.0,0.0,2.9474,2.9682,2.995,3.0161,3.0323,3.0452,3.0548,3.0734,3.1336,3.2388,3.3425,3.393,3.4977,3.5911,3.5929,3.5974,3.5995,3.5992,3.5994,3.6298,3.7272,3.7926,3.8821,4.043,4.0579,4.0425,4.0234,4.0138,4.0057,3.9975,3.9933,3.9889,3.9889,3.9889,3.9889,3.9889,3.9889,3.9889,3.9889,3.9689,3.9477,3.9298,3.895,3.864,3.8415,3.8322,3.8274,3.8274,3.8274,3.8274,3.8307,3.8387,3.8446,3.8478,3.8578,3.8609,3.8609,3.8658,3.8658,3.8609,3.8303,3.7949,3.7559,3.7503,3.7372,3.7203,0.0,0.0,0.0,0.0,0.0,0.0,0.0,0.0,0.0,0.0,0.0,0.0,0.0,0.0,0.0,0.0,0.0,0.0,2.1751,2.3024,2.4051,2.4661,2.5084,2.5497,2.5997,2.674,2.7413,2.8007,2.773,2.7401,2.6973,2.6512,2.5871,2.5096,2.5096,2.4892,2.4556,2.4556,2.4953,2.5579,2.5451,2.5739,0.0,0.0,0.0,0.0,0.0,0.0,0.0,0.0,2.9453,2.9664,2.9934,3.0147,3.033,3.0452,3.0548,3.0812,3.1744,3.2633,3.3495,3.4338,3.5223,3.5898,3.5891,3.5946,3.5995,3.5994,3.5996,3.6484,3.8105,3.8358,3.8811,4.0404,4.0564,4.0425,4.0234,4.0157,4.0098,3.9996,3.9954,3.9911,3.9911,3.9889,3.9889,3.9889,3.9889,3.9889,3.9889,3.9712,3.9526,3.9324,3.8989,3.8713,3.8496,3.8387,3.8322,3.8322,3.8354,3.8354,3.8387,3.8446,3.851,3.8559,3.8658,3.8707,3.8707,3.8707,3.8676,3.8609,3.8318,3.8086,3.7898,3.7828,3.7721,3.754,0.0,0.0,0.0,0.0,0.0,0.0,0.0,0.0,0.0,0.0,0.0,0.0,0.0,0.0,0.0,0.0,0.0,0.0,2.2221,2.3143,2.3867,2.4457,2.4871,2.5307,2.5779,2.6401,2.6989,2.76,2.7326,2.6447,2.5009,2.5135,2.4762,2.3996,2.4151,2.4629,2.5322,2.5319,2.5713,2.6376,2.6123,2.6419,2.6997,0.0,0.0,0.0,0.0,0.0,0.0,0.0,2.9472,2.9738,2.9934,3.0147,3.033,3.0452,3.0548,3.0831,3.1763,3.2647,3.3517,3.4392,3.525,3.5903,3.5911,3.5955,3.5995,3.5995,3.5996,3.6494,3.8084,3.835,3.8811,4.0339,4.0549,4.0444,4.0234,4.0196,4.0157,4.0017,3.9996,3.9975,3.9911,3.9889,3.9889,3.9889,3.9889,3.9889,3.9889,3.9712,3.9526,3.942,3.9073,3.8851,3.8707,3.8496,3.8415,3.8415,3.8478,3.851,3.851,3.851,3.8559,3.8707,3.8707,3.8707,3.8707,3.8707,3.8609,3.851,3.8415,3.8368,3.8307,3.8307,3.8223,3.8101,0.0,0.0,0.0,0.0,0.0,0.0,0.0,0.0,0.0,0.0,0.0,0.0,0.0,0.0,0.0,0.0,0.0,0.0,2.2649,2.3406,2.4021,2.4549,2.5005,2.5378,2.5663,2.6332,2.6796,2.6986,2.6472,2.5739,2.4782,2.4302,2.4277,2.4643,2.4664,2.5139,2.5923,2.5923,2.6349,2.6934,2.6828,2.7183,2.7771,0.0,0.0,0.0,0.0,0.0,0.0,0.0,0.0,0.0,2.9934,3.0147,3.033,3.0452,3.0983,3.1723,3.2656,3.3541,3.4418,3.5307,3.5717,3.5911,3.5955,3.5985,3.5996,3.6001,3.6001,3.6324,3.7365,3.7953,3.8606,3.9534,4.0096,4.0392,4.0291,4.0234,4.0196,4.0157,4.0098,4.0036,3.9975,3.9975,3.9954,3.9911,3.9889,3.9889,3.9889,3.9804,3.9647,3.9477,3.9272,3.9073,3.8851,3.8713,3.867,3.8627,3.8627,3.859,3.851,3.8609,3.8658,3.8707,3.8707,3.8707,3.8707,3.8707,3.8676,3.8609,3.851,3.8446,3.8415,3.8401,3.8252,3.8101,0.0,0.0,0.0,0.0,0.0,0.0,0.0,0.0,0.0,0.0,0.0,0.0,0.0,0.0,0.0,0.0,0.0,0.0,0.0,2.3595,2.412,2.4589,2.4966,2.5355,2.5754,2.6013,2.6056,2.5877,2.563,2.5014,2.401,2.3904,2.4159,2.4712,2.5123,2.5787,2.6591,2.6591,2.6993,2.7635,2.7522,2.7727,2.8099,0.0,0.0,0.0,0.0,0.0,0.0,0.0,0.0,0.0,2.9915,3.0128,3.0336,3.0452,3.1157,3.2092,3.3052,3.3944,3.4808,3.5684,3.5924,3.5943,3.5997,3.5994,3.6007,3.6001,3.5986,3.6216,3.7001,3.778,3.8518,3.9199,3.9912,4.0375,4.031,4.0253,4.0234,4.0196,4.0157,4.0098,3.9996,3.9996,3.9975,3.9911,3.9889,3.9889,3.9889,3.9826,3.9717,3.958,3.9427,3.9237,3.9036,3.8892,3.8822,3.878,3.875,3.8701,3.8664,3.8689,3.8707,3.8707,3.8707,3.8707,3.8707,3.8707,3.8707,3.8707,3.8609,3.859,3.859,3.8559,3.8465,3.8318,0.0,0.0,0.0,0.0,0.0,0.0,0.0,0.0,0.0,0.0,0.0,0.0,0.0,0.0,0.0,0.0,0.0,0.0,0.0,0.0,2.4193,2.4589,2.4886,2.5301,2.5937,2.5512,2.5042,2.455,2.4844,2.4316,2.3074,2.3824,2.4339,2.4633,2.5572,2.6466,2.7277,2.7277,2.7663,2.8273,2.8154,2.8126,2.8154,2.8273,0.0,0.0,0.0,0.0,0.0,0.0,0.0,0.0,2.9931,3.0142,3.0328,3.0559,3.1292,3.2208,3.3149,3.4056,3.4905,3.5703,3.5958,3.5994,3.5996,3.5999,3.6005,3.6005,3.5958,3.6128,3.6856,3.7704,3.8487,3.9075,3.9877,4.0394,4.031,4.031,4.0291,4.0234,4.0196,4.0157,4.0017,3.9996,3.9975,3.9911,3.9889,3.9889,3.9889,3.9826,3.9781,3.9717,3.9526,3.9376,3.9237,3.9045,3.895,3.8921,3.8862,3.8862,3.8921,3.878,3.8707,3.8707,3.8707,3.8707,3.8707,3.8707,3.8707,3.8707,3.8707,3.8707,3.8738,3.8792,3.878,3.8689,0.0,0.0,0.0,0.0,0.0,0.0,0.0,0.0,0.0,0.0,0.0,0.0,0.0,0.0,0.0,0.0,0.0,0.0,0.0,0.0,2.4245,2.4589,2.5005,2.5394,2.5738,2.5304,2.4813,2.4288,2.4091,2.3874,2.3628,2.3856,2.4731,2.6131,2.6427,2.7049,2.7905,2.7959,2.8076,2.8209,2.8182,2.8237,2.8327,2.8432,2.8569,0.0,0.0,0.0,0.0,0.0,0.0,0.0,2.9915,3.0147,3.0458,3.1281,3.2155,3.3044,3.3996,3.4911,3.5677,3.5858,3.5946,3.5996,3.5999,3.5994,3.5997,3.6005,3.5958,3.5933,3.6059,3.7249,3.8233,3.8271,3.948,4.0381,4.031,4.031,4.0272,4.0272,4.0291,4.0234,4.0077,4.0077,4.0036,3.9911,3.9889,3.9889,3.9889,3.9889,3.9867,3.9781,3.9735,3.9647,3.9521,3.935,3.929,3.9219,3.9101,3.9045,3.9045,3.8862,3.875,3.8707,3.8707,3.8707,3.8707,3.8707,3.8707,3.8707,3.875,3.8762,3.8792,3.8833,3.8851,3.8792,0.0,0.0,0.0,0.0,0.0,0.0,0.0,0.0,0.0,0.0,0.0,0.0,0.0,0.0,0.0,0.0,0.0,0.0,0.0,0.0,2.4219,2.4589,2.5045,2.5249,2.5139,2.4705,2.4199,2.3658,2.3592,2.3579,2.3665,2.4138,2.5149,2.6545,2.7095,2.7624,2.8154,2.8209,2.8264,2.8291,2.8291,2.8371,2.851,2.8587,2.8687,2.8785,2.8785,0.0,0.0,0.0,0.0,0.0,0.0,0.0,3.049,3.1468,3.2385,3.3297,3.4251,3.5196,3.5903,3.5931,3.5973,3.6005,3.5997,3.6001,3.5992,3.5958,3.5929,3.5883,3.5811,3.7123,3.8164,3.8012,3.9353,4.0381,4.031,4.031,4.031,4.031,4.031,4.0253,4.0117,4.0117,4.0036,3.9911,3.9889,3.9889,3.9889,3.9889,3.9889,3.9848,3.9826,3.9739,3.9647,3.9526,3.9427,3.9383,3.9298,3.921,3.9129,3.895,3.8822,3.875,3.8719,3.8738,3.875,3.875,3.878,3.881,3.8822,3.8851,3.8851,3.8921,3.8939,3.891,0.0,0.0,0.0,0.0,0.0,0.0,0.0,0.0,0.0,0.0,0.0,0.0,0.0,0.0,0.0,0.0,0.0,0.0,0.0,0.0,0.0,2.4589,2.5045,2.5034,2.4475,2.4045,2.3637,2.3243,2.3325,2.3528,2.3871,2.4692,2.5633,2.662,2.7542,2.8042,2.8154,2.8246,2.8327,2.8398,2.8398,2.8484,2.8612,2.8669,2.8737,2.8785,2.8785,2.8858,2.8998,2.9141,0.0,0.0,0.0,0.0,3.0727,3.1807,3.2686,3.3497,3.4466,3.532,3.5924,3.5986,3.5995,3.5991,3.599,3.6001,3.5973,3.5909,3.5899,3.5891,3.5815,3.6997,3.799,3.8003,3.9218,4.0208,4.0291,4.031,4.031,4.031,4.031,4.0253,4.0117,4.0117,4.0036,3.9911,3.9889,3.9889,3.9889,3.9889,3.9911,3.9911,3.9848,3.9826,3.9762,3.9647,3.9599,3.9599,3.9502,3.9401,3.929,3.9073,3.8921,3.8822,3.878,3.878,3.8851,3.8851,3.8892,3.8921,3.895,3.895,3.895,3.9054,3.9082,3.9082,0.0,0.0,0.0,0.0,0.0,0.0,0.0,0.0,0.0,0.0,1.7383,0.0,0.0,0.0,0.0,0.0,0.0,0.0,2.3275,0.0,0.0,2.4589,2.495,2.485,2.4227,2.3786,2.3636,2.3803,2.3427,2.3947,2.5321,2.5706,2.6398,2.7387,2.7695,2.7893,2.8025,2.8154,2.8291,2.8398,2.8398,2.851,2.8687,2.8694,2.8737,2.8785,2.8718,2.881,2.8934,2.9079,2.9336,0.0,0.0,0.0,3.1665,3.3378,3.4012,3.4364,3.5368,3.5795,3.5994,3.5994,3.5995,3.6003,3.5994,3.6005,3.5977,3.5919,3.5889,3.5891,3.5815,3.6551,3.7351,3.7906,3.8719,3.9519,4.0196,4.031,4.031,4.031,4.031,4.0253,4.0117,4.0117,4.0036,3.9911,3.9889,3.9889,3.9889,3.9889,3.9933,3.9975,3.9975,3.9996,4.0057,3.9975,3.9914,3.9914,3.9804,3.9693,3.9623,3.9427,3.9183,3.891,3.8939,3.8968,3.8979,3.9036,3.9073,3.9073,3.9129,3.9156,3.9175,3.9301,3.9365,3.9346,0.0,0.0,0.0,0.0,0.0,0.0,0.0,0.0,0.0,0.0,0.0,1.8441,0.0,0.0,0.0,2.1229,2.2016,2.2799,2.3625,2.4193,2.4368,2.4029,2.4342,2.4084,2.3109,2.3381,2.3489,2.3324,2.3998,2.476,2.5609,2.6177,2.6808,2.7465,2.7642,2.7789,2.7893,2.8053,2.8237,2.8353,2.838,2.8484,2.8637,2.8594,2.8909,2.9341,2.9315,2.9708,3.029,3.0531,3.0816,3.1167,3.1743,0.0,0.0,0.0,3.4199,3.4465,3.5519,3.5908,3.601,3.5992,3.5993,3.6007,3.6009,3.5962,3.5934,3.5914,3.5908,3.5891,3.5815,3.6454,3.7215,3.7887,3.8623,3.9385,4.0177,4.031,4.031,4.031,4.031,4.0253,4.0117,4.0117,4.0036,3.9911,3.9889,3.9889,3.9889,3.9889,3.9933,3.9996,3.9996,4.0017,4.0117,4.0077,4.0057,4.0057,3.9954,3.987,3.9807,3.9647,3.9427,3.9183,3.9129,3.9183,3.9272,3.9324,3.935,3.9376,3.9401,3.9401,3.9376,3.942,3.9464,3.9464,0.0,0.0,0.0,0.0,0.0,0.0,0.0,0.0,0.0,0.0,0.0,0.0,0.0,0.0,0.0,0.0,2.2016,2.2889,2.3882,2.4276,2.4306,2.3857,2.4153,2.3808,2.2705,2.3377,2.3634,2.3357,2.4564,2.538,2.5848,2.6471,2.6956,2.7279,2.7509,2.7642,2.7701,2.7911,2.8053,2.8146,2.8246,2.8505,2.8773,2.8747,2.9304,3.0071,3.0097,3.0636,3.1359,3.1691,3.2,3.2298,3.2689,3.2918,0.0,0.0,0.0,3.4739,3.5582,3.5904,3.5996,3.6009,3.5993,3.6001,3.6005,3.5958,3.5929,3.5894,3.5908,3.5891,3.5815,3.6279,3.6886,3.7574,3.8297,3.9078,3.9852,4.0157,4.031,4.031,4.031,4.0253,4.0117,4.0117,4.0036,3.9911,3.9889,3.9889,3.9889,3.9911,3.9954,4.0017,4.0038,4.0077,4.0157,4.0157,4.0157,4.0157,4.0077,4.0017,3.9958,3.987,3.9739,3.958,3.9427,3.9452,3.9604,3.9628,3.9651,3.9698,3.9698,3.9675,3.9628,3.9628,3.9628,3.9628,0.0,0.0,0.0,0.0,0.0,0.0,0.0,0.0,0.0,0.0,0.0,0.0,1.9121,1.9901,2.0673,2.1313,2.203,2.2814,2.3754,2.4234,2.4508,2.4542,2.4823,0.0,2.401,2.4122,2.4305,2.4612,2.487,2.5509,2.6469,2.6624,2.6775,2.6959,2.7279,2.7434,2.7434,2.7557,2.7659,2.776,2.794,2.8507,2.9262,2.941,3.0024,3.0866,3.0903,3.1136,3.1452,3.1714,3.2021,3.2468,3.3427,3.3813,3.4098,0.0,0.0,0.0,3.5745,3.5899,3.5996,3.6009,3.5996,3.6007,3.6009,3.6001,3.5977,3.5914,3.5908,3.5891,3.5815,3.5775,3.5977,3.665,3.7433,3.8216,3.8972,3.9775,4.031,4.031,4.031,4.0253,4.0117,4.0117,4.0036,3.9911,3.9889,3.9889,3.9889,3.9954,4.0036,4.0077,4.0157,4.0215,4.0291,4.0291,4.0291,4.0291,4.0215,4.0196,4.0177,4.0099,4.0099,4.0139,3.9873,3.9826,3.9873,3.9941,3.9982,3.9982,3.9982,3.9982,3.9963,3.9963,3.9963,3.9982,0.0,0.0,0.0,0.0,0.0,0.0,0.0,0.0,0.0,0.0,0.0,0.0,0.0,1.9044,1.9935,2.093,2.2203,2.3275,2.3897,2.4291,2.4337,2.3951,2.4147,2.4024,2.3546,2.3983,2.439,2.4764,2.5346,2.5938,2.6485,2.6606,2.6691,2.6775,2.7023,2.7137,2.7171,2.7764,2.8001,2.8146,2.8924,2.9462,2.9827,3.0071,3.0747,3.1639,3.1791,3.2319,3.2996,3.33,3.3593,3.3919,3.4358,3.4618,3.4849,3.5262,3.547,3.5618,3.5706,3.5833,3.5947,3.5994,3.5995,3.5991,3.6007,3.5966,3.5929,3.5894,3.5908,3.5891,3.5815,3.5756,3.5919,3.6593,3.7344,3.8089,3.8822,3.9662,4.0195,4.0234,4.0234,4.0234,4.0176,4.0137,4.0057,3.9975,3.9933,3.9889,3.9889,3.9954,4.0036,4.0096,4.0176,4.0234,4.031,4.0291,4.0291,4.031,4.0309,4.0308,4.0252,4.0234,4.0252,4.0307,4.0234,4.0177,4.0158,4.0177,4.0214,4.027,4.027,4.0232,4.0193,4.0193,4.0193,4.0175,0.0,0.0,0.0,0.0,0.0,0.0,0.0,0.0,0.0,0.0,0.0,0.0,0.0,0.0,1.976,2.1113,2.2466,2.3392,2.3839,2.4234,2.424,2.3856,2.3959,2.3989,2.3813,2.4244,2.4671,2.5069,2.5615,2.6043,2.638,2.6468,2.6555,2.6691,2.7097,2.7283,2.7317,2.7896,2.8305,2.8647,2.9434,3.0014,3.0419,3.0672,3.1403,3.2331,3.2491,3.3075,3.378,3.4099,3.4386,3.4666,3.4831,3.502,3.5234,3.5324,3.5449,3.5538,3.5649,3.576,3.5872,3.5947,3.5964,3.5976,3.5989,3.5971,3.5927,3.5894,3.5894,3.5878,3.5803,3.5754,3.5813,3.6202,3.6884,3.7536,3.8039,3.9014,3.9738,3.9814,4.0081,4.0234,4.0234,4.0196,4.0138,4.0078,4.0038,3.9998,3.9998,4.0059,4.0118,4.0196,4.0234,4.0291,4.0328,4.0326,4.0326,4.0328,4.0381,4.0396,4.0358,4.0358,4.0392,4.046,4.0476,4.0427,4.0379,4.0394,4.0447,4.0479,4.046,4.0438,4.0399,4.0399,4.0399,4.0434,0.0,0.0,0.0,0.0,0.0,0.0,0.0,0.0,0.0,1.739,0.0,0.0,0.0,0.0,0.0,2.1841,2.2678,2.3201,2.3551,2.4009,2.4261,2.4261,2.4482,2.4742,2.4966,2.4997,2.5194,2.5578,2.5578,2.5803,2.6168,2.6277,2.6434,2.6673,2.745,2.7806,2.7892,2.8014,2.8473,2.9136,2.9437,3.011,3.0958,3.1228,3.1966,3.2916,3.3024,3.3298,3.3633,3.3895,3.4221,3.4539,3.4752,3.4964,3.5217,3.528,3.5345,3.5438,0.0,0.0,0.0,3.5872,3.5903,3.5921,3.5976,3.5993,3.5977,3.5904,3.5899,3.5875,3.5806,3.576,3.565,3.5445,3.6017,3.6501,3.6489,3.7868,3.8917,3.9082,3.979,4.0269,4.0288,4.0288,4.0289,4.0215,4.0215,4.0215,4.0215,4.027,4.0325,4.0396,4.0396,4.0396,4.0396,4.0415,4.0415,4.0396,4.0415,4.0427,4.0504,4.0504,4.0549,4.0621,4.0621,4.0569,4.0499,4.0577,4.0607,4.0603,4.0593,4.0602,4.0621,4.0621,4.0654,4.07,0.0,0.0,0.0,0.0,0.0,0.0,1.5342,1.6104,1.6623,0.0,0.0,0.0,1.7546,1.8943,2.0283,2.1334,2.2095,2.2694,2.3068,2.3465,2.3739,2.3925,2.4567,2.4825,2.462,2.517,2.5375,2.5224,2.5394,2.5637,2.597,2.617,2.663,2.7343,2.7599,2.8361,2.9482,2.9519,2.9638,2.9875,3.072,3.1229,3.1581,3.1899,3.2278,3.2623,3.283,3.305,3.328,3.3597,3.3921,3.4293,3.4713,3.5001,3.5164,3.528,3.532,3.5355,3.5483,0.0,0.0,0.0,0.0,0.0,3.5929,3.5976,3.5977,3.5919,3.5909,3.5875,3.5806,3.5788,3.5708,3.5566,3.6117,3.6546,3.652,3.7387,3.8285,3.9001,3.9306,3.9704,4.0383,4.0408,4.0356,4.0339,4.0302,4.0266,4.0266,4.0339,4.0408,4.0476,4.0469,4.0469,4.0469,4.0569,4.0569,4.0469,4.0559,4.0588,4.0579,4.0681,4.072,4.0745,4.0745,4.072,4.0713,4.064,4.0621,4.0675,4.0668,4.0694,4.0742,4.0742,4.0792,4.0834,0.0,0.0,0.0,0.0,0.0,0.0,1.54,1.6104,1.6655,0.0,0.0,0.0,1.7838,1.9226,2.0447,2.1341,2.2101,2.2707,2.3203,2.3641,2.3965,2.4193,2.4807,2.5077,2.4904,2.517,2.5273,2.524,2.5116,2.5406,2.6081,2.6232,2.6796,2.7781,2.8215,2.8984,2.9955,3.0297,3.0526,3.0598,3.1219,3.1559,3.1688,3.2001,3.2161,3.2266,3.247,3.2669,3.2912,3.3238,3.3689,3.4221,3.467,3.4927,3.5038,3.5179,3.5226,3.5285,3.5393,3.5483,3.5574,3.5699,0.0,0.0,3.589,3.5955,3.5991,3.5942,3.5942,3.5924,3.5853,3.5838,3.5799,3.5708,3.5991,3.619,3.6104,3.6757,3.745,3.8063,3.877,3.9415,3.9995,4.0342,4.0534,4.0534,4.0496,4.0511,4.0521,4.0554,4.0568,4.0615,4.0642,4.0623,4.0623,4.07,4.07,4.0623,4.0706,4.0718,4.0674,4.0784,4.0837,4.0839,4.0839,4.0839,4.0828,4.0773,4.073,4.0742,4.0765,4.0798,4.084,4.083,4.0878,4.0946,0.0,0.0,0.0,1.339,1.4052,1.4765,1.5497,1.6192,1.6825,0.0,1.7409,1.7878,1.8817,1.9642,2.0612,2.1584,2.2309,2.295,2.3551,2.4061,2.4412,2.4581,2.5009,2.5265,2.5349,2.5137,2.5136,2.5395,2.4936,2.5284,2.6333,2.6439,2.7042,2.811,2.8975,2.953,2.9861,3.065,3.1055,3.119,3.1274,3.1351,3.15,3.1688,3.1819,3.1875,3.2073,3.2249,3.2489,3.2848,3.3504,3.4179,3.4539,3.4751,3.4908,3.502,3.5108,3.5193,3.5261,3.5379,3.5496,3.5574,3.5708,0.0,3.588,3.5942,3.5996,3.6001,3.6001,3.5977,3.5917,3.5898,3.5872,3.5807,3.5743,3.566,3.5534,3.6078,3.6565,3.6793,3.8136,3.9094,3.9257,4.0069,4.0578,4.0578,4.0718,4.0804,4.0818,4.0818,4.0818,4.0818,4.0798,4.0809,4.0828,4.0809,4.0809,4.0809,4.0819,4.0829,4.082,4.0897,4.0924,4.0921,4.0921,4.0921,4.0921,4.0915,4.0869,4.0828,4.0888,4.0915,4.091,4.0914,4.0953,4.1003,0.0,0.0,1.292,1.339,1.4172,1.4883,1.5526,1.6478,1.7313,1.7673,1.8243,1.8696,1.9011,1.9645,2.0316,2.0981,2.172,2.2376,2.2871,2.3291,2.3589,2.3742,2.4526,2.4773,2.4376,2.5232,2.5564,2.5329,2.5531,2.5935,2.6557,2.6788,2.7466,2.8495,2.896,2.9585,3.0352,3.0764,3.0952,3.1055,3.1235,3.1295,3.1351,3.15,3.1593,3.1576,3.1654,3.1839,3.2109,3.2784,3.3332,3.3787,3.4179,3.4517,3.4751,3.485,3.4945,3.5037,3.5124,3.5254,3.5369,3.5483,3.5659,0.0,3.5883,3.5946,3.5994,3.6009,3.5991,3.5986,3.5914,3.5903,3.5891,3.5878,3.5818,3.5752,3.5678,3.5739,3.6064,3.6791,3.7165,3.7636,3.8368,3.9216,3.9731,3.9731,4.0447,4.0877,4.0869,4.0869,4.0869,4.0869,4.0878,4.0915,4.0971,4.0968,4.0957,4.0957,4.0953,4.0953,4.0964,4.1039,4.1058,4.1058,4.1058,4.1058,4.1058,4.0999,4.0968,4.0963,4.0975,4.0976,4.0978,4.0988,4.0984,4.0994,1.1934,1.2359,1.285,1.339,1.4282,1.5083,1.5604,1.6638,1.7488,1.7931,1.8507,1.9039,1.9393,1.989,2.0522,2.126,2.1876,2.2412,2.2998,2.3352,2.363,2.3919,2.4587,2.4832,2.4528,2.5095,2.5351,2.5284,2.5449,2.589,2.6673,2.7024,2.7713,2.869,2.903,2.9572,3.0156,3.0452,3.0716,3.0855,3.1134,3.1252,3.1252,3.1308,3.1363,3.1346,3.1428,3.1637,3.2002,3.2588,3.3063,3.3458,3.3876,3.4197,3.4495,3.4607,3.4752,3.487,3.5,3.5157,3.5285,3.543,3.5574,0.0,0.0,3.5909,3.596,3.5996,3.5991,3.5994,3.5951,3.5953,3.5958,3.5942,3.5891,3.5833,3.5803,3.5736,3.5853,3.6248,3.6701,3.7116,3.7522,3.838,3.9101,3.9558,4.0441,4.0954,4.0996,4.0996,4.0996,4.0996,4.0999,4.1013,4.1059,4.1058,4.1045,4.1045,4.105,4.105,4.1045,4.1086,4.1096,4.1096,4.1109,4.1097,4.1104,4.1051,4.1051,4.1051,4.1042,4.1042,4.1043,4.1053,4.1054,4.1053,1.1781,1.2258,1.2742,1.3479,1.4427,1.5203,1.5733,1.672,1.7614,1.8353,1.8797,1.9247,1.9706,2.0126,2.071,2.1491,2.1963,2.2531,2.3163,2.3399,2.3682,2.3989,2.4408,2.4637,2.4637,2.4737,2.4922,2.5198,2.5214,2.5712,2.6737,2.717,2.7794,2.859,2.9013,2.9364,2.9705,2.9995,3.0326,3.0609,3.0895,3.1072,3.1151,3.1151,3.1151,3.119,3.1274,3.1524,3.1894,3.2352,3.2766,3.3184,3.3569,3.3868,3.4173,3.4363,3.4542,3.4713,3.4908,3.5073,3.5209,3.5354,3.5483,3.5618,0.0,0.0,0.0,3.5964,3.5974,3.5976,3.6003,3.6007,3.5994,3.6005,3.5942,3.5914,3.5899,3.5852,3.5782,3.5728,3.6328,3.6744,3.6684,3.752,3.852,3.9614,4.0361,4.0843,4.1085,4.111,4.111,4.111,4.1109,4.1095,4.11,4.1091,4.11,4.11,4.11,4.11,4.11,4.1097,4.1104,4.1104,4.1101,4.111,4.1093,4.1093,4.1074,4.1073,4.1092,4.1093,4.1091,4.1091,4.1078,4.1046,1.1448,1.2145,1.2935,1.386,1.4482,1.5092,1.5807,1.6725,1.7841,1.9262,1.9521,1.9673,1.9987,2.0257,2.059,2.1123,2.1502,2.1939,2.2482,2.2616,2.2774,2.2774,2.3148,2.3327,2.3327,2.3981,2.4517,2.4759,2.5259,2.5923,2.6732,2.7143,2.7605,2.8107,2.8542,2.8904,2.9212,2.9528,2.9897,3.0274,3.0316,3.0568,3.0952,3.0975,3.1015,3.1055,3.1218,3.1449,3.1691,3.2037,3.242,3.2798,3.3099,3.3484,3.3868,3.4099,3.4363,3.4647,3.4792,3.4964,3.5145,3.5277,3.5416,3.5543,3.5669,0.0,3.5908,3.5919,0.0,3.594,3.5996,0.0,0.0,3.5994,3.5988,3.5962,3.5919,3.5885,3.5858,3.5791,3.5877,3.5937,3.5937,3.672,3.7918,3.9578,3.9799,4.0214,4.1071,4.111,4.111,4.111,4.1109,4.11,4.1091,4.1105,4.1097,4.1104,4.1104,4.1104,4.1108,4.1101,4.1108,4.1093,4.1093,4.1108,4.1103,4.1041,4.101,4.1012,4.108,4.1099,4.1094,4.102,4.0976,4.091,1.137,1.2087,1.2848,1.3643,1.4555,1.5384,1.5915,1.7111,1.8108,1.889,1.9131,1.9407,1.9615,1.9944,2.027,2.0646,2.1019,2.1388,2.1776,2.1889,2.1928,2.2051,2.2347,2.2531,2.2531,2.3195,2.3741,2.4079,2.4754,2.537,2.5932,2.6625,2.7159,2.7479,2.8042,2.8479,2.8748,2.909,2.9364,2.9694,2.9738,2.9913,3.013,3.0452,3.0757,3.0935,3.1095,3.1274,3.1504,3.1819,3.2161,3.2437,3.2719,3.3068,3.3426,3.3616,3.3979,3.4293,3.452,3.4751,3.4965,3.5091,3.5235,3.5359,3.55,3.5659,3.5788,3.5827,0.0,0.0,0.0,0.0,0.0,0.0,3.5995,3.5989,3.5955,3.5962,3.5938,3.5872,3.5859,3.5852,3.5852,3.6604,3.7416,3.8195,3.9143,3.9883,4.0331,4.0838,4.1091,4.1103,4.11,4.1091,4.1105,4.1097,4.1104,4.1108,4.1108,4.1094,4.1103,4.1093,4.1093,4.1105,4.1052,4.1046,4.1045,4.098,4.0942,4.0933,4.094,4.0948,4.0974,4.0906,4.0849,4.0787,1.1422,1.2089,1.2844,1.359,1.4635,1.5583,1.607,1.7116,1.791,1.824,1.8519,1.8798,1.9142,1.9407,1.9747,2.014,2.0453,2.0775,2.1083,2.121,2.1273,2.1313,2.1628,2.1741,2.1741,2.2359,2.2786,2.3148,2.3833,2.4399,2.4993,2.5809,2.64,2.6745,2.7429,2.7879,2.8174,2.8527,2.8811,2.9044,2.9152,2.9243,2.938,2.9968,3.0452,3.0757,3.0895,3.1038,3.1218,3.1542,3.1839,3.2073,3.237,3.2654,3.2957,3.3196,3.3514,3.3884,3.4136,3.439,3.4607,3.4733,3.4925,3.5098,3.5268,3.5438,3.5618,3.5706,3.5795,0.0,0.0,0.0,3.5899,3.5931,0.0,3.5973,3.5976,3.5975,3.596,3.5933,3.5922,3.5922,3.5922,3.6456,3.6923,3.7214,3.8552,3.95,3.9779,4.0623,4.1097,4.1109,4.1106,4.11,4.1109,4.1108,4.1099,4.1101,4.1101,4.1108,4.1094,4.111,4.1094,4.1061,4.1003,4.0974,4.0974,4.0888,4.084,4.0818,4.073,4.0692,4.0688,4.0692,4.0649,4.0582,1.1607,1.2345,1.3157,1.4091,1.4816,1.5471,1.6184,1.6533,1.6881,1.7638,1.7706,1.8056,1.8741,1.8808,1.9075,1.9605,1.9802,2.0064,2.041,2.0604,2.0733,2.0733,2.0839,2.0967,2.0967,2.1273,2.1639,2.1939,2.2408,2.3075,2.3859,2.4627,2.5259,2.5892,2.6587,2.7071,2.7393,2.781,2.814,2.8352,2.8429,2.8573,2.8826,2.9661,3.014,3.0351,3.0634,3.0757,3.0885,3.1218,3.1449,3.1691,3.2001,3.2249,3.2486,3.2809,3.313,3.3468,3.3661,3.3854,3.4056,3.4176,3.4467,3.4774,3.4962,3.5162,3.5353,3.5492,3.5618,3.5737,3.5791,3.5803,3.5794,3.5801,3.5855,0.0,0.0,3.5896,3.5934,3.5997,3.6001,3.6001,3.6001,3.602,3.6387,3.7225,3.8063,3.8915,3.976,4.0637,4.111,4.111,4.11,4.1096,4.1096,4.1099,4.1092,4.1094,4.1093,4.111,4.1101,4.1104,4.1056,4.0999,4.0932,4.0906,4.0877,4.0761,4.0668,4.0588,4.0469,4.03,4.0155,4.0326,4.038,4.0281,1.1484,1.2003,1.282,1.3833,1.4545,1.5196,1.5842,1.6114,1.6394,1.6881,1.7226,1.7579,1.8056,1.8337,1.8607,1.8854,1.9264,1.955,1.9681,1.9878,1.9933,1.9933,2.0129,2.0259,2.0259,2.056,2.088,2.1273,2.2084,2.2807,2.3566,2.4732,2.5628,2.6352,2.7045,2.7623,2.8119,2.7963,2.8047,2.8203,2.8372,2.8677,2.9079,2.9494,2.9766,2.9881,3.013,3.0316,3.0426,3.0716,3.0902,3.1123,3.1449,3.1731,3.2003,3.2213,3.2533,3.2822,3.3014,3.3296,3.3561,3.3588,3.3894,3.4223,3.4427,3.4659,3.4884,3.507,3.52,3.5325,3.5444,3.5473,3.5499,3.5582,3.563,3.5666,0.0,3.5818,3.5833,3.5864,3.5951,3.5995,3.5995,3.5993,3.6126,3.6415,3.7717,3.8629,3.8918,4.0307,4.1111,4.1094,4.1099,4.1105,4.1091,4.1094,4.1091,4.1103,4.1097,4.1086,4.1033,4.0984,4.0935,4.0859,4.0798,4.073,4.061,4.0492,4.0367,4.0248,4.0082,3.9943,3.9838,4.0004,4.0003,3.9857,1.1111,1.1558,1.2224,1.3324,1.4114,1.4768,1.5196,1.5338,1.5542,1.6044,1.6403,1.6751,1.7166,1.7442,1.7706,1.7891,1.8375,1.8664,1.8865,1.9142,1.9341,1.9407,1.9539,1.9679,1.9839,2.0028,2.0379,2.0897,2.1786,2.2531,2.326,2.4441,2.5369,2.6118,2.6788,2.7398,2.7896,2.7853,2.7862,2.8028,2.8464,2.8838,2.9176,2.9508,2.9769,3.002,3.0314,3.0451,3.0542,3.0733,3.0816,3.0891,3.1491,3.1692,3.1759,3.2248,3.2602,3.2789,3.2669,3.3119,3.3573,3.3315,3.375,3.4217,3.4164,3.4383,3.4558,3.4459,3.4584,3.4755,3.4916,3.4999,3.5097,3.5273,3.5328,3.5399,0.0,3.5599,3.5637,3.5699,3.5858,3.5965,3.5965,3.5955,3.5962,3.5966,3.7242,3.8161,3.8472,3.9859,4.0776,4.1066,4.1066,4.1064,4.1055,4.1069,4.1055,4.1052,4.1046,4.0996,4.0936,4.0837,4.0761,4.0692,4.059,4.0492,4.0348,4.0174,4.0043,3.9897,3.9683,3.9494,3.9396,3.9595,3.95,3.9261,1.0663,1.0887,1.1416,1.262,1.3484,1.4057,1.4201,1.4266,1.4482,1.5062,1.5355,1.5638,1.6202,1.6272,1.6403,1.6802,1.7139,1.7482,1.7901,1.8385,1.8808,1.9029,1.9039,1.9246,1.962,1.963,2.0056,2.0857,2.1441,2.2136,2.29,2.3797,2.4586,2.5269,2.5926,2.6497,2.6971,2.7423,2.7689,2.7894,2.8497,2.8864,2.9031,2.9702,3.025,3.0716,3.0958,3.1042,3.1092,3.1275,3.1117,3.0978,3.2027,3.2022,3.1802,3.277,3.3212,3.3253,3.2661,3.3287,3.3977,3.3343,3.395,3.4623,3.4163,3.423,3.424,3.367,3.3753,3.3976,3.4177,3.4405,3.4603,3.4813,3.4977,3.5111,3.5249,3.5273,3.5328,3.5451,3.5698,3.5864,3.5898,3.5898,3.5892,3.5903,3.6707,3.7584,3.8442,3.9325,4.0169,4.0968,4.1007,4.1007,4.1007,4.1006,4.0984,4.0991,4.0924,4.0859,4.0784,4.063,4.0535,4.0462,4.0334,4.0192,4.0043,3.9842,3.9683,3.9526,3.9253,3.9008,3.8789,3.9044,3.8896,3.8523,0.9841,1.0293,1.0946,1.1746,1.252,1.3112,1.3411,1.3484,1.3695,1.441,1.4697,1.4974,1.5417,1.5621,1.5754,1.5816,1.6298,1.6645,1.6715,1.7207,1.7693,1.8069,1.8168,1.845,1.8885,1.9039,1.9377,1.9867,2.0845,2.1653,2.2451,2.3674,2.4682,2.5555,2.6244,2.6921,2.756,2.731,2.7039,2.6829,2.7778,2.838,2.8824,2.9842,3.0367,3.0537,3.0509,3.0521,3.0521,3.0674,3.0786,3.0956,3.1358,3.166,3.1876,3.2191,3.2467,3.2641,3.259,3.289,3.3187,3.3026,3.3325,3.3642,3.3481,3.3289,3.3143,3.3085,3.2902,3.2847,3.3176,3.3405,3.3714,3.4209,3.4595,3.4794,3.485,3.494,3.5026,3.5108,3.523,3.5412,3.5727,3.5799,3.5823,3.5833,3.6631,3.7507,3.8376,3.9259,4.0096,4.0894,4.0933,4.0926,4.0929,4.0924,4.0878,4.0787,4.0703,4.0617,4.0496,4.0312,4.0155,4.0062,3.9924,3.9775,3.9637,3.9432,3.9223,3.899,3.8778,3.846,3.8153,3.8328,3.8281,3.8101,0.9037,0.96,1.0261,1.079,1.1558,1.2228,1.2927,1.3003,1.3223,1.3812,1.4097,1.4328,1.4633,1.4774,1.484,1.484,1.5275,1.5569,1.5715,1.6306,1.6764,1.7122,1.7286,1.7705,1.8188,1.8423,1.8817,1.9533,2.0522,2.1383,2.2135,2.3165,2.4082,2.4826,2.5545,2.6239,2.6921,2.7025,2.696,2.6799,2.745,2.7954,0.0,2.9316,2.9766,2.9986,3.0144,3.0398,3.0773,3.0882,3.0952,3.1083,3.1555,3.1769,3.1863,3.2217,3.2545,3.2676,3.2481,3.2865,3.3264,3.2935,3.3172,3.3437,3.3089,3.2877,3.2614,3.2167,3.2021,3.1998,3.2174,3.2467,3.2913,3.3633,3.3956,3.4134,3.4209,3.4218,3.4311,3.4499,3.4542,3.4718,3.5094,3.5405,3.559,3.5611,3.6077,3.6755,3.7686,3.854,3.9374,4.0228,4.0616,4.0789,4.0726,4.0692,4.061,4.0482,4.0373,4.0243,4.0101,3.9944,3.9775,3.9614,3.9494,3.932,3.9127,3.8971,3.8741,3.8455,3.8065,3.7685,3.7394,3.7321,3.745,3.7541,0.8229,0.891,0.9572,1.0019,1.0676,1.1497,1.25,1.2683,1.2876,1.3252,1.3488,1.3653,1.3888,1.3888,1.3888,1.3888,1.4272,1.4491,1.4654,1.5435,1.5912,1.6174,1.6412,1.6817,1.7492,1.7752,1.8389,1.9362,2.0138,2.0914,2.1603,2.2381,2.2968,2.3526,2.4181,2.4909,2.5685,2.6471,2.6824,2.6879,2.7149,2.7471,2.7789,2.8298,2.8698,2.9107,2.9656,3.0404,3.1219,3.1379,3.1306,3.1293,3.2063,3.1943,3.1751,3.247,3.2857,3.2892,3.2327,3.2907,3.3534,3.286,3.3166,3.3406,3.2832,3.2608,3.2289,3.1221,3.1116,3.1205,3.1185,3.1554,3.2142,3.2911,3.313,3.3219,3.3346,3.3245,3.3312,3.3597,3.3666,0.0,3.4157,3.4811,3.5249,3.5334,3.5334,3.5823,3.6942,3.7656,3.8485,3.9469,4.024,4.0564,4.0446,4.0361,4.0262,4.0138,3.9966,3.9802,3.9618,3.9537,3.9401,3.9192,3.9055,3.8855,3.8609,3.846,3.8234,3.7879,3.7283,3.6843,3.6545,3.6266,3.6433,3.6759,0.7353,0.8185,0.8968,0.9628,1.0247,1.0982,1.177,1.2116,1.2479,1.2876,1.2956,1.3035,1.3272,1.3272,1.3272,1.3272,1.3495,1.3639,1.3639,1.4116,1.4538,1.4787,1.5215,1.5782,1.6359,1.6944,1.7535,1.8318,1.8984,1.9608,2.0285,2.0914,2.1517,2.2103,2.285,2.3734,2.4696,2.5358,2.5429,2.5205,2.5721,2.6057,2.6296,2.6976,2.7458,2.7868,2.8519,2.9484,3.0493,3.0807,3.097,3.1114,3.1407,3.1592,3.1702,3.1849,3.1992,3.213,3.2103,3.2275,3.2376,3.2252,3.2314,3.236,3.2087,3.1697,3.1343,3.1149,3.0348,2.9911,3.0373,3.0899,3.1373,3.1668,3.1935,3.209,3.2106,3.2053,3.2068,3.2302,3.2481,3.2701,3.306,3.4083,3.4794,3.4977,3.4977,3.5715,3.7403,3.7613,3.8414,3.9999,4.0155,4.0195,4.0177,3.9984,3.9882,3.9778,3.9534,3.9383,3.9261,3.9045,3.8818,3.8646,3.8572,3.8364,3.8101,3.8054,3.765,3.7055,3.6498,3.6105,3.583,3.5493,3.5311,3.5266,0.6929,0.7614,0.8316,0.9095,0.9714,1.0343,1.1052,1.1387,1.1744,1.2337,1.2419,1.2419,1.2502,1.2661,1.2737,1.2737,1.3067,1.3225,1.3225,1.3641,1.3947,1.4083,1.4427,1.4828,1.522,1.5801,1.6453,1.6935,1.7853,1.8576,1.9125,1.9825,2.045,2.0991,2.2038,2.2947,2.3706,2.4238,2.4383,2.4311,2.4683,2.5016,2.5264,2.5755,2.6252,2.6867,2.7471,2.8182,2.8967,2.987,3.0372,3.0553,3.0673,3.0792,3.0896,3.0896,3.0955,3.1058,3.1175,3.1218,3.1276,3.1276,3.1218,3.1175,3.1058,3.0821,3.0511,3.0229,2.9788,2.9448,2.9404,2.9812,3.0141,3.0153,3.0342,3.0526,3.0639,3.0566,3.0628,3.0972,3.1141,3.1438,3.1934,3.2629,3.3413,3.4222,3.4411,3.5103,3.6534,3.7126,3.7982,3.9216,3.961,3.9731,3.9576,3.9432,3.9264,3.9125,3.8962,3.8828,3.8737,3.8585,3.8415,3.8171,3.8138,3.7915,3.7504,3.7111,3.6701,3.6215,3.5732,3.5266,3.4925,3.4721,3.4399,3.4202,0.6349,0.6966,0.758,0.8468,0.899,0.9598,1.0111,1.0458,1.0895,1.1774,1.1866,1.1866,1.1866,1.2112,1.2277,1.2277,1.2625,1.2887,1.2887,1.3143,1.3313,1.3313,1.3659,1.3906,1.4062,1.481,1.5387,1.5794,1.6788,1.7529,1.8014,1.8807,1.9529,2.0089,2.1221,2.1993,2.2467,2.299,2.3298,2.3446,2.3824,2.4093,2.4432,2.4731,2.5217,2.5836,2.6389,2.6867,2.7404,2.8505,2.9296,2.9747,2.9732,2.9732,2.9732,2.9732,2.9856,2.9931,2.9931,2.9964,3.0072,3.0072,2.9964,2.9931,2.9931,2.987,2.9667,2.9231,2.9123,2.8915,2.837,2.8628,2.8843,2.8653,2.8763,2.8902,2.8973,2.8928,2.9035,2.9436,2.9654,2.9995,3.065,3.1019,3.1742,3.2972,3.3698,3.4574,3.5664,3.6686,3.7577,3.8377,3.8945,3.9088,3.884,3.8667,3.8505,3.8323,3.8296,3.8219,3.8122,3.807,3.7933,3.7703,3.7649,3.7337,3.6799,3.6139,3.5732,3.5431,3.4958,3.4496,3.4052,3.3866,3.3626,3.3382,0.5458,0.626,0.7058,0.7577,0.8193,0.8715,0.8978,0.9235,0.9845,1.1149,1.1327,1.1327,1.1327,1.1585,1.1757,1.1757,1.1946,1.2123,1.2123,1.2123,1.2123,1.2123,1.2625,1.296,1.313,1.3886,1.4552,1.522,1.5643,1.6229,1.6894,1.7538,1.8416,1.9381,2.0079,2.0547,2.0769,2.1603,2.2004,2.2035,2.2777,2.3224,2.3519,2.4043,2.4527,2.485,2.53,2.5779,2.6252,2.6607,2.7484,2.8468,2.8634,2.862,2.862,2.862,2.8684,2.8684,2.8684,2.8684,2.8684,2.8684,2.8684,2.8684,2.8684,2.8684,2.8607,2.8616,2.8214,2.7707,2.7183,2.7381,2.7598,2.7339,2.7428,2.7466,2.71,2.7026,2.7128,2.746,2.7777,2.8309,2.8948,2.9456,3.007,3.0898,3.293,3.4617,3.582,3.6776,3.7643,3.8365,3.835,3.819,3.7905,3.7683,3.7524,3.7524,3.7487,3.7487,3.7504,3.7376,3.7188,3.6978,3.6781,3.644,3.5994,3.5374,3.5021,3.4816,3.4218,3.3848,3.3487,3.3071,3.2803,3.2656,0.4385,0.5097,0.5719,0.634,0.6868,0.7401,0.7753,0.8105,0.8632,0.9327,0.9758,1.0106,1.0289,1.0463,1.0722,1.0809,1.1073,1.1165,1.1165,1.1338,1.1424,1.1424,1.1849,1.2106,1.2186,1.3039,1.3548,1.388,1.4727,1.5401,1.5982,1.6722,1.7781,1.8984,1.9054,1.9362,1.9991,2.0294,2.0769,2.1328,2.1852,2.2467,2.3001,2.3372,2.3813,2.4238,2.4539,2.4886,2.5146,2.5358,2.6321,2.7497,2.755,2.7604,2.7604,2.7604,2.7604,2.7604,2.7604,2.7604,2.7604,2.7604,2.7604,2.7604,2.7604,2.7604,2.7604,2.7604,2.7341,2.6844,2.6039,2.6177,2.6268,2.5888,2.6194,2.6435,2.6477,2.6706,2.7018,2.7311,2.7712,2.8198,2.8934,2.9362,2.9972,3.0881,3.2338,3.3741,3.5043,3.607,3.691,3.7595,3.7434,3.7179,3.6802,3.6641,3.6556,3.6556,3.6649,3.6724,3.6781,3.6643,3.6422,3.6028,3.5681,3.5414,3.5203,3.4593,3.4202,3.3935,3.3439,3.3033,3.2687,3.2413,3.2176,3.1879,0.3312,0.3937,0.4469,0.5186,0.563,0.6074,0.652,0.6877,0.7139,0.7404,0.7925,0.854,0.9248,0.951,0.968,0.9854,1.0111,1.0197,1.0197,1.0371,1.0549,1.0554,1.1068,1.1327,1.1499,1.2272,1.2705,1.2875,1.3808,1.4475,1.5061,1.6057,1.7123,1.8264,1.8175,1.8496,1.9134,1.9292,1.9766,2.0469,2.0924,2.1548,2.2317,2.2553,2.3001,2.3593,2.3677,2.3959,2.4154,2.4299,2.5063,2.6126,2.6264,2.6333,2.6333,2.6333,2.6333,2.6333,2.6333,2.6333,2.6333,2.6333,2.6333,2.6333,2.6333,2.6333,2.6333,2.6333,2.6195,2.5852,2.5115,2.5178,2.5197,2.476,2.4998,2.5333,2.5469,2.5857,2.6228,2.6613,2.6987,2.7519,2.8182,2.8729,2.937,3.0351,3.1475,3.2791,3.4259,3.5262,3.5985,3.6446,3.6301,3.601,3.5579,3.5586,3.5576,3.5593,3.5786,3.589,3.5977,3.5786,3.5459,3.5065,3.464,3.4415,3.4301,3.3799,3.3403,3.3071,3.2711,3.2327,3.1966,3.1811,3.1495,3.1248,0.2329,0.2862,0.3489,0.4208,0.4563,0.4919,0.5371,0.546,0.5458,0.5719,0.5991,0.6789,0.846,0.8807,0.889,0.889,0.9061,0.9235,0.9235,0.9235,0.9327,0.9602,1.0033,1.0549,1.0982,1.1499,1.2015,1.2705,1.296,1.3385,1.4139,1.547,1.6468,1.7131,1.7538,1.7781,1.8031,1.8505,1.8984,1.9381,2.0001,2.0624,2.1242,2.1645,2.2176,2.2703,2.2703,2.3001,2.3298,2.3298,2.3593,2.4032,2.4576,2.4707,2.4707,2.4707,2.4707,2.4707,2.4707,2.4707,2.4707,2.4707,2.4707,2.4707,2.4707,2.4707,2.4707,2.4707,2.4647,2.4515,2.4504,2.4504,2.4352,2.3991,2.4013,2.4006,2.3694,2.3886,2.4279,2.4616,2.5116,2.567,2.6262,2.6941,2.7752,2.877,3.0172,3.1829,3.3603,3.4543,3.5006,3.4951,3.4905,3.4781,3.4431,3.456,3.4625,3.4625,3.488,3.5021,3.5021,3.4625,3.4301,3.4101,3.3848,3.3523,3.3177,3.2911,3.2641,3.2398,3.2094,3.1796,3.148,3.1131,3.0896,3.0718,0.1434,0.1792,0.2061,0.251,0.2956,0.3312,0.3671,0.3939,0.4204,0.4472,0.483,0.5364,0.6071,0.7044,0.7753,0.7925,0.8197,0.8285,0.8285,0.846,0.8544,0.8636,0.9069,0.9506,0.9864,1.0549,1.1154,1.1499,1.2357,1.3294,1.4314,1.5068,1.5824,1.664,1.6722,1.7139,1.7554,1.7619,1.8014,1.8656,1.9054,1.9687,2.0547,2.1021,2.1492,2.1883,2.2025,2.2176,2.2252,2.2252,2.2327,2.2553,2.283,2.357,2.4394,2.4394,2.4394,2.4394,2.4394,2.4394,2.4394,2.4394,2.4394,2.4394,2.4394,2.4394,2.4322,2.4166,2.4105,2.4032,2.3728,2.3801,2.3829,2.3754,2.3936,2.4153,2.419,2.4656,2.5059,2.5388,2.5795,2.6276,2.6857,2.7298,2.7922,2.8886,2.9719,3.0806,3.2313,3.3303,3.3806,3.3754,3.3668,3.3531,3.3287,3.3407,3.3578,3.3783,3.4118,3.4168,3.4036,3.3614,3.3303,3.3087,3.2873,3.2726,3.2508,3.2201,3.1864,3.161,3.1321,3.097,3.0673,3.0493,3.0115,2.9732,0.0718,0.0897,0.1166,0.1436,0.1793,0.2061,0.242,0.2777,0.3044,0.3223,0.3669,0.4115,0.4206,0.5275,0.634,0.6962,0.7319,0.7503,0.7503,0.7672,0.7848,0.794,0.8285,0.8636,0.899,0.9772,1.0467,1.0809,1.2015,1.3045,1.4062,1.4489,1.5159,1.5906,1.6154,1.6566,1.7147,1.7139,1.7456,1.8023,1.8345,1.8895,1.9687,2.0157,2.0557,2.0944,2.1011,2.1088,2.1088,2.1175,2.1252,2.1328,2.1655,2.2402,2.3224,2.3457,2.3604,2.3677,2.3677,2.3677,2.3751,2.3751,2.3751,2.3751,2.3751,2.3751,2.374,2.3604,2.353,2.353,2.3224,2.3298,2.3372,2.3372,2.3604,2.3813,2.3948,2.4299,2.4659,2.4921,2.5358,2.5779,2.6252,2.6718,2.7378,2.8285,2.8925,2.9783,3.0803,3.1864,3.24,3.2376,3.2391,3.2351,3.2256,3.2547,3.2765,3.2964,3.3193,3.3245,3.3108,3.268,3.2422,3.2272,3.2064,3.1894,3.1724,3.1407,3.1058,3.0792,3.0478,3.0115,2.9822,2.956,2.9233,2.8853,0.0359,0.0359,0.0538,0.0987,0.0987,0.1166,0.1615,0.1705,0.1793,0.206,0.2509,0.2778,0.2778,0.3583,0.4654,0.5813,0.6438,0.6707,0.6707,0.6966,0.7234,0.7418,0.7676,0.7937,0.8456,0.9161,0.9859,1.0636,1.1843,1.2711,1.3392,1.3808,1.4398,1.5082,1.5756,1.6245,1.6648,1.6894,1.7139,1.731,1.7716,1.8184,1.8656,1.8984,1.9441,1.9737,1.9747,1.9825,1.9825,2.0079,2.0235,2.0469,2.0964,2.1205,2.1502,2.2176,2.2478,2.2628,2.2628,2.2777,2.2927,2.2927,2.2927,2.2927,2.2927,2.3001,2.3001,2.3001,2.3001,2.3001,2.3001,2.3001,2.3001,2.3001,2.3001,2.3001,2.3001,2.315,2.3372,2.3604,2.397,2.4322,2.4647,2.5334,2.6089,2.7043,2.7907,2.8634,2.917,3.0222,3.0837,3.0896,3.1248,3.1379,3.1219,3.1796,3.2135,3.2135,3.2287,3.2342,3.2287,3.1838,3.161,3.1625,3.1336,3.1087,3.0911,3.0524,3.0222,2.9931,2.9623,2.9324,2.8958,2.8546,2.8352,2.8157,0.009,0.009,0.009,0.0269,0.0269,0.0359,0.0718,0.0718,0.0807,0.0986,0.1345,0.1614,0.1704,0.2239,0.2864,0.3582,0.5095,0.608,0.626,0.6615,0.6884,0.6972,0.7143,0.7408,0.7768,0.8372,0.9501,1.1154,1.1768,1.246,1.3137,1.3476,1.3893,1.4566,1.4901,1.5318,1.5733,1.5982,1.6154,1.6409,1.6648,1.7041,1.744,1.7764,1.8006,1.8247,1.8567,1.8647,1.8727,1.9143,1.9311,1.946,1.9844,2.0089,2.0489,2.1645,2.1959,2.2025,2.2025,2.2176,2.2327,2.2327,2.2402,2.2553,2.2553,2.2628,2.2777,2.2777,2.2927,2.3001,2.3001,2.3001,2.3001,2.3001,2.3001,2.3001,2.3001,2.315,2.3372,2.3604,2.397,2.4261,2.455,2.4945,2.5487,2.6195,2.6799,2.7324,2.7868,2.8583,2.9345,3.0297,3.0358,3.0553,3.0747,3.1029,3.1233,3.1407,3.1595,3.1595,3.1306,3.094,3.0718,3.0613,3.0297,3.0054,2.9931,2.9574,2.9198,2.8853,2.8675,2.8417,2.8105,2.7815,2.755,2.7297,0.0,0.0,0.0,0.0,0.0,0.009,0.018,0.018,0.0269,0.0359,0.0628,0.0807,0.0897,0.1345,0.1792,0.2152,0.3848,0.5008,0.5455,0.5988,0.6435,0.6612,0.6877,0.7058,0.7323,0.8021,0.924,1.0982,1.1419,1.2026,1.2796,1.2966,1.3385,1.3977,1.4314,1.4643,1.4977,1.5325,1.5499,1.5673,1.5989,1.6221,1.6468,1.6706,1.687,1.7041,1.7196,1.7359,1.7448,1.7844,1.8103,1.8353,1.8727,1.9134,1.9539,2.0323,2.0944,2.1415,2.1415,2.1568,2.1883,2.1959,2.2025,2.2101,2.2101,2.2176,2.2327,2.2327,2.2478,2.2628,2.2628,2.2777,2.2852,2.2852,2.2927,2.3001,2.3001,2.3075,2.3224,2.3298,2.3593,2.3897,2.4043,2.4394,2.4886,2.5441,2.5988,2.6539,2.6947,2.7484,2.8274,2.9233,2.9435,2.9623,2.9808,2.9979,3.0208,3.0421,3.045,3.0404,3.0222,2.9993,2.9747,2.9623,2.931,2.9107,2.898,2.8624,2.8287,2.8012,2.7829,2.751,2.7242,2.7027,2.6756,2.6633,-0.009,0.0,0.0,0.0,0.0,0.0,0.0,0.0,0.0,0.0,0.018,0.0359,0.0359,0.0718,0.0987,0.1256,0.2597,0.3758,0.4472,0.5095,0.5719,0.6251,0.6612,0.6881,0.7051,0.7845,0.8982,1.0463,1.0982,1.1585,1.2277,1.2534,1.2875,1.3307,1.3724,1.4055,1.4314,1.4748,1.4922,1.4915,1.5318,1.5484,1.5484,1.5718,1.5801,1.5801,1.5801,1.5974,1.6139,1.637,1.6796,1.7221,1.7602,1.8086,1.8496,1.8754,1.9618,2.0547,2.0624,2.0954,2.1349,2.1568,2.1655,2.1655,2.1655,2.1645,2.1655,2.1655,2.1873,2.2025,2.2025,2.2327,2.2553,2.2628,2.2777,2.2852,2.2927,2.2927,2.3001,2.3001,2.3224,2.3372,2.3593,2.397,2.4406,2.4874,2.5441,2.5931,2.6208,2.6756,2.7364,2.7947,2.8417,2.8675,2.8675,2.898,2.9156,2.9254,2.9156,2.9107,2.9107,2.8944,2.8817,2.8597,2.8352,2.8222,2.8026,2.7709,2.743,2.7217,2.6892,2.6633,2.644,2.6151,2.6082,2.6025,-0.0359,-0.018,0.0,0.0,0.0,0.0,0.0,0.0,0.0,0.0,0.0,0.009,0.009,0.009,0.0269,0.0538,0.0986,0.1792,0.3315,0.4113,0.4912,0.5808,0.6254,0.6697,0.7051,0.8017,0.8894,0.9777,1.0641,1.1327,1.1849,1.2277,1.2619,1.279,1.3137,1.3392,1.3561,1.3822,1.3906,1.3906,1.423,1.4307,1.4391,1.4384,1.4391,1.4391,1.4559,1.4643,1.481,1.5394,1.5643,1.5809,1.6468,1.696,1.7359,1.7781,1.8345,1.8904,1.9381,1.9854,2.0255,2.0644,2.0799,2.0799,2.0799,2.0944,2.1021,2.1021,2.1339,2.1578,2.1578,2.1807,2.2035,2.2187,2.2252,2.2327,2.2703,2.2777,2.2777,2.3001,2.3298,2.3593,2.3593,2.397,2.4261,2.4562,2.4957,2.5229,2.5453,2.6013,2.6427,2.6496,2.7443,2.8039,2.8105,2.8352,2.8417,2.8222,2.8417,2.8352,2.8222,2.8039,2.7894,2.767,2.7364,2.7108,2.6918,2.6577,2.6302,2.6107,2.5886,2.5664,2.5523,2.5453,2.5453,2.5453,-0.0628,-0.0359,-0.018,0.0,0.0,0.0,0.0,0.0,0.0,0.0,0.0,0.0,0.0,0.0,0.009,0.018,0.0269,0.0808,0.1973,0.2955,0.4024,0.5095,0.5719,0.6432,0.7323,0.7848,0.8372,0.8986,0.9772,1.0467,1.1154,1.1499,1.1929,1.2534,1.2705,1.279,1.3045,1.3307,1.3398,1.3398,1.3646,1.3724,1.3724,1.3724,1.3724,1.373,1.3815,1.3893,1.4062,1.4398,1.465,1.4894,1.5228,1.5726,1.6214,1.655,1.7538,1.8692,1.8993,1.9231,1.9469,1.9854,1.9932,1.9932,1.9932,2.001,2.0079,2.0177,2.0411,2.0644,2.0809,2.1108,2.1415,2.1578,2.1731,2.1883,2.2176,2.2327,2.2478,2.2628,2.315,2.3446,2.3604,2.397,2.4273,2.4345,2.4694,2.4909,2.5052,2.5535,2.5886,2.5886,2.662,2.7095,2.7162,2.7217,2.7217,2.7162,2.7217,2.7217,2.7162,2.7095,2.696,2.6824,2.6633,2.6358,2.6094,2.5955,2.5664,2.5382,2.5312,2.5182,2.5052,2.5052,2.5052,2.5052,-0.1166,-0.0807,-0.0538,-0.0269,-0.018,-0.009,-0.009,0.0,0.0,0.0,0.0,0.0,0.0,0.0,0.0,0.0,0.0,0.0269,0.0897,0.1972,0.3133,0.4561,0.5453,0.6432,0.7415,0.7588,0.7937,0.8372,0.8903,0.951,1.0376,1.0722,1.1413,1.2277,1.2363,1.2534,1.2705,1.2881,1.3052,1.3052,1.3137,1.3222,1.3222,1.3222,1.3222,1.3222,1.3222,1.3307,1.3476,1.3561,1.3815,1.4146,1.423,1.4643,1.5144,1.5477,1.6796,1.8201,1.8523,1.8674,1.8754,1.8984,1.8984,1.8984,1.8984,1.8984,1.9073,1.924,1.9469,1.9696,2.002,2.0333,2.0644,2.0964,2.1118,2.1272,2.1568,2.1721,2.1959,2.2252,2.2777,2.3224,2.3446,2.3897,2.4127,2.4127,2.4574,2.479,2.4718,2.5194,2.5465,2.5465,2.6013,2.6289,2.6289,2.6289,2.6289,2.6289,2.6289,2.6289,2.6289,2.6289,2.6151,2.6013,2.6013,2.5746,2.5407,2.5336,2.5099,2.4802,2.4731,2.4683,2.4502,2.4574,2.4574,2.4574,-0.2154,-0.1525,-0.1076,-0.0987,-0.0628,-0.0359,-0.0359,-0.018,0.0,0.0,0.0,0.0,0.0,0.0,0.0,0.0,0.0,0.009,0.0448,0.1076,0.233,0.4208,0.5902,0.6881,0.7139,0.7415,0.7591,0.7852,0.8285,0.8986,0.9689,1.0289,1.1068,1.1757,1.2192,1.2534,1.2705,1.2705,1.2705,1.2705,1.279,1.279,1.279,1.279,1.279,1.279,1.279,1.279,1.279,1.3052,1.3143,1.3222,1.3652,1.3977,1.4307,1.497,1.5718,1.6468,1.7302,1.7627,1.7861,1.8031,1.8121,1.8121,1.8121,1.8121,1.8193,1.8434,1.8665,1.8904,1.9301,1.9548,1.9872,2.0264,2.0342,2.0489,2.0944,2.1118,2.1436,2.1807,2.2402,2.2852,2.3001,2.3604,2.3897,2.3897,2.449,2.4718,2.4502,2.4909,2.5123,2.5123,2.5688,2.598,2.598,2.598,2.598,2.598,2.598,2.598,2.598,2.598,2.5746,2.5382,2.5382,2.5182,2.4861,2.4634,2.4418,2.4261,2.4043,2.3897,2.3677,2.3897,2.397,2.397,-0.2868,-0.2331,-0.1882,-0.1614,-0.1256,-0.0897,-0.0628,-0.0359,-0.018,0.0,0.0,0.0,0.0,0.0,0.0,0.0,0.0,0.018,0.0538,0.0987,0.2239,0.4654,0.5813,0.6612,0.7051,0.7231,0.7319,0.7408,0.7672,0.8201,0.8894,0.951,1.0294,1.1327,1.1757,1.2186,1.2534,1.2619,1.2705,1.2705,1.2705,1.2619,1.2534,1.2534,1.2454,1.2289,1.2289,1.2369,1.2534,1.2619,1.2711,1.2875,1.3045,1.33,1.3555,1.4062,1.4643,1.5144,1.5567,1.6304,1.6968,1.7139,1.7221,1.7221,1.7221,1.7221,1.7302,1.7716,1.7942,1.8184,1.8674,1.9002,1.932,1.9627,1.9794,1.9951,2.0255,2.0498,2.0809,2.1175,2.1624,2.2155,2.2553,2.2927,2.3224,2.3519,2.3824,2.4043,2.4127,2.4406,2.4622,2.4694,2.4921,2.5194,2.5535,2.5535,2.5535,2.5535,2.5535,2.5465,2.5407,2.5407,2.5265,2.4981,2.4838,2.4622,2.42,2.4043,2.3751,2.3446,2.3372,2.3298,2.3224,2.315,2.315,2.315,-0.3764,-0.3314,-0.2777,-0.2422,-0.2062,-0.1614,-0.1076,-0.0718,-0.0448,-0.018,-0.009,0.0,0.0,0.0,0.0,0.0,0.0,0.018,0.0538,0.1166,0.2419,0.4654,0.5636,0.6349,0.6966,0.7051,0.7139,0.7139,0.7323,0.7676,0.8285,0.8815,0.9598,1.0636,1.1241,1.1757,1.2192,1.2363,1.2454,1.2454,1.2454,1.2363,1.2192,1.2192,1.202,1.1774,1.1774,1.194,1.2192,1.2192,1.2277,1.2454,1.2454,1.2711,1.3052,1.3398,1.3815,1.4146,1.4314,1.4985,1.5816,1.6147,1.6319,1.6319,1.6319,1.6319,1.6394,1.6812,1.7057,1.7375,1.7942,1.8353,1.8754,1.9152,1.9311,1.9478,1.9706,1.9951,2.0186,2.0557,2.0934,2.1395,2.1863,2.2241,2.2542,2.2841,2.3213,2.3519,2.3666,2.3824,2.397,2.4116,2.4273,2.4478,2.4886,2.5099,2.5182,2.5111,2.5182,2.5111,2.4909,2.4909,2.4694,2.4418,2.42,2.3897,2.3519,2.3298,2.3001,2.2703,2.2703,2.2628,2.2478,2.2402,2.2241,2.2166,-0.4661,-0.4297,-0.3849,-0.3676,-0.2957,-0.233,-0.1884,-0.1166,-0.0628,-0.0448,-0.018,0.0,0.0,0.0,0.0,0.0,0.0,0.009,0.0359,0.1525,0.2869,0.421,0.5458,0.6349,0.6795,0.6966,0.7139,0.7139,0.7139,0.7319,0.7852,0.8281,0.8982,0.9946,1.0636,1.1241,1.1671,1.1946,1.1957,1.1957,1.1957,1.186,1.1671,1.1671,1.1499,1.1322,1.1322,1.1499,1.1671,1.1671,1.1854,1.1957,1.2043,1.2289,1.279,1.3052,1.3222,1.3483,1.3652,1.3913,1.4334,1.5144,1.5394,1.5394,1.5394,1.5394,1.5477,1.565,1.5914,1.6327,1.7196,1.7529,1.7942,1.8834,1.9002,1.9073,1.9301,1.9469,1.9636,1.9863,2.0333,2.0634,2.0867,2.1461,2.1766,2.1756,2.2531,2.3075,2.3298,2.3298,2.3298,2.3298,2.3677,2.3897,2.3897,2.4683,2.4992,2.479,2.4981,2.4909,2.4502,2.4502,2.4127,2.3593,2.3372,2.3075,2.2703,2.2478,2.2252,2.2111,2.2111,2.1807,2.1502,2.1512,2.1339,2.1165,-0.5193,-0.4924,-0.4563,-0.4121,-0.376,-0.3135,-0.2242,-0.1615,-0.0987,-0.0448,-0.018,0.0,0.0,0.0,0.0,0.0,0.018,0.0448,0.0897,0.1884,0.2691,0.3314,0.4832,0.5905,0.652,0.6874,0.7139,0.7139,0.7139,0.7231,0.7591,0.7848,0.8464,0.9257,0.9946,1.0463,1.0982,1.1332,1.1505,1.1505,1.1332,1.116,1.0895,1.0549,1.0289,1.012,1.012,1.0381,1.0722,1.0895,1.1154,1.1505,1.1763,1.2106,1.2534,1.2625,1.279,1.2966,1.3392,1.3568,1.3822,1.4482,1.4817,1.4901,1.4901,1.4901,1.4985,1.5249,1.5492,1.5816,1.655,1.7115,1.7691,1.8434,1.8843,1.9073,1.9301,1.9381,1.9469,1.9636,1.9794,2.0029,2.0411,2.0644,2.0867,2.1165,2.1634,2.2025,2.2252,2.2252,2.2327,2.2478,2.2553,2.2703,2.2852,2.3959,2.4406,2.4345,2.4261,2.4032,2.3666,2.3519,2.3224,2.2777,2.2381,2.2069,2.1852,2.1482,2.1252,2.1031,2.1031,2.0954,2.0876,2.0731,2.0644,2.0489,-0.5552,-0.5371,-0.5191,-0.4835,-0.4476,-0.3941,-0.3047,-0.2242,-0.1525,-0.0897,-0.0449,-0.009,0.0,0.0,0.0,0.018,0.0448,0.0807,0.1076,0.1794,0.2423,0.269,0.403,0.5188,0.6074,0.6697,0.7054,0.7139,0.7139,0.7143,0.7323,0.7591,0.794,0.8468,0.9074,0.9593,1.012,1.0463,1.0636,1.0636,1.0467,1.0202,0.9937,0.9593,0.9423,0.9165,0.9165,0.9423,0.9767,0.985,1.0284,1.0809,1.1241,1.1671,1.2015,1.2198,1.2369,1.254,1.2881,1.3137,1.3392,1.3899,1.4237,1.4496,1.4496,1.4496,1.4496,1.4671,1.4824,1.5228,1.5891,1.6468,1.7123,1.8031,1.8514,1.8834,1.9152,1.9222,1.9381,1.9469,1.9478,1.9557,1.9863,1.9951,2.0264,2.0712,2.1031,2.1262,2.1415,2.1415,2.1492,2.1492,2.1558,2.1711,2.1787,2.2606,2.3139,2.3519,2.3446,2.3139,2.2681,2.2606,2.2231,2.1787,2.1471,2.1242,2.1011,2.0634,2.0411,2.0333,2.0333,2.0255,2.0186,2.0029,1.9942,1.9863,-0.5733,-0.5733,-0.5644,-0.546,-0.5015,-0.4567,-0.4028,-0.2957,-0.2063,-0.1525,-0.0807,-0.0359,-0.009,0.0,0.009,0.0359,0.0807,0.1076,0.1166,0.1525,0.1974,0.2424,0.3315,0.4383,0.5542,0.6346,0.6881,0.7051,0.7051,0.7139,0.7139,0.7323,0.7591,0.7764,0.8197,0.8723,0.9257,0.9432,0.9515,0.9515,0.9515,0.9248,0.8803,0.8803,0.8632,0.846,0.846,0.8632,0.8803,0.889,0.9331,0.9946,1.0641,1.1068,1.1327,1.1774,1.1866,1.2037,1.2277,1.2711,1.3137,1.3313,1.3743,1.4088,1.4088,1.4088,1.4088,1.4088,1.4243,1.4566,1.5228,1.5741,1.6409,1.7448,1.8031,1.8514,1.8922,1.9152,1.9301,1.9301,1.9301,1.9301,1.9301,1.9469,1.9872,2.0489,2.0489,2.0566,2.0789,2.0789,2.0712,2.0566,2.0712,2.0789,2.0789,2.1011,2.1471,2.2327,2.2478,2.2231,2.169,2.168,2.1308,2.0789,2.0566,2.0411,2.0186,1.9942,1.9863,1.9863,1.9863,1.9706,1.9557,1.9557,1.9478,1.9301,-0.5733,-0.5733,-0.5644,-0.546,-0.5102,-0.4743,-0.4028,-0.3224,-0.251,-0.1794,-0.1076,-0.0538,-0.0359,-0.009,0.009,0.0359,0.0807,0.1166,0.1345,0.1615,0.1884,0.1974,0.2868,0.3671,0.4293,0.5719,0.6612,0.6881,0.7054,0.7139,0.7139,0.7143,0.7323,0.7591,0.7852,0.8113,0.8464,0.8723,0.8811,0.8811,0.8548,0.846,0.8285,0.794,0.7764,0.7768,0.7768,0.7852,0.8113,0.8544,0.8986,0.9519,0.9777,1.0294,1.0809,1.0895,1.116,1.1505,1.1763,1.2277,1.2875,1.3307,1.3743,1.4088,1.4088,1.4088,1.4088,1.4088,1.4166,1.4328,1.4734,1.5235,1.5891,1.6952,1.7538,1.8103,1.8922,1.9073,1.9152,1.9301,1.9301,1.9301,1.9301,1.9301,1.9469,1.9794,1.9794,1.9872,2.0098,2.0098,2.0098,2.002,2.0098,2.0098,2.0098,2.0167,2.0624,2.1471,2.1328,2.1165,2.0867,2.0722,2.0411,2.0098,1.9872,1.9794,1.9724,1.9548,1.946,1.946,1.946,1.9381,1.939,1.939,1.9301,1.9301,-0.5733,-0.5733,-0.5644,-0.5552,-0.5371,-0.5099,-0.4654,-0.3939,-0.3135,-0.242,-0.1614,-0.0897,-0.0448,-0.018,0.018,0.0538,0.0897,0.1166,0.1346,0.1525,0.1705,0.1794,0.2512,0.3048,0.3583,0.4919,0.5902,0.6612,0.6962,0.7139,0.7139,0.7139,0.7143,0.7323,0.7408,0.7584,0.7852,0.8028,0.8113,0.8028,0.794,0.7764,0.7669,0.7408,0.7323,0.7323,0.7323,0.7411,0.7496,0.794,0.838,0.8815,0.917,0.9602,1.0033,1.012,1.0289,1.0549,1.1068,1.1757,1.2534,1.3137,1.3652,1.4088,1.4088,1.4088,1.4088,1.4088,1.4088,1.4166,1.4482,1.4817,1.5401,1.6394,1.7049,1.761,1.8434,1.8692,1.8922,1.9152,1.9152,1.9222,1.9301,1.9301,1.9381,1.9566,1.9566,1.9645,1.9715,1.9794,1.9706,1.9618,1.9618,1.9618,1.9618,1.9618,1.9854,2.0304,2.0401,2.0333,2.0108,2.0029,1.9872,1.9627,1.9469,1.9478,1.9469,1.9301,1.9301,1.9301,1.9301,1.9301,1.9301,1.9301,1.9301,1.9301,-0.5733,-0.5733,-0.5733,-0.5733,-0.5552,-0.5371,-0.5371,-0.4565,-0.376,-0.3136,-0.2152,-0.1256,-0.0628,-0.018,0.0269,0.0628,0.0897,0.1166,0.1345,0.1346,0.1525,0.1705,0.2154,0.2602,0.3048,0.4032,0.5102,0.6254,0.6697,0.6962,0.7054,0.7054,0.7139,0.7139,0.7139,0.7231,0.7415,0.7415,0.7415,0.7415,0.7415,0.7323,0.7139,0.7139,0.7139,0.7139,0.7139,0.7139,0.7143,0.7326,0.7676,0.8113,0.856,0.8911,0.917,0.934,0.9428,0.9602,1.0207,1.1068,1.2015,1.2705,1.3483,1.3997,1.3997,1.4088,1.4088,1.4088,1.4088,1.4166,1.4321,1.4482,1.4901,1.5831,1.6394,1.7041,1.7789,1.821,1.8612,1.8843,1.8922,1.9002,1.9152,1.9231,1.9311,1.9478,1.9557,1.9557,1.9557,1.9557,1.9469,1.9301,1.9301,1.9301,1.9301,1.9301,1.9301,1.9301,1.9627,1.9706,1.9557,1.9557,1.9478,1.9301,1.9301,1.9301,1.9301,1.9301,1.9301,1.9301,1.9301,1.9301,1.9301,1.9222,1.9231,1.9231,-0.5733,-0.5733,-0.5733,-0.5733,-0.5552,-0.5371,-0.5371,-0.4746,-0.403,-0.3587,-0.2511,-0.1525,-0.1076,-0.0179,0.0359,0.0448,0.0807,0.1076,0.1166,0.1345,0.1436,0.1436,0.1705,0.2154,0.2603,0.3314,0.4295,0.5549,0.6166,0.6612,0.6884,0.7054,0.7139,0.7139,0.7139,0.7139,0.7143,0.7143,0.7143,0.7143,0.7143,0.7143,0.7139,0.7139,0.7139,0.7139,0.7139,0.7139,0.7139,0.7143,0.7323,0.768,0.7852,0.8113,0.8376,0.8376,0.8644,0.9082,0.9345,1.0294,1.1327,1.2015,1.279,1.3568,1.3737,1.3913,1.4088,1.4088,1.4088,1.4088,1.4173,1.4321,1.465,1.5401,1.5733,1.6229,1.731,1.7563,1.7797,1.8442,1.8612,1.878,1.8772,1.8922,1.9082,1.9082,1.9231,1.9301,1.9301,1.9301,1.9301,1.9301,1.9301,1.9301,1.9301,1.9301,1.9301,1.9301,1.9381,1.9381,1.9301,1.9301,1.9301,1.9301,1.9301,1.9301,1.9301,1.9301,1.9301,1.9301,1.9301,1.9301,1.9301,1.9073,1.8922,1.8772,-0.5733,-0.5733,-0.5733,-0.5733,-0.5644,-0.5552,-0.5552,-0.5104,-0.4476,-0.3851,-0.2867,-0.1883,-0.1166,-0.0359,0.0269,0.0359,0.0628,0.0718,0.0897,0.0987,0.1076,0.1256,0.1436,0.1705,0.2064,0.269,0.3405,0.4208,0.5364,0.6166,0.6612,0.6789,0.6966,0.7139,0.7139,0.7139,0.7139,0.7139,0.7139,0.7139,0.7139,0.7139,0.7139,0.7139,0.7139,0.7139,0.7139,0.7139,0.7139,0.7139,0.7323,0.7507,0.7591,0.768,0.7764,0.7764,0.8028,0.838,0.8727,0.9767,1.0982,1.1671,1.2619,1.3476,1.3652,1.3913,1.4088,1.4088,1.4088,1.4088,1.4088,1.4166,1.4405,1.4901,1.5242,1.5658,1.6582,1.6738,1.7057,1.7789,1.8121,1.8371,1.8523,1.8843,1.9002,1.9002,1.9152,1.9301,1.9301,1.9301,1.9301,1.9301,1.9301,1.9301,1.9301,1.9301,1.9301,1.9301,1.9301,1.9301,1.9301,1.9301,1.9301,1.9301,1.9301,1.9301,1.9301,1.9301,1.9222,1.9152,1.9152,1.8993,1.8754,1.8683,1.8442,1.8112]},{"header":{"parameterUnit":"m.s-1","parameterCategory":1,"la1":30.6,"la2":28.766,"lo1":-90.7593,"lo2":-88.6598,"dy":0.0162,"dx":0.0183,"nx":116,"ny":114,"refTime":"2023-09-19T18:00:00:Z","depth":0,"parameterNumber":3,"parameterNumberName":"V-component_of_WINDS"},"data":[0.0,0.0,0.0,0.0,0.0,0.0,0.0,0.0,0.0,0.0,0.0,0.0,0.0,0.0,0.0,0.0,0.0,0.0,0.0,0.0,0.0,0.0,0.0,0.0,0.0,0.0,0.0,0.0,0.0,0.0,0.0,0.0,0.0,0.0,0.0,0.0,0.0,0.0,0.0,0.0,0.0,0.0,0.0,0.0,0.0,0.0,0.0,0.0,0.0,0.0,0.0,0.0,0.0,0.0,0.0,0.0,0.0,0.0,0.0,0.0,0.0,0.0,0.0,0.0,0.0,0.0,0.0,0.0,0.0,0.0,0.0,0.0,0.0,0.0,0.0,0.0,0.0,0.0,0.0,0.0,0.0,0.0,0.0,0.0,0.0,0.0,0.0,0.0,0.0,0.0,0.0,0.0,0.0,0.0,0.0,0.0,0.0,0.0,0.0,0.0,0.0,0.0,0.0,0.0,0.0,0.0,0.0,0.0,0.0,0.0,0.0,0.0,0.0,0.0,0.0,0.0,0.0,0.0,0.0,0.0,0.0,0.0,0.0,0.0,0.0,0.0,0.0,0.0,0.0,0.0,0.0,0.0,0.0,0.0,0.0,0.0,0.0,0.0,0.0,0.0,0.0,0.0,0.0,0.0,0.0,0.0,0.0,0.0,0.0,0.0,0.0,0.0,0.0,0.0,0.0,0.0,0.0,0.0,0.0,0.0,0.0,0.0,0.0,0.0,0.0,0.0,0.0,0.0,0.0,0.0,0.0,0.0,0.0,0.0,0.0,0.0,0.0,0.0,0.0,0.0,0.0,0.0,0.0,0.0,0.0,0.0,0.0,0.0,0.0,0.0,0.0,0.0,0.0,0.0,0.0,0.0,0.0,0.0,0.0,0.0,0.0,0.0,0.0,0.0,0.0,0.0,0.0,0.0,0.0,0.0,0.0,0.0,0.0,0.0,0.0,0.0,0.0,0.0,0.0,0.0,0.0,0.0,0.0,0.0,0.0,0.0,0.0,0.0,0.0,0.0,0.0,0.0,0.0,0.0,0.0,0.0,0.0,0.0,0.0,0.0,0.0,0.0,0.0,0.0,0.0,0.0,0.0,0.0,0.0,0.0,0.0,0.0,0.0,0.0,0.0,0.0,0.0,0.0,0.0,0.0,0.0,0.0,0.0,0.0,0.0,0.0,0.0,0.0,0.0,0.0,0.0,0.0,0.0,0.0,0.0,0.0,0.0,0.0,0.0,0.0,0.0,0.0,0.0,0.0,0.0,0.0,0.0,0.0,0.0,0.0,0.0,0.0,0.0,0.0,0.0,0.0,0.0,0.0,0.0,0.0,0.0,0.0,0.0,0.0,0.0,0.0,0.0,0.0,0.0,0.0,0.0,0.0,0.0,0.0,0.0,0.0,0.0,0.0,0.0,0.0,0.0,0.0,0.0,0.0,0.0,0.0,0.0,0.0,0.0,0.0,0.0,0.0,0.0,0.0,0.0,0.0,0.0,0.0,0.0,0.0,0.0,0.0,0.0,0.0,0.0,0.0,0.0,0.0,0.0,0.0,0.0,0.0,0.0,0.0,0.0,0.0,0.0,0.0,0.0,0.0,0.0,0.0,0.0,0.0,0.0,0.0,0.0,0.0,0.0,0.0,0.0,0.0,0.0,0.0,0.0,0.0,0.0,0.0,0.0,0.0,0.0,0.0,0.0,0.0,0.0,0.0,0.0,0.0,0.0,0.0,0.0,0.0,0.0,0.0,0.0,0.0,0.0,0.0,0.0,0.0,0.0,0.0,0.0,0.0,0.0,0.0,0.0,0.0,0.0,0.0,0.0,0.0,0.0,0.0,0.0,0.0,0.0,0.0,0.0,0.0,0.0,0.0,0.0,0.0,0.0,0.0,0.0,0.0,0.0,0.0,0.0,0.0,0.0,0.0,0.0,0.0,0.0,0.0,0.0,0.0,0.0,0.0,0.0,0.0,0.0,0.0,0.0,0.0,0.0,0.0,0.0,0.0,0.0,0.0,0.0,0.0,0.0,0.0,0.0,0.0,0.0,0.0,0.0,0.0,0.0,0.0,0.0,0.0,0.0,0.0,0.0,0.0,0.0,0.0,0.0,0.0,0.0,0.0,0.0,0.0,0.0,0.0,0.0,0.0,0.0,0.0,0.0,0.0,0.0,0.0,0.0,0.0,0.0,0.0,0.0,0.0,0.0,0.0,0.0,0.0,0.0,0.0,0.0,0.0,0.0,0.0,0.0,0.0,0.0,0.0,0.0,0.0,0.0,0.0,0.0,0.0,0.0,0.0,0.0,0.0,0.0,0.0,0.0,0.0,0.0,0.0,0.0,0.0,0.0,0.0,0.0,0.0,0.0,0.0,0.0,0.0,0.0,0.0,0.0,0.0,0.0,0.0,0.0,0.0,0.0,0.0,0.0,0.0,0.0,0.0,0.0,0.0,0.0,0.0,0.0,0.0,0.0,0.0,0.0,0.0,0.0,0.0,0.0,0.0,0.0,0.0,0.0,0.0,0.0,0.0,0.0,0.0,0.0,0.0,0.0,0.0,0.0,0.0,0.0,0.0,0.0,0.0,0.0,0.0,0.0,0.0,0.0,0.0,0.0,0.0,0.0,0.0,0.0,0.0,0.0,0.0,0.0,0.0,0.0,0.0,0.0,0.0,0.0,0.0,0.0,0.0,0.0,0.0,0.0,0.0,0.0,0.0,0.0,0.0,0.0,0.0,0.0,0.0,0.0,0.0,0.0,0.0,0.0,0.0,0.0,0.0,0.0,0.0,0.0,0.0,0.0,0.0,0.0,0.0,0.0,0.0,0.0,0.0,0.0,0.0,0.0,0.0,0.0,0.0,0.0,0.0,0.0,0.0,0.0,0.0,0.0,0.0,0.0,0.0,0.0,0.0,0.0,0.0,0.0,0.0,0.0,0.0,0.0,0.0,0.0,0.0,0.0,0.0,0.0,0.0,0.0,0.0,0.0,0.0,0.0,0.0,0.0,0.0,0.0,0.0,0.0,0.0,0.0,0.0,0.0,0.0,0.0,0.0,0.0,0.0,0.0,0.0,0.0,0.0,0.0,0.0,0.0,0.0,0.0,0.0,0.0,0.0,0.0,0.0,0.0,0.0,0.0,0.0,0.0,0.0,0.0,0.0,0.0,0.0,0.0,0.0,0.0,0.0,0.0,0.0,0.0,0.0,0.0,0.0,0.0,0.0,0.0,0.0,0.0,0.0,0.0,0.0,0.0,0.0,0.0,0.0,0.0,0.0,0.0,0.0,0.0,0.0,0.0,0.0,0.0,0.0,0.0,0.0,0.0,0.0,0.0,0.0,0.0,0.0,0.0,0.0,0.0,0.0,0.0,0.0,0.0,0.0,0.0,0.0,0.0,0.0,0.0,0.0,0.0,0.0,0.0,0.0,0.0,0.0,0.0,0.0,0.0,0.0,0.0,0.0,0.0,0.0,0.0,0.0,0.0,0.0,0.0,0.0,0.0,0.0,0.0,0.0,0.0,0.0,0.0,0.0,0.0,0.0,0.0,0.0,0.0,0.0,0.0,0.0,0.0,0.0,0.0,0.0,0.0,0.0,0.0,0.0,0.0,0.0,0.0,0.0,0.0,0.0,0.0,0.0,0.0,0.0,0.0,0.0,0.0,0.0,0.0,0.0,0.0,0.0,0.0,0.0,0.0,0.0,0.0,0.0,0.0,0.0,0.0,0.0,0.0,0.0,0.0,0.0,0.0,0.0,0.0,0.0,0.0,0.0,0.0,0.0,0.0,0.0,0.0,0.0,0.0,0.0,0.0,0.0,0.0,0.0,0.0,0.0,0.0,0.0,0.0,0.0,0.0,0.0,0.0,0.0,0.0,0.0,0.0,0.0,0.0,0.0,0.0,0.0,0.0,0.0,0.0,0.0,0.0,0.0,0.0,0.0,0.0,0.0,0.0,0.0,0.0,0.0,0.0,0.0,0.0,0.0,0.0,0.0,0.0,0.0,0.0,0.0,0.0,0.0,0.0,0.0,0.0,0.0,0.0,0.0,0.0,0.0,0.0,0.0,0.0,0.0,0.0,0.0,0.0,0.0,0.0,0.0,0.0,0.0,0.0,0.0,0.0,0.0,0.0,0.0,0.0,0.0,0.0,0.0,0.0,0.0,0.0,0.0,0.0,0.0,0.0,0.0,0.0,0.0,0.0,0.0,0.0,0.0,0.0,0.0,0.0,0.0,0.0,0.0,0.0,0.0,0.0,0.0,0.0,0.0,0.0,0.0,0.0,0.0,0.0,0.0,0.0,0.0,0.0,0.0,0.0,0.0,0.0,0.0,0.0,0.0,0.0,0.0,0.0,0.0,0.0,0.0,0.0,0.0,0.0,0.0,0.0,0.0,0.0,0.0,0.0,0.0,0.0,0.0,0.0,0.0,0.0,0.0,0.0,0.0,0.0,0.0,0.0,0.0,0.0,0.0,0.0,0.0,0.0,0.0,0.0,0.0,0.0,0.0,0.0,0.0,0.0,0.0,0.0,0.0,0.0,0.0,0.0,0.0,0.0,0.0,0.0,0.0,0.0,0.0,0.0,0.0,0.0,0.0,0.0,0.0,0.0,0.0,0.0,0.0,0.0,0.0,0.0,0.0,0.0,0.0,0.0,0.0,0.0,0.0,0.0,0.0,0.0,0.0,0.0,0.0,0.0,0.0,0.0,0.0,0.0,0.0,0.0,0.0,0.0,0.0,0.0,0.0,0.0,0.0,0.0,0.0,0.0,0.0,0.0,0.0,0.0,0.0,0.0,0.0,0.0,0.0,0.0,0.0,0.0,0.0,0.0,0.0,0.0,0.0,0.0,0.0,0.0,0.0,0.0,0.0,0.0,0.0,0.0,0.0,0.0,0.0,0.0,0.0,0.0,0.0,0.0,0.0,0.0,0.0,0.0,0.0,0.0,0.0,0.0,0.0,0.0,0.0,0.0,0.0,0.0,0.0,0.0,0.0,0.0,0.0,0.0,0.0,0.0,0.0,0.0,0.0,0.0,0.0,0.0,0.0,0.0,0.0,0.0,0.0,0.0,0.0,0.0,0.0,0.0,0.0,0.0,0.0,0.0,0.0,0.0,0.0,0.0,0.0,0.0,0.0,0.0,0.0,0.0,0.0,0.0,0.0,0.0,0.0,0.0,0.0,0.0,0.0,0.0,0.0,0.0,0.0,0.0,0.0,0.0,0.0,0.0,0.0,0.0,0.0,0.0,0.0,0.0,0.0,0.0,0.0,0.0,0.0,0.0,0.0,0.0,0.0,0.0,0.0,0.0,0.0,0.0,0.0,0.0,0.0,0.0,0.0,0.0,0.0,0.0,0.0,0.0,0.0,0.0,0.0,0.0,0.0,0.0,0.0,0.0,0.0,0.0,0.0,0.0,0.0,0.0,0.0,0.0,0.0,0.0,0.0,0.0,0.0,0.0,0.0,0.0,0.0,0.0,0.0,0.0,0.0,0.0,0.0,0.0,0.0,0.0,0.0,0.0,0.0,0.0,0.0,0.0,0.0,0.0,0.0,0.0,0.0,0.0,0.0,0.0,0.0,0.0,0.0,0.0,0.0,0.0,0.0,0.0,0.0,0.0,0.0,0.0,0.0,0.0,0.0,0.0,0.0,0.0,0.0,0.0,0.0,0.0,0.0,0.0,0.0,0.0,0.0,0.0,0.0,0.0,0.0,0.0,0.0,0.0,0.0,0.0,0.0,0.0,0.0,0.0,0.0,0.0,0.0,0.0,0.0,0.0,0.0,0.0,0.0,0.0,0.0,0.0,0.0,0.0,0.0,0.0,0.0,0.0,0.0,0.0,0.0,0.0,0.0,0.0,0.0,0.0,0.0,0.0,0.0,0.0,0.0,0.0,0.0,0.0,0.0,0.0,0.0,0.0,0.0,0.0,0.0,0.0,0.0,0.0,0.0,0.0,0.0,0.0,0.0,0.0,0.0,0.0,0.0,0.0,0.0,0.0,0.0,0.0,0.0,0.0,0.0,0.0,0.0,0.0,0.0,0.0,0.0,0.0,0.0,0.0,0.0,0.0,0.0,0.0,0.0,0.0,0.0,0.0,0.0,0.0,0.0,0.0,0.0,-0.0066,0.0792,0.0,0.0,0.0,0.0,0.0,0.0,0.0,0.0,0.0,0.0,0.0,0.0,0.0,0.0,0.0,0.0,0.0,0.0,0.0,0.0,0.0,0.0,0.0,0.0,0.0,0.0,0.0,0.0,0.0,0.0,0.0,0.0,0.0,0.0,0.0,0.0,0.0,0.0,0.2017,0.224,0.2015,0.2683,0.3627,0.4736,0.0,0.0,0.0,0.0,0.0,0.0,0.0,0.0,0.0,0.0,0.0,0.0,0.0,0.0,0.0,0.0,0.0,0.0,0.0,0.0,0.0,0.0,0.0,0.0,0.0,0.0,0.0,0.0,0.0,0.0,0.0,0.0,0.0,0.0,0.0,0.0,0.0,0.0,0.0,0.0,0.0,0.0,0.0,0.0,0.0,0.0,0.0,0.0,0.0,0.0,0.0,0.0,0.0,0.0,0.0,0.0,0.0,0.0,0.0,0.0,0.0,0.0,0.0,0.0,0.0,0.0,0.0,0.0,0.0,0.0,-0.102,-0.0134,0.0,0.0,0.0,0.0,0.0,0.0,0.0,0.0,0.0,0.0,0.0,0.0,0.0,0.0,0.0,0.0,0.0,0.0,0.0,0.0,0.0,0.0,0.0,0.0,0.0,0.0,0.0,0.0,0.0,0.0,0.0,0.0,0.0,0.0,0.0,0.0,0.0,0.0,0.213,0.2128,0.1623,0.2015,0.285,0.4073,0.4298,0.0,0.0,0.0,0.0,0.0,0.0,0.0,0.0,0.0,0.0,0.0,0.0,0.0,0.0,0.0,0.0,0.0,0.0,0.0,0.0,0.0,0.0,0.0,0.0,0.0,0.0,0.0,0.0,0.0,0.0,0.0,0.0,0.0,0.0,0.0,0.0,0.0,0.0,0.0,0.0,0.0,0.0,0.0,0.0,0.0,0.0,0.0,0.0,0.0,0.0,0.0,0.0,0.0,0.0,0.0,0.0,0.0,0.0,0.0,0.0,0.0,0.0,0.0,-0.195,-0.2042,-0.2189,-0.2189,-0.2189,-0.2184,-0.1531,-0.0887,-0.0205,0.0545,0.0,0.0,0.0,0.0,0.0,0.0,0.0,0.0,0.0,0.0,0.0,0.0,0.0,0.0,0.0,0.0,0.0,0.0,0.0,0.0,0.0,0.0,-0.0056,-0.0112,-0.0168,-0.0168,0.0,0.0,0.0,0.0,0.0,0.0,0.0,0.1287,0.1624,0.1797,0.1346,0.1122,0.1009,0.1231,0.1733,0.2348,0.3019,0.3574,0.4018,0.0,0.0,0.0,0.0,0.0,0.0,0.0,0.0,0.0,0.0,0.0,0.0,0.0,0.0,0.0,0.0,0.0,0.0,0.0,0.0,0.0,0.0,0.0,0.0,0.0,0.0,0.0,0.0,0.0,0.0,0.0,0.0,0.0,0.0,0.0,0.0,0.0,0.0,0.0,0.0,0.0,0.0454,0.1267,0.0,0.0,0.0,0.0,0.0,0.0,0.0,0.0,0.0,0.0,0.0,0.0,0.0,0.0144,-0.0433,-0.0941,-0.1233,-0.1451,-0.1456,-0.1604,-0.1751,-0.1751,-0.1751,-0.175,-0.1882,0.0,-0.1227,-0.0289,0.0,0.0,0.0,0.0,0.0,0.0,0.0,0.0,0.0,0.0,0.0,0.0,0.0,0.0,0.0,0.0,0.0,0.0,0.0,0.0,0.0,-0.0224,-0.0224,-0.0224,-0.0112,0.0224,0.0673,0.0,0.0,0.0,0.0,0.0,0.2074,0.1903,0.1736,0.1515,0.1122,0.0785,0.0617,0.0914,0.1268,0.1558,0.1937,0.2457,0.3046,0.3157,0.0,0.0,0.0,0.0,0.0,0.0,0.0,0.0,0.0,0.0,0.0,0.0,0.0,0.0,0.0,0.0,0.0,0.0,0.0,0.0,0.0,0.0,0.0,0.0,0.0,0.0,0.0,0.0,0.0,0.0,0.0,0.0,0.0,0.0,0.0,0.0,0.0,0.0,0.0,-0.0066,-0.0266,0.0738,0.1022,0.1377,0.0,0.0,0.0,0.0,0.0,0.0,0.0,0.0,0.0,0.051,-0.0146,-0.0656,-0.0948,-0.1257,-0.1416,-0.1491,-0.1588,-0.1751,-0.1827,-0.1902,-0.1976,-0.1976,-0.2205,-0.2205,-0.1972,-0.1106,-0.0218,0.0654,0.0,0.0,0.0,0.0,0.3559,0.3346,0.0,0.0,0.0,0.0,0.0,0.0,0.0,0.0,0.0,0.0,0.0,0.0,-0.0224,-0.0505,-0.0617,-0.0617,-0.0336,0.0168,0.101,0.2303,0.0,0.0,0.0,0.2802,0.2916,0.2298,0.1681,0.1122,0.1189,0.0966,0.0512,0.094,0.1194,0.1255,0.1233,0.1596,0.2203,0.2193,0.2705,0.3564,0.0,0.0,0.0,0.0,0.0,0.0,0.0,0.0,0.0,0.0,0.0,0.0,0.0,0.0,0.0,0.0,0.0,0.0,0.0,0.0,0.0,0.0,0.0,0.0,0.0,0.0,0.0,0.0,0.0,0.0,0.0,0.0,0.0,0.0,0.0,0.0,0.0,-0.0471,-0.0608,0.0136,0.0415,0.0843,0.0,0.0,0.0,0.0,0.0,0.0,0.1189,0.0818,0.0372,-0.0074,-0.0818,-0.119,-0.119,-0.1364,-0.1453,-0.1454,-0.1636,-0.1729,-0.1729,-0.1962,-0.2047,-0.206,-0.2375,-0.2463,-0.2467,-0.1821,-0.1039,-0.0222,0.0296,0.0815,0.1332,0.2221,0.2295,0.2078,0.0,0.0,0.0,0.0,0.0,0.0,0.0,0.0,0.0,0.0,0.0,0.1224,-0.0168,-0.0898,-0.1234,-0.1234,-0.0842,-0.028,0.0336,0.1008,0.1677,0.224,0.2685,0.2852,0.2691,0.2132,0.1459,0.0729,0.1681,0.1647,0.0764,0.1398,0.1542,0.1296,0.1082,0.1205,0.1479,0.1478,0.1907,0.2766,0.3867,0.0,0.0,0.0,0.0,0.0,0.0,0.0,0.0,0.0,0.0,0.0,0.0,0.0,0.0,0.0,0.0,0.0,0.0,0.0,0.0,0.0,0.0,0.0,0.0,0.0,0.0,0.0,0.0,0.0,0.0,0.0,0.0,0.0,0.0,0.0,0.0,0.0,0.0,-0.0558,-0.021,0.0,0.0,0.0,0.0,0.1207,0.1134,0.1222,0.1251,0.1253,0.047,-0.1175,-0.1253,-0.1331,-0.1331,-0.1333,-0.1333,-0.1333,-0.1335,-0.1335,-0.1335,-0.1572,-0.1671,-0.1707,-0.211,-0.2382,-0.2422,-0.2391,-0.2109,-0.1484,-0.0937,-0.0468,-0.0156,0.0468,0.078,0.0937,0.0,0.0,0.0,0.0,0.0,0.0,0.0,0.0,0.0,0.5955,0.4204,0.2502,0.1006,-0.028,-0.1122,-0.129,-0.0617,-0.0056,0.028,0.1512,0.2408,0.2965,0.3188,0.3079,0.2577,0.2117,0.1563,0.0869,0.1496,0.1642,0.1399,0.1629,0.1651,0.1462,0.1309,0.1451,0.1699,0.1828,0.2216,0.2736,0.3709,0.4552,0.0,0.0,0.0,0.0,0.0,0.0,0.0,0.0,0.0,0.0,0.0,0.0,0.0,0.0,0.0,0.0,0.0,0.0,0.0,0.0,0.0,0.0,0.0,0.0,0.0,0.0,0.0,0.0,0.0,0.0,0.0,0.0,0.0,0.0,0.0,0.0,0.0,-0.0933,-0.0729,0.0,0.0224,0.0682,0.1075,0.124,0.0698,0.0389,0.0471,0.0478,0.0,-0.1045,-0.1224,-0.1316,-0.1316,-0.1316,-0.1316,-0.1316,-0.1316,-0.1397,-0.156,-0.1807,-0.198,-0.2161,-0.241,-0.2588,-0.2604,-0.2646,-0.2463,-0.2134,-0.1887,-0.1625,-0.1363,-0.1203,-0.0795,-0.0235,0.0,0.0,0.0,0.0,0.0,0.0,0.0,0.0,0.0,0.6284,0.4703,0.3169,0.1733,0.0336,-0.0561,-0.0729,-0.0112,0.0392,0.0728,0.1902,0.291,0.3466,0.3524,0.3249,0.2577,0.2198,0.1823,0.1295,0.1782,0.1944,0.1819,0.1937,0.1962,0.1833,0.1733,0.1882,0.2218,0.2487,0.2688,0.2887,0.3756,0.4558,0.5425,0.0,0.0,0.0,0.0,0.0,0.0,0.0,0.0,0.0,0.0,0.0,0.0,0.0,0.0,0.0,0.0,0.0,0.0,0.0,0.0,0.0,0.0,0.0,0.0,0.0,0.0,0.0,0.0,0.0,0.0,0.0,0.0,0.0,0.0,-0.0721,-0.1097,-0.1328,-0.12,-0.0988,-0.046,0.0078,0.0631,0.1033,0.0716,0.0319,0.0,0.0,-0.0247,-0.0824,-0.117,-0.1348,-0.1263,-0.1263,-0.1263,-0.1263,-0.1263,-0.1431,-0.1681,-0.1934,-0.2195,-0.2467,-0.2637,-0.2734,-0.2753,-0.2753,-0.2668,-0.2577,-0.2538,-0.2417,-0.222,-0.2219,-0.1873,-0.1367,0.0,0.0,0.0,0.0,0.0,0.0,0.0,0.9033,0.7859,0.6553,0.4689,0.3106,0.1956,0.0896,0.0336,0.0505,0.0671,0.1062,0.1621,0.2233,0.2845,0.3569,0.3466,0.3193,0.2695,0.2434,0.218,0.1946,0.2573,0.2648,0.2131,0.2326,0.2357,0.2221,0.2351,0.2551,0.2753,0.3286,0.3355,0.3157,0.3954,0.4622,0.5219,0.0,0.0,0.0,0.0,0.0,0.0,0.0,0.0,0.0,0.0,0.0,0.0,0.0,0.0,0.0,0.0,0.0,0.0,0.0,0.0,0.0,0.0,0.0,0.0,0.0,0.0,0.0,0.0,0.0,0.0,0.0,0.0,0.0,-0.0512,-0.1022,-0.1476,-0.174,-0.1669,-0.1532,-0.1334,-0.055,0.0159,0.0651,0.106,0.0905,0.0084,-0.0,-0.0253,-0.0675,-0.1181,-0.1351,-0.1267,-0.1351,-0.1351,-0.1351,-0.1351,-0.1434,-0.1768,-0.1938,-0.2217,-0.2524,-0.2699,-0.282,-0.2875,-0.2875,-0.2875,-0.2862,-0.2744,-0.2696,-0.2695,-0.2525,-0.2524,-0.2439,0.0,0.0,0.0,0.0,0.0,0.0,0.0,0.8344,0.7119,0.6049,0.4659,0.3403,0.235,0.2298,0.2411,0.2693,0.2745,0.3019,0.3466,0.3463,0.3516,0.3738,0.3635,0.3286,0.2789,0.2638,0.2525,0.2392,0.2808,0.2792,0.2525,0.2746,0.2824,0.2757,0.2889,0.3157,0.3556,0.409,0.4356,0.4556,0.4625,0.4957,0.555,0.0,0.0,0.0,0.0,0.0,0.0,0.0,0.0,0.0,0.0,0.0,0.0,0.0,0.0,0.0,0.0,0.0,0.0,0.0,0.0,0.0,0.0,0.0,0.0,0.0,0.0,0.0,0.0,0.0,0.0,0.0,-0.0077,-0.0694,-0.1053,-0.1598,-0.2004,-0.2096,-0.202,-0.1883,-0.1609,-0.1209,-0.0732,-0.025,0.0167,0.0251,-0.0084,-0.0342,-0.069,-0.1208,-0.1313,-0.1411,-0.1411,-0.1588,-0.1676,-0.1676,-0.1853,-0.2029,-0.2293,-0.2555,-0.2739,-0.3022,-0.3022,-0.3121,-0.3139,-0.2963,-0.2875,-0.2871,-0.2837,-0.2797,-0.2758,-0.2672,-0.273,-0.2699,0.0,0.0,0.0,0.0,0.0,0.0,0.0,0.7886,0.6892,0.623,0.4838,0.3463,0.2408,0.2521,0.2805,0.3086,0.3304,0.358,0.4024,0.3965,0.391,0.3796,0.3635,0.3298,0.288,0.2851,0.2878,0.2966,0.3181,0.3291,0.3155,0.3357,0.3426,0.3426,0.3671,0.3958,0.4368,0.5033,0.547,0.5812,0.5949,0.6004,0.6145,0.6802,0.7265,0.7591,0.7917,0.7922,0.7792,0.7731,0.0,0.0,0.0,0.0,0.0,0.0,0.0,0.0,0.0,0.0,0.0,0.0,0.0,0.0,0.0,0.0,0.0,0.0,0.0,0.0,0.0,0.0,0.0,0.0,-0.0545,-0.1333,-0.1562,-0.2053,-0.2389,-0.2389,-0.241,-0.2275,-0.2061,-0.1816,-0.1499,-0.0937,-0.0938,-0.0771,-0.0259,-0.07,-0.1146,-0.1587,-0.1606,-0.1615,-0.1705,-0.1885,-0.1974,-0.2064,-0.2243,-0.2513,-0.2962,-0.3138,-0.3405,-0.3673,-0.3583,-0.3494,-0.3494,-0.3318,-0.3141,-0.3051,0.0,0.0,0.0,0.0,-0.2798,-0.2774,0.0,0.0,0.0,0.0,0.0,0.0,0.0,0.7548,0.6813,0.6607,0.4948,0.3352,0.2071,0.2015,0.2183,0.2521,0.291,0.3352,0.3796,0.4024,0.4024,0.3741,0.3535,0.3256,0.3008,0.2984,0.3141,0.3432,0.3713,0.3825,0.3892,0.4038,0.4113,0.4185,0.4508,0.4905,0.5332,0.6022,0.6583,0.7015,0.7509,0.7362,0.6902,0.7363,0.7676,0.7792,0.7987,0.8067,0.8022,0.7831,0.0,0.0,0.0,0.0,0.0,0.0,0.0,0.0,0.0,0.0,0.0,0.0,0.0,0.0,0.0,0.0,0.0,0.0,0.0,0.0,0.0,0.0,0.0,0.0,-0.0947,-0.1909,-0.2033,-0.2371,-0.262,-0.2613,-0.2659,-0.2611,-0.2448,-0.2364,-0.2044,-0.1567,-0.1919,-0.1758,-0.0717,-0.1166,0.0,0.0,0.0,-0.2064,-0.2333,-0.2333,-0.2423,-0.2693,-0.2693,-0.305,-0.3765,-0.3765,-0.4032,-0.4389,-0.4206,-0.4028,-0.4028,-0.3764,-0.3585,-0.3227,-0.2962,-0.2875,-0.2875,-0.2875,-0.2875,-0.2873,0.0,0.0,0.0,0.0,0.0,0.0,0.0,0.683,0.5952,0.5475,0.412,0.2633,0.1289,0.1399,0.1956,0.2738,0.3239,0.3627,0.3965,0.4024,0.3858,0.3469,0.3387,0.3191,0.2986,0.308,0.3238,0.3469,0.3818,0.4025,0.4223,0.4659,0.4986,0.5133,0.5483,0.5973,0.6466,0.6928,0.7442,0.7943,0.8367,0.8146,0.7648,0.7976,0.8134,0.8112,0.8312,0.8438,0.8462,0.8462,0.8518,0.8528,0.8458,0.8592,0.0,0.0,0.0,0.0,0.0,0.0,0.0,0.0,0.0,0.0,0.0,0.0,0.0,0.0,0.0,0.0,0.0,0.0,0.0,0.0564,-0.1051,-0.2038,-0.1998,-0.2461,-0.273,-0.268,-0.2685,-0.2627,-0.2415,-0.2419,-0.2267,-0.2048,-0.214,-0.2145,-0.1884,-0.1974,-0.2154,-0.2334,-0.2424,-0.2602,-0.2959,-0.3229,-0.3406,-0.3671,-0.3851,0.0,-0.4474,-0.4654,-0.4921,-0.5193,-0.5102,-0.5013,-0.4741,-0.4563,-0.4206,-0.3671,-0.3141,-0.2875,-0.2875,-0.2875,-0.2875,-0.2875,0.0,0.0,0.0,0.0,0.0,0.0,0.0,0.6661,0.5834,0.5048,0.3439,0.2183,0.1681,0.1625,0.1903,0.2517,0.2961,0.3294,0.335,0.335,0.3241,0.2968,0.2832,0.2805,0.2833,0.2918,0.3136,0.3498,0.383,0.4161,0.4492,0.4962,0.5372,0.5662,0.6104,0.6576,0.7236,0.7763,0.8318,0.891,0.9275,0.9283,0.899,0.88,0.8748,0.8716,0.8789,0.8869,0.8901,0.8832,0.8842,0.8931,0.8725,0.8865,0.9092,0.0,0.0,0.0,0.0,0.0,0.0,0.0,0.0,0.0,0.0,0.0,0.0,0.0,0.0,0.299,0.247,0.0,0.1692,0.0165,-0.1241,-0.2168,-0.2217,-0.2591,-0.2773,-0.2741,-0.2764,-0.2794,-0.2648,-0.2651,-0.2662,-0.2689,-0.269,-0.2781,-0.2871,-0.2871,-0.2959,-0.3227,-0.3317,-0.3585,-0.3939,-0.4208,-0.4476,-0.4828,-0.4919,-0.5275,-0.5714,-0.5894,-0.5985,-0.6257,-0.6166,-0.5985,-0.5894,-0.5361,-0.5006,-0.4739,-0.403,-0.3496,-0.3051,-0.3051,-0.2962,-0.2875,0.0,0.0,0.0,0.0,0.0,0.0,0.0,0.0,0.6021,0.5153,0.3361,0.223,0.2462,0.213,0.1908,0.2128,0.2462,0.2569,0.2289,0.2345,0.2291,0.2183,0.2151,0.2284,0.2528,0.2743,0.3021,0.3429,0.3761,0.4159,0.4495,0.5058,0.5554,0.5985,0.6452,0.7049,0.7803,0.8406,0.9084,0.962,1.0067,1.0176,1.0126,0.9702,0.9428,0.9281,0.9281,0.9238,0.9276,0.914,0.9243,0.9275,0.8995,0.9138,0.9378,0.9426,0.971,0.0,0.0,0.0,0.0,0.0,0.0,0.0,0.0,0.4224,0.3756,0.337,0.2833,0.2304,0.1944,0.1715,0.1155,-0.0168,-0.1438,-0.2303,-0.2442,-0.2712,-0.2801,-0.2801,-0.2843,-0.2875,-0.2875,-0.2963,-0.3051,-0.3227,-0.3406,-0.3494,-0.3764,-0.3853,-0.4032,-0.4204,-0.4474,-0.4741,-0.5092,-0.5272,-0.5542,-0.5985,-0.5985,-0.634,-0.6956,-0.6956,-0.7048,-0.7231,-0.7048,-0.7044,-0.7044,-0.6337,-0.6071,-0.5985,-0.5361,-0.4561,-0.376,-0.3405,-0.3227,-0.3051,0.0,0.0,0.0,0.0,0.0,0.0,0.0,0.0,0.0,0.5932,0.4428,0.3284,0.2961,0.2406,0.2017,0.1852,0.1905,0.1621,0.0894,0.1117,0.1174,0.0894,0.1484,0.1781,0.191,0.2734,0.3149,0.3025,0.3558,0.3892,0.41,0.4947,0.5633,0.6215,0.6689,0.7375,0.8295,0.8618,0.9084,0.962,1.0067,1.0201,1.0248,1.0513,1.0159,0.9432,0.9432,0.9504,0.954,0.954,0.9674,0.9841,0.9766,0.9766,0.9846,1.0018,1.0104,1.011,0.969,0.8071,0.63,0.5226,0.4453,0.391,0.0,0.3287,0.2976,0.2981,0.2553,0.2107,0.1952,0.1242,0.0422,-0.0345,-0.1558,-0.2444,-0.2497,-0.2684,-0.2864,-0.2864,-0.2869,-0.2875,-0.2875,-0.3051,-0.3317,-0.3497,-0.3942,-0.4297,-0.4563,-0.4741,-0.5008,-0.5453,-0.5542,-0.5894,-0.6599,-0.6599,-0.6691,-0.6962,-0.6962,-0.7136,-0.7401,-0.7401,-0.758,-0.7764,-0.776,-0.7848,-0.8021,-0.7661,-0.7482,-0.7312,-0.6959,-0.6425,-0.5625,-0.4293,-0.3849,-0.376,0.0,0.0,0.0,0.0,0.0,0.0,0.0,0.0,0.0,0.0,0.5161,0.4055,0.3234,0.235,0.1514,0.0954,0.084,0.056,0.0056,-0.0056,-0.0056,-0.0112,0.0238,0.0738,0.1293,0.1958,0.2421,0.2624,0.309,0.3424,0.3563,0.4261,0.4867,0.5519,0.6165,0.6999,0.7944,0.8475,0.9084,0.9609,0.9988,1.0228,1.0375,1.0736,1.0605,1.023,1.0376,1.0346,0.0,1.029,1.0358,1.0363,1.0293,1.0218,1.0218,1.0218,1.0293,1.0137,0.8917,0.7076,0.5306,0.4618,0.3759,0.2978,0.2589,0.2433,0.2285,0.2319,0.1535,0.0737,0.0505,0.017,-0.0345,-0.1146,-0.2037,-0.2666,-0.269,-0.2873,-0.2963,-0.3051,-0.305,-0.305,-0.305,-0.3318,-0.3676,-0.4212,-0.4654,-0.5184,-0.5628,-0.5894,-0.616,-0.6517,-0.6694,-0.6868,-0.7221,-0.7404,-0.758,-0.7757,-0.7757,-0.7848,-0.8116,-0.8116,-0.8292,-0.8472,-0.8644,-0.8732,-0.8819,-0.8552,-0.8376,-0.8288,-0.7937,-0.7577,-0.7132,-0.5539,-0.4739,-0.4383,0.0,0.0,0.0,0.0,0.0,0.0,0.0,0.0,0.0,0.0,0.0,0.4385,0.2841,0.179,0.0898,0.0168,-0.0056,-0.0393,-0.0842,-0.1064,-0.1118,-0.1118,-0.1012,-0.0554,0.0308,0.0849,0.1412,0.1951,0.2555,0.2824,0.2825,0.3455,0.4024,0.4599,0.5304,0.6091,0.7028,0.7776,0.8454,0.904,0.9462,0.9824,1.005,1.0623,1.0863,1.0827,1.1163,1.1111,1.0962,1.1037,1.1037,1.0962,1.0738,1.0663,1.0519,1.0368,1.0062,0.9448,0.7681,0.5999,0.4618,0.3843,0.2824,0.1887,0.1585,0.1508,0.1598,0.1718,0.0743,-0.0335,-0.1036,-0.1048,-0.1145,-0.197,-0.2512,-0.2962,-0.2962,-0.3053,-0.3141,-0.3405,-0.3494,-0.3585,-0.3673,-0.3853,-0.4212,-0.4926,-0.5455,-0.6074,-0.6694,-0.6959,-0.7224,-0.7404,-0.758,-0.7753,-0.7845,-0.8028,-0.8208,-0.8292,-0.8292,-0.8384,-0.8568,-0.8652,-0.8828,-0.8999,-0.9345,-0.9519,-0.9607,-0.9519,-0.9515,-0.9428,-0.9074,-0.8894,-0.8719,-0.7482,-0.6242,-0.5361,0.0,0.0,0.0,0.0,0.0,0.0,0.0,0.0,0.0,0.0,0.0,0.0,0.0,0.0616,0.0112,-0.0224,-0.0505,-0.1066,-0.1967,-0.1849,-0.1902,-0.2127,-0.2206,-0.1848,-0.1046,-0.0326,0.0336,0.0874,0.1951,0.2288,0.1952,0.2627,0.3149,0.3572,0.4025,0.4795,0.581,0.6305,0.6881,0.7459,0.8236,0.873,0.9179,1.0128,1.0725,1.1122,1.1537,1.1558,1.1409,1.1632,1.1558,1.1335,1.1186,1.0962,1.0738,1.0513,0.9377,0.777,0.6146,0.4924,0.3923,0.2515,0.1415,0.0632,0.0647,0.065,0.0737,0.1256,0.0599,-0.0695,-0.2522,-0.2299,-0.2062,-0.2784,-0.2871,-0.2957,-0.3136,-0.3406,-0.3674,-0.3849,-0.4119,-0.4476,-0.4919,-0.4746,-0.4926,-0.5633,-0.6346,-0.6969,-0.7401,-0.776,-0.794,-0.8201,-0.8197,-0.8292,-0.8564,-0.8568,-0.8568,-0.8568,-0.8568,-0.8568,-0.8568,-0.8828,-0.8999,-0.9349,-0.9777,-1.0125,-1.0294,-1.0722,-1.0895,-1.0895,-1.0895,-1.0722,-1.0463,-1.0289,-0.8803,-0.6962,0.0,0.0,0.0,0.0,0.0,0.0,0.0,0.0,0.0,0.0,0.0,0.0,0.0,0.0,0.0,0.0,-0.1625,-0.1961,-0.2355,-0.2462,-0.2627,-0.2796,-0.2801,-0.247,-0.1782,-0.1024,-0.0395,0.0067,0.0807,0.1076,0.0874,0.1153,0.1512,0.1886,0.2538,0.3285,0.4203,0.5144,0.5936,0.6647,0.7372,0.7946,0.8506,0.9341,0.9956,1.056,0.0,1.1999,1.2378,1.2452,1.2378,1.2077,1.1632,1.126,1.0812,0.983,0.8456,0.6996,0.5607,0.4453,0.337,0.2278,0.1511,0.0726,-0.0487,-0.0741,-0.0587,-0.0086,-0.052,-0.1311,-0.2393,-0.2322,-0.2244,-0.2784,-0.305,-0.3136,-0.3227,-0.3583,-0.3941,-0.4389,-0.4741,-0.5272,-0.5897,-0.5719,-0.5808,-0.6346,-0.7054,-0.7584,-0.7933,-0.8204,-0.8388,-0.8472,-0.8472,-0.8476,-0.8568,-0.8568,-0.8568,-0.8568,-0.8568,-0.8656,-0.8828,-0.917,-0.9602,-0.9946,-1.0467,-1.0901,-1.1241,-1.1413,-1.1499,-1.1671,-1.1671,-1.1585,-1.1494,-1.1327,-1.0804,-0.9927,0.0,0.0,0.0,0.0,0.0,0.0,0.0,0.0,0.0,0.0,0.0,0.0,0.0,0.0,0.0,0.0,0.0,-0.2244,-0.2355,-0.2519,-0.2685,-0.2854,-0.2772,-0.255,-0.2116,-0.1892,-0.1366,-0.0663,-0.0401,-0.0134,0.0067,0.0202,0.0339,0.0689,0.131,0.2086,0.2961,0.3883,0.4798,0.5557,0.6351,0.6983,0.7669,0.8555,0.9355,0.0,1.1237,1.2069,1.268,1.2858,1.2746,1.2378,1.1855,1.1105,1.0201,0.8765,0.7387,0.6073,0.4916,0.3834,0.283,0.1906,0.0966,-0.0082,-0.1578,-0.1771,-0.1544,-0.1051,-0.132,-0.1768,-0.2327,-0.2334,-0.2424,-0.2962,-0.3318,-0.3583,-0.3583,-0.4117,-0.4741,-0.5104,-0.5722,-0.6248,-0.6782,-0.6868,-0.6959,-0.7146,-0.7676,-0.8028,-0.8292,-0.8476,-0.8568,-0.8568,-0.8568,-0.8568,-0.8568,-0.8568,-0.8656,-0.874,-0.874,-0.8828,-0.917,-0.9602,-1.012,-1.0554,-1.1154,-1.1585,-1.21,-1.2277,-1.2448,-1.2619,-1.2699,-1.2778,-1.2693,-1.2607,-1.2528,-1.2186,0.0,0.0,0.0,0.0,0.0,0.0,0.0,0.0,0.0,0.0,0.0,0.0,0.0,0.0,0.0,0.0,0.0,0.0,-0.2079,-0.2017,-0.2071,-0.2296,-0.2193,-0.2113,-0.2116,-0.2684,-0.251,-0.1354,-0.1457,-0.1141,-0.0402,-0.0403,-0.0336,-0.0134,0.0403,0.1074,0.1878,0.2551,0.342,0.4353,0.5216,0.6013,0.6758,0.788,0.8912,0.986,1.0924,1.1637,1.2203,1.2722,1.2599,1.2157,1.1706,1.0501,0.8917,0.7544,0.6234,0.4996,0.3995,0.3062,0.2214,0.1455,-0.0163,-0.1732,-0.2666,-0.2522,-0.2102,-0.1608,-0.1705,-0.2064,-0.2334,-0.2424,-0.2691,-0.3138,-0.3851,-0.43,-0.4387,-0.5188,-0.5811,-0.6083,-0.67,-0.7228,-0.7489,-0.7933,-0.8113,-0.7852,-0.8113,-0.8292,-0.8568,-0.8568,-0.8568,-0.8568,-0.8568,-0.8568,-0.8568,-0.8568,-0.874,-0.8911,-0.8911,-0.917,-0.9689,-1.012,-1.0636,-1.1154,-1.1843,-1.2357,-1.279,-1.3307,-1.3561,-1.3822,-1.4062,-1.4139,-1.4139,-1.4139,-1.3977,-1.3561,0.0,0.0,0.0,0.0,0.0,0.0,0.0,0.0,0.0,0.0,0.0,0.0,0.0,0.0,0.0,0.0,0.0,0.0,-0.0557,-0.0614,-0.0726,-0.0892,-0.0899,-0.0856,-0.0877,-0.0715,-0.0669,-0.0748,-0.0834,-0.1303,-0.1957,-0.1866,-0.1814,-0.1745,-0.1142,-0.0269,0.0806,0.1879,0.2883,0.3754,0.4625,0.5425,0.6222,0.6999,0.7907,0.8867,0.9672,1.0457,1.1272,1.2131,1.1781,1.0812,0.9976,0.8993,0.7927,0.6458,0.5226,0.4144,0.3134,0.2199,0.1416,0.0554,-0.114,-0.2515,-0.2455,-0.2611,-0.2587,-0.2331,-0.2244,-0.2334,-0.2424,-0.2691,-0.2959,-0.3406,-0.4123,-0.4746,-0.5097,-0.5719,-0.6343,-0.6789,-0.7319,-0.776,-0.8021,-0.8292,-0.8476,-0.8388,-0.8476,-0.8564,-0.8568,-0.8568,-0.8568,-0.8568,-0.8568,-0.8568,-0.8568,-0.874,-0.8911,-0.917,-0.9345,-0.9772,-1.0376,-1.1068,-1.1757,-1.2528,-1.3045,-1.3555,-1.3971,-1.4062,-1.423,-1.4482,-1.4482,-1.4566,-1.4566,-1.4566,-1.4482,-1.4398,0.0,0.0,0.0,0.0,0.0,0.0,0.0,0.0,0.0,0.0,0.0,0.0,0.0,0.0,0.0,0.0,0.0,0.0,0.0,0.167,0.1448,0.1334,0.0944,0.0785,0.08,0.0988,0.0946,0.0722,0.0311,-0.0505,-0.1706,-0.2381,-0.2463,-0.2071,-0.1509,-0.066,0.0528,0.1936,0.2952,0.0,0.0,0.5226,0.5958,0.6618,0.7475,0.8317,0.9086,0.9719,1.0165,1.0256,1.0038,0.9523,0.8304,0.7464,0.6696,0.5223,0.4217,0.3365,0.2511,0.1492,0.0472,-0.0796,-0.1872,-0.2586,-0.2719,-0.287,-0.2928,-0.2865,-0.2781,-0.2691,-0.2781,-0.3048,-0.3406,-0.4121,-0.4924,-0.5633,-0.6071,-0.6868,-0.7401,-0.7665,-0.8025,-0.838,-0.8468,-0.856,-0.8568,-0.8568,-0.8568,-0.8568,-0.8568,-0.8568,-0.8568,-0.8568,-0.8568,-0.8656,-0.874,-0.9087,-0.9345,-0.9777,-0.9946,-1.0549,-1.1413,-1.1929,-1.2613,-1.3464,-1.3808,-1.4237,-1.4741,-1.4741,-1.4824,-1.4999,-1.4999,-1.4999,-1.4999,-1.4999,-1.4999,-1.4999,0.0,0.0,0.0,0.0,0.0,0.0,0.0,0.0,0.0,0.0,0.0,0.0,0.0,0.0,0.0,0.0,0.0,0.0,0.0,0.0,0.0,0.0,0.2892,0.25,0.2613,0.2464,0.2387,0.2503,0.1685,0.0673,-0.055,-0.2092,-0.2467,-0.1788,-0.1456,-0.0576,0.0641,0.2311,0.3274,0.3806,0.4486,0.5226,0.5954,0.0,0.0,0.8012,0.8842,0.9127,0.8915,0.7916,0.7957,0.8188,0.6762,0.6079,0.5461,0.4064,0.3207,0.2585,0.1963,0.0943,-0.0395,-0.2097,-0.2354,-0.2383,-0.3089,-0.3208,-0.3144,-0.3213,-0.3047,-0.2957,-0.3136,-0.3496,-0.4032,-0.4921,-0.5897,-0.6697,-0.7139,-0.8021,-0.8544,-0.8632,-0.8815,-0.8911,-0.8911,-0.874,-0.8568,-0.8568,-0.8568,-0.8568,-0.8568,-0.8568,-0.8568,-0.8656,-0.8656,-0.874,-0.9087,-0.9519,-0.9946,-1.0467,-1.0636,-1.1413,-1.2534,-1.279,-1.3379,-1.423,-1.4482,-1.4741,-1.5173,-1.5173,-1.5257,-1.5431,-1.5431,-1.5431,-1.5431,-1.5431,-1.5431,-1.5431,0.0,0.0,0.0,0.0,0.0,0.0,0.0,0.0,0.0,0.0,1.0923,0.8829,0.0,0.0,0.0,0.0,0.0,0.0,0.0,0.0,0.0,0.0,0.3953,0.3788,0.3738,0.3705,0.366,0.3604,0.2267,0.1062,-0.0059,-0.1155,-0.1971,-0.2468,-0.2295,-0.1303,0.0435,0.2695,0.3577,0.351,0.432,0.5024,0.5683,0.0,0.0,0.0,0.8441,0.8414,0.7858,0.692,0.6883,0.6978,0.5899,0.5082,0.4457,0.3287,0.2663,0.2195,0.1571,0.0707,-0.0393,-0.2055,-0.2487,-0.27,-0.3276,-0.3428,-0.3408,-0.3482,-0.3317,-0.3136,-0.3227,-0.3762,-0.4476,-0.5184,-0.6248,-0.7228,-0.7933,-0.8468,-0.8907,-0.917,-0.8999,-0.8911,-0.8911,-0.874,-0.8568,-0.8568,-0.8568,-0.8568,-0.8568,-0.8568,-0.8652,-0.8823,-0.8828,-0.917,-0.9777,-1.0033,-1.0467,-1.1154,-1.1585,-1.2272,-1.3222,-1.3639,-1.423,-1.4915,-1.5173,-1.5257,-1.5347,-1.5347,-1.5347,-1.5431,-1.5431,-1.5431,-1.5431,-1.5431,-1.5431,-1.5423,0.0,0.0,0.0,0.0,0.0,0.0,0.0,1.7315,1.6218,1.5136,1.346,1.1599,0.9438,0.8776,0.0,0.0,0.0,0.0,0.0,0.0,0.0,0.0,0.0,0.0,0.4849,0.4684,0.4463,0.4301,0.0,0.234,0.1084,-0.0116,-0.0997,-0.1588,-0.1494,-0.0722,0.0602,0.2361,0.3303,0.3737,0.4372,0.496,0.0,0.0,0.0,0.0,0.0,0.7883,0.744,0.6464,0.5941,0.5614,0.4551,0.3953,0.337,0.2585,0.2117,0.1805,0.1021,0.0314,-0.055,-0.212,-0.2613,-0.281,-0.3367,-0.3528,-0.3608,-0.3689,-0.3469,-0.3317,-0.3497,-0.3942,-0.4654,-0.5633,-0.6691,-0.7753,-0.8464,-0.9082,-0.9519,-0.9607,-0.9349,-0.9087,-0.9087,-0.8828,-0.8568,-0.8568,-0.8568,-0.8568,-0.8568,-0.874,-0.8823,-0.8911,-0.9257,-0.9777,-1.0294,-1.0809,-1.1413,-1.2186,-1.2528,-1.3215,-1.4068,-1.4314,-1.4741,-1.5264,-1.5347,-1.5431,-1.5431,-1.5431,-1.5431,-1.5431,-1.5431,-1.5431,-1.5431,-1.5499,-1.5582,-1.5575,0.0,0.0,0.0,0.0,0.0,0.0,0.0,1.8454,1.7531,1.6561,1.5719,1.4359,1.2078,1.1081,1.041,0.0,0.0,0.0,0.0,0.0,0.0,0.0,0.0,0.0,0.0,0.0,0.0,0.4798,0.4411,0.0,0.0,0.0,0.0,0.0,-0.0404,0.0058,0.0874,0.2044,0.3087,0.0,0.0,0.4948,0.0,0.0,0.0,0.0,0.0,0.7531,0.7157,0.6101,0.5211,0.4434,0.3449,0.2963,0.265,0.2036,0.1805,0.1493,0.055,-0.0157,-0.0942,-0.2276,-0.2746,-0.3,-0.3555,-0.3637,-0.3637,-0.3718,-0.3446,-0.3229,-0.3678,-0.4121,-0.4743,-0.5813,-0.6959,-0.8017,-0.8644,-0.9432,-0.9951,-0.9951,-0.9519,-0.9262,-0.9262,-0.8915,-0.8568,-0.8568,-0.8656,-0.8656,-0.8656,-0.8828,-0.8999,-0.917,-0.9777,-1.0381,-1.0982,-1.1671,-1.2357,-1.3209,-1.3476,-1.4068,-1.4824,-1.4824,-1.4999,-1.5431,-1.5431,-1.5431,-1.5431,-1.5431,-1.5431,-1.5431,-1.5423,-1.5423,-1.5506,-1.5741,-1.5816,-1.5899,0.0,0.0,0.0,0.0,0.0,0.0,0.0,1.9324,1.8474,1.7903,1.7152,1.6473,1.5831,1.3825,1.2214,0.0,0.0,0.0,0.0,0.0,0.0,0.0,0.0,0.0,0.0,0.0,0.0,0.5073,0.446,0.0,0.0,0.0,0.0,0.0,0.0,0.0056,0.079,0.2274,0.0,0.0,0.0,0.0,0.0,0.0,0.0,0.0,0.0,0.7269,0.6613,0.5704,0.486,0.3992,0.3026,0.2701,0.2592,0.203,0.1808,0.1493,0.0314,-0.055,-0.1492,-0.2591,-0.2982,-0.3238,-0.3718,-0.3555,-0.3381,-0.3457,-0.3183,-0.2962,-0.3227,-0.4028,-0.4828,-0.5359,-0.6782,-0.7937,-0.8201,-0.9078,-0.9602,-0.9602,-0.9432,-0.9262,-0.9262,-0.8915,-0.8568,-0.8568,-0.874,-0.8911,-0.8911,-0.8911,-0.9257,-1.012,-1.0376,-1.1068,-1.2192,-1.2619,-1.3294,-1.3971,-1.423,-1.4573,-1.509,-1.509,-1.5173,-1.5431,-1.5431,-1.5431,-1.5431,-1.5431,-1.5431,-1.5431,-1.5575,-1.565,-1.5741,-1.6004,-1.6162,-1.6394,0.0,0.0,0.0,0.0,0.0,0.0,2.0941,2.032,1.9596,1.909,1.8579,1.8154,1.7784,1.6911,1.566,0.0,0.0,0.0,0.0,0.0,0.0,0.0,0.0,0.0,0.0,0.0,0.5403,0.5242,0.4739,0.0,0.0,0.0,0.0,0.0,0.0,0.0504,0.1232,0.2384,0.0,0.0,0.0,0.0,0.0,0.0,0.0,0.0,0.0,0.0,0.6609,0.5818,0.4995,0.4308,0.3548,0.3052,0.2549,0.1899,0.132,0.0786,0.0,-0.1099,-0.2119,-0.2669,-0.3059,-0.3458,-0.3728,-0.3564,-0.3233,-0.3389,-0.3122,-0.2918,-0.313,-0.376,-0.4385,-0.4921,-0.6077,-0.7051,-0.7492,-0.8456,-0.9248,-0.9432,-0.9432,-0.9519,-0.9519,-0.917,-0.8999,-0.8999,-0.9087,-0.917,-0.9345,-0.9432,-0.9864,-1.0463,-1.1068,-1.1929,-1.2966,-1.347,-1.3971,-1.4657,-1.4741,-1.4999,-1.5257,-1.5257,-1.5347,-1.5431,-1.5431,-1.5431,-1.5431,-1.5431,-1.5506,-1.5575,-1.565,-1.5899,-1.6147,-1.6566,-1.6812,-1.7057,0.0,0.0,0.0,0.0,0.0,2.1155,2.1732,2.1164,2.0503,2.0093,1.9737,1.9413,1.9148,1.9089,1.8436,1.6814,0.0,0.0,0.0,0.0,0.0,0.0,0.0,0.0,0.0,0.0,0.5513,0.5407,0.4963,0.4405,0.0,0.0,0.1623,0.1177,0.0,0.0,0.0,0.0,0.0,0.0,0.0,0.0,0.0,0.0,0.0,0.0,0.0,0.0,0.0,0.0,0.0,0.4576,0.3981,0.3267,0.2547,0.1864,0.1226,0.0545,-0.0078,-0.1412,-0.2668,-0.2668,-0.3137,-0.3604,-0.3684,-0.3438,-0.3187,-0.3152,-0.2983,-0.2883,-0.3014,-0.3568,-0.4028,-0.4389,-0.5544,-0.6432,-0.6874,-0.7929,-0.8811,-0.917,-0.9345,-0.9515,-0.9602,-0.9432,-0.9345,-0.9345,-0.9345,-0.9519,-0.9689,-1.0125,-1.0467,-1.0895,-1.1843,-1.2784,-1.373,-1.4146,-1.4657,-1.5173,-1.5173,-1.5264,-1.5431,-1.5431,-1.5431,-1.5431,-1.5431,-1.5423,-1.5506,-1.5506,-1.5582,-1.5824,-1.5982,-1.6229,-1.664,-1.7131,-1.7465,-1.7797,0.0,0.0,0.0,0.0,0.0,0.0,2.2211,2.174,2.1164,2.0844,2.0429,2.0139,2.01,2.0025,1.9884,1.9675,0.0,0.0,0.0,0.0,0.0,0.0,0.0,0.0,0.0,0.0,0.5622,0.5622,0.512,0.457,0.3965,0.2959,0.2235,0.179,0.0,0.0,0.0,0.0,0.0,0.0,0.0,0.0,0.0,0.0,0.0,0.0,0.0,0.0,0.0,0.0,0.0,0.0,0.0,0.3285,0.2616,0.2234,0.174,0.1066,0.0234,-0.1491,-0.2982,-0.2589,-0.3137,-0.3763,-0.3526,-0.3356,-0.3172,-0.2928,-0.2867,-0.2783,-0.2783,-0.3446,-0.3939,-0.3939,-0.5099,-0.6171,-0.6343,-0.7404,-0.8376,-0.8823,-0.9174,-0.9345,-0.9602,-0.9432,-0.9345,-0.9602,-0.9602,-0.9689,-0.9951,-1.0641,-1.1241,-1.1671,-1.2528,-1.3464,-1.4398,-1.4831,-1.5173,-1.5431,-1.5431,-1.5431,-1.5431,-1.5431,-1.5431,-1.5431,-1.5431,-1.5499,-1.5733,-1.5733,-1.5824,-1.617,-1.6492,-1.6812,-1.7131,-1.7538,-1.8031,-1.8353,0.0,0.0,0.0,0.0,0.0,0.0,0.0,2.2248,2.1715,2.1339,2.1039,2.0827,2.0595,2.0426,2.017,1.9803,0.0,0.0,0.0,0.0,0.0,0.0,0.0,0.0,0.0,0.0,0.5508,0.5238,0.5011,0.4622,0.4125,0.3506,0.3007,0.2619,0.2563,0.3178,0.0,0.0,0.0,0.0,0.0,0.0,0.7165,0.0,0.0,0.0,0.0,0.0,0.0,0.0,0.0,0.0,0.0,0.0,0.0,0.2346,0.1621,0.0834,0.0153,-0.0929,-0.2038,-0.2589,-0.2981,-0.3139,-0.3217,-0.3079,-0.2951,-0.2918,-0.2833,-0.2733,-0.2775,-0.3183,-0.3405,-0.3405,-0.4208,-0.5102,-0.5636,-0.6871,-0.7933,-0.8636,-0.934,-0.9777,-0.9864,-0.9777,-0.9777,-0.9864,-0.9864,-0.9951,-1.0038,-1.0814,-1.1413,-1.1929,-1.296,-1.3808,-1.4566,-1.5082,-1.5347,-1.5431,-1.5431,-1.5431,-1.5431,-1.5431,-1.5431,-1.5431,-1.5431,-1.5499,-1.5733,-1.5733,-1.5989,-1.6574,-1.6812,-1.7383,-1.8031,-1.8282,-1.8674,-1.8984,0.0,0.0,0.0,0.0,0.0,0.0,0.0,2.2607,2.2153,2.1748,2.1495,2.123,2.0941,2.0695,2.0392,1.9859,0.0,0.0,0.0,0.0,0.0,0.0,0.0,0.0,0.0,0.5786,0.5513,0.5183,0.5014,0.4791,0.4405,0.4006,0.3755,0.3575,0.3575,0.4172,0.0,0.0,0.0,0.0,0.0,0.0,0.7705,0.0,0.0,0.0,0.0,0.0,0.0,0.0,0.0,0.0,0.0,0.0,0.0,0.0,0.178,0.1109,0.0377,-0.0536,-0.1473,-0.2192,-0.2589,-0.2826,-0.2982,-0.2904,-0.2758,-0.272,-0.2697,-0.2677,-0.2737,-0.297,-0.3197,-0.3223,-0.3942,-0.4656,-0.5369,-0.6694,-0.7841,-0.8899,-0.9598,-1.0038,-1.0038,-1.0038,-1.0038,-1.0038,-1.0038,-1.0038,-1.0038,-1.0809,-1.1499,-1.2015,-1.3215,-1.4146,-1.465,-1.5173,-1.5431,-1.5431,-1.5431,-1.5431,-1.5431,-1.5431,-1.5431,-1.5431,-1.5431,-1.559,0.0,-1.5824,-1.6319,-1.6976,-1.7221,-1.7789,-1.8523,-1.8772,-1.9002,-1.9301,0.0,0.0,0.0,0.0,0.0,0.0,0.0,0.0,2.2473,2.2084,2.1797,2.1511,2.1167,2.0876,2.046,1.9859,0.0,0.0,0.0,0.0,0.0,0.0,0.0,0.0,0.0,0.6059,0.5626,0.5297,0.5183,0.4967,0.4705,0.4418,0.4382,0.4584,0.4465,0.4831,0.5619,0.6267,0.6585,0.6771,0.7283,0.7858,0.0,0.0,0.0,0.0,0.0,0.0,0.0,0.0,0.0,0.0,0.0,0.0,0.0,0.0,0.0,0.0,0.0,-0.0227,-0.1218,-0.148,-0.2196,-0.2826,-0.2747,-0.2747,0.0,-0.2511,-0.2559,-0.262,-0.2681,-0.2911,-0.3148,-0.3215,-0.4032,-0.4924,-0.563,-0.6782,-0.8105,-0.9428,-0.9864,-1.0038,-1.0038,-1.0038,-1.0038,-1.0038,-1.0038,-1.0038,-1.0038,-1.0809,-1.1499,-1.2015,-1.3379,-1.4314,-1.4734,-1.5173,-1.5431,-1.5431,-1.5431,-1.5431,-1.5431,-1.5431,-1.5431,-1.5431,-1.5431,-1.568,-1.6087,-1.6087,-1.6582,-1.7392,-1.7619,-1.8112,-1.878,-1.8922,-1.9152,-1.9301,0.0,0.0,0.0,0.0,0.0,0.0,0.0,0.0,0.0,0.0,2.2158,2.1853,2.1432,2.1071,2.0597,0.0,0.0,0.0,0.0,0.0,0.0,0.0,0.0,0.0,0.0,0.6372,0.5778,0.5128,0.5128,0.5083,0.5094,0.5205,0.5354,0.5584,0.552,0.5899,0.6579,0.6793,0.7295,0.7894,0.7848,0.8234,0.0,0.0,0.0,0.0,0.9003,0.873,0.0,0.0,0.0,0.0,0.0,0.0,0.0,0.0,0.2364,0.2054,0.1557,0.0,0.0076,-0.0546,-0.1492,-0.2278,0.0,-0.2431,-0.2589,-0.2511,-0.2559,-0.262,-0.2681,-0.2827,-0.2976,-0.3127,-0.3673,-0.4474,-0.5542,-0.7316,-0.8907,-0.9777,-0.9951,-1.0038,-1.0038,-1.0038,-1.0038,-1.0038,-1.0038,-1.0038,-1.0038,-1.0809,-1.1499,-1.2015,-1.3392,-1.4328,-1.4734,-1.5173,-1.5431,-1.5431,-1.5431,-1.5431,-1.5431,-1.5431,-1.5431,-1.5431,-1.5431,-1.5582,-1.5824,-1.6004,-1.6492,-1.7221,-1.7708,-1.8362,-1.8922,-1.9152,-1.939,-1.9557,0.0,0.0,0.0,0.0,0.0,0.0,0.0,0.0,0.0,0.0,0.0,0.0,0.0,0.0,0.0,0.0,0.0,0.0,0.0,0.0,0.0,0.0,0.0,0.9155,0.7841,0.7269,0.6568,0.5746,0.5718,0.564,0.5506,0.5679,0.5835,0.6072,0.6466,0.6832,0.7131,0.7539,0.7983,0.8366,0.8472,0.0,0.0,0.0,0.0,0.0,0.9452,0.9238,0.0,0.8107,0.7396,0.6609,0.0,0.0,0.0,0.0,0.2555,0.2235,0.1948,0.1516,0.0898,0.0154,-0.0779,-0.165,-0.2042,-0.2199,-0.2277,-0.2354,-0.2379,-0.2505,-0.2676,-0.2719,-0.2856,-0.3121,-0.376,-0.4828,-0.6605,-0.8113,-0.9345,-0.9951,-1.0038,-1.0038,-1.0038,-1.0038,-1.0038,-1.0038,-1.0038,-1.0038,-1.0038,-1.0809,-1.1499,-1.2015,-1.3385,-1.4321,-1.4734,-1.5173,-1.5431,-1.5431,-1.5431,-1.5431,-1.5431,-1.5431,-1.5431,-1.5431,-1.5431,-1.5499,-1.5733,-1.5824,-1.6402,-1.7131,-1.7554,-1.8201,-1.8851,-1.9073,-1.932,-1.9566,0.0,0.0,0.0,0.0,0.0,0.0,0.0,0.0,0.0,0.0,0.0,0.0,0.0,0.0,0.0,0.0,0.0,0.0,0.0,0.0,0.0,0.0,0.0,1.0526,0.9228,0.8508,0.7688,0.6797,0.6684,0.6431,0.6107,0.6111,0.6207,0.6383,0.715,0.7467,0.7605,0.8234,0.8526,0.8538,0.8969,0.0,0.0,0.0,0.0,0.0,0.0,0.0,0.0,0.856,0.7722,0.6876,0.5947,0.0,0.0,0.0,0.0,0.0,0.2215,0.1924,0.1467,0.0677,-0.0154,-0.0864,-0.1729,-0.1887,-0.1964,-0.2118,-0.2196,-0.2306,-0.2657,-0.2685,-0.2814,-0.328,-0.4285,-0.5802,-0.7933,-0.8815,-0.9432,-0.9951,-1.0038,-1.0038,-1.0038,-1.0038,-1.0038,-1.0038,-1.0038,-1.0038,-1.0038,-1.0809,-1.1499,-1.2015,-1.3379,-1.4314,-1.4734,-1.5173,-1.5431,-1.5431,-1.5431,-1.5431,-1.5431,-1.5431,-1.5431,-1.5431,-1.5347,-1.5416,-1.5575,-1.5575,-1.6147,-1.6886,-1.7229,-1.7806,-1.8612,-1.8843,-1.9161,-1.9487,0.0,0.0,0.0,0.0,0.0,0.0,0.0,0.0,0.0,0.0,0.0,0.0,0.0,0.0,0.0,0.0,0.0,0.0,0.0,0.0,0.0,1.5892,1.4326,1.2833,1.1469,1.025,0.9144,0.8102,0.7699,0.7345,0.703,0.6982,0.703,0.7084,0.7258,0.7653,0.8176,0.83,0.8639,0.909,0.9058,0.0,0.0,0.0,0.0,0.0,0.0,0.0,0.0,0.9022,0.8187,0.74,0.6342,0.0,0.0,0.0,0.0,0.0,0.2701,0.2385,0.1978,0.1279,0.0463,-0.0314,-0.0864,-0.1415,-0.1806,-0.204,-0.2195,-0.2294,-0.2602,-0.2657,-0.2969,-0.3653,-0.53,-0.6868,-0.8021,-0.8815,-0.9432,-0.9951,-1.0038,-1.0038,-1.0038,-1.0038,-1.0038,-1.0038,-1.0038,-1.0038,-1.0038,-1.0809,-1.1499,-1.2015,-1.3392,-1.4328,-1.4734,-1.5173,-1.5431,-1.5431,-1.5431,-1.5431,-1.5431,-1.5431,-1.5431,-1.5431,-1.5257,-1.5173,-1.5166,-1.5166,-1.5499,-1.5982,-1.6566,-1.7221,-1.7951,-1.8531,-1.8851,-1.9161,0.0,0.0,0.0,0.0,0.0,0.0,0.0,0.0,0.0,0.0,0.0,0.0,0.0,0.0,0.0,0.0,0.0,0.0,0.0,0.0,0.0,1.7053,1.6192,1.4715,1.2512,1.1451,1.0383,0.9326,0.8833,0.8351,0.7879,0.7575,0.7442,0.7423,0.7689,0.805,0.844,0.867,0.8925,0.9099,0.0,0.0,0.0,0.0,0.0,0.0,0.0,0.0,0.0,0.0,0.8506,0.7727,0.6736,0.0,0.0,0.0,0.0,0.0,0.282,0.2657,0.2482,0.207,0.1221,0.0393,0.0,-0.055,-0.11,-0.157,-0.1884,-0.2214,-0.2428,-0.2651,-0.3231,-0.448,-0.586,-0.7221,-0.8285,-0.8903,-0.9432,-0.9951,-1.0038,-1.0038,-1.0038,-1.0038,-1.0038,-1.0038,-1.0038,-1.0038,-1.0038,-1.0809,-1.1499,-1.2015,-1.3398,-1.4328,-1.4734,-1.5173,-1.5431,-1.5431,-1.5431,-1.5431,-1.5431,-1.5264,-1.5257,-1.5257,-1.4999,-1.4908,-1.4908,-1.4908,-1.5082,-1.5416,-1.6079,-1.673,-1.7448,-1.8523,-1.9002,-1.9152,0.0,0.0,0.0,0.0,0.0,0.0,0.0,0.0,0.0,0.0,0.0,0.0,0.0,0.0,0.0,0.0,0.0,0.0,0.0,0.0,1.8634,1.7792,1.7476,1.6147,1.3589,1.2655,1.1675,1.0613,1.0052,0.9366,0.8659,0.8163,0.7853,0.7824,0.8122,0.8358,0.8552,0.8938,0.9005,0.8956,0.0,0.0,0.0,0.0,0.0,0.0,0.0,0.0,0.0,0.0,0.0,0.0,0.0,0.0,0.0,0.4359,0.3692,0.3293,0.2889,0.2868,0.2914,0.2767,0.1968,0.1178,0.0864,0.0314,-0.0393,-0.1021,-0.165,-0.2054,-0.225,-0.2805,-0.3751,-0.5245,-0.6251,-0.7309,-0.846,-0.8995,-0.9432,-0.9951,-1.0038,-1.0038,-1.0038,-1.0038,-1.0038,-1.0038,-1.0038,-1.0038,-1.0038,-1.0809,-1.1499,-1.2015,-1.3398,-1.4328,-1.4734,-1.5173,-1.5431,-1.5431,-1.5431,-1.5347,-1.5347,-1.5173,-1.509,-1.4999,-1.4734,-1.465,-1.465,-1.4573,-1.4741,-1.4999,-1.559,-1.6319,-1.7123,-1.8264,-1.8754,-1.8904,0.0,0.0,0.0,0.0,0.0,0.0,0.0,0.0,0.0,0.0,0.0,0.0,0.0,0.0,0.0,0.0,0.0,0.0,0.0,0.0,1.9033,1.8442,1.7918,1.6946,1.5456,1.4182,1.3064,1.2166,1.1351,1.0401,0.9205,0.873,0.8476,0.8345,0.8109,0.8259,0.87,0.8663,0.8705,0.8857,0.9263,0.0,0.0,0.0,0.0,0.0,0.0,0.0,0.0,0.0,0.0,0.0,0.0,0.0,0.5415,0.4553,0.4023,0.3692,0.3293,0.3149,0.3207,0.3134,0.28,0.2198,0.1414,0.0864,0.0236,-0.0628,-0.1335,-0.1808,-0.2123,-0.3179,-0.4424,-0.5505,-0.6428,-0.7492,-0.8732,-0.9087,-0.9432,-0.9951,-1.0038,-1.0038,-1.0038,-1.0038,-1.0038,-1.0038,-1.0038,-1.0038,-1.0038,-1.0809,-1.1499,-1.2015,-1.3398,-1.4328,-1.4734,-1.5173,-1.5431,-1.5431,-1.5431,-1.5257,-1.509,-1.509,-1.4999,-1.4741,-1.4482,-1.4391,-1.4398,-1.425,-1.4243,-1.4482,-1.4999,-1.5989,-1.7139,-1.7392,-1.7627,-1.7861,0.0,0.0,0.0,0.0,0.0,0.0,0.0,0.0,0.0,0.0,0.0,0.0,0.0,0.0,0.0,0.0,0.0,0.0,0.0,1.9767,1.9175,1.8441,1.7897,1.7112,1.6073,1.4728,1.3485,1.2413,1.111,1.0227,0.9682,0.9083,0.8681,0.848,0.8433,0.8576,0.8736,0.8738,0.8958,0.9397,0.9606,1.0228,0.0,0.0,0.0,0.0,0.0,0.0,0.0,0.0,0.9011,0.8371,0.719,0.6342,0.562,0.4619,0.409,0.3706,0.3432,0.3333,0.3366,0.3417,0.3137,0.2747,0.2198,0.1256,0.0236,-0.055,-0.1257,-0.1902,-0.2606,-0.3485,-0.4509,-0.5772,-0.6609,-0.7492,-0.8552,-0.9082,-0.9432,-0.9689,-0.9864,-1.0038,-1.0038,-1.0038,-1.0038,-1.0038,-1.0038,-1.0038,-1.0038,-1.0727,-1.1413,-1.2015,-1.3222,-1.4159,-1.465,-1.4999,-1.5173,-1.5173,-1.5173,-1.5173,-1.509,-1.4831,-1.4566,-1.4482,-1.4328,-1.4243,-1.4243,-1.4166,-1.4166,-1.4243,-1.4992,-1.5816,-1.6722,-1.6894,-1.7229,-1.7546,0.0,0.0,0.0,0.0,0.0,0.0,0.0,0.0,0.0,0.0,0.0,0.0,0.0,0.0,0.0,0.0,0.0,0.0,2.0462,1.9926,1.9303,1.8583,1.7975,1.7279,1.6482,1.5206,1.4043,1.2911,1.1345,1.0313,0.9951,0.9388,0.8971,0.8703,0.8703,0.8815,0.8998,0.8998,0.933,0.9883,1.0154,1.0793,0.0,0.0,0.0,0.0,0.0,0.0,0.0,0.0,0.9145,0.8506,0.7256,0.6408,0.569,0.4619,0.409,0.3715,0.3477,0.343,0.3447,0.3458,0.3237,0.2904,0.2746,0.1491,0.0236,-0.0393,-0.1178,-0.2072,-0.2999,-0.3693,-0.4594,-0.5948,-0.6697,-0.7492,-0.8552,-0.8995,-0.9257,-0.9602,-0.9777,-0.9951,-0.9951,-1.0038,-1.0038,-1.0038,-1.0038,-1.0038,-1.0038,-1.0641,-1.1241,-1.1929,-1.3045,-1.3899,-1.4489,-1.4831,-1.4999,-1.4999,-1.4915,-1.4915,-1.4831,-1.4566,-1.4398,-1.4321,-1.4166,-1.4088,-1.4088,-1.4088,-1.4173,-1.4243,-1.4901,-1.5484,-1.5989,-1.6154,-1.6402,-1.6812,0.0,0.0,0.0,0.0,0.0,0.0,0.0,0.0,0.0,0.0,0.0,0.0,0.0,0.0,0.0,0.0,0.0,0.0,2.1272,2.0295,1.95,1.8851,1.8236,1.7556,1.6821,1.5864,1.4883,1.3761,1.2238,1.1022,1.0104,0.9838,0.9505,0.9211,0.891,0.9025,0.9404,0.9467,0.9806,1.0257,1.0887,1.1487,1.2161,0.0,0.0,0.0,0.0,0.0,0.0,0.0,0.9081,0.8317,0.7256,0.6408,0.569,0.4619,0.409,0.3717,0.3479,0.3287,0.3227,0.3312,0.2929,0.2589,0.2984,0.1727,0.0236,-0.0314,-0.1178,-0.2232,-0.3248,-0.3777,-0.4594,-0.6119,-0.6786,-0.7496,-0.8736,-0.8911,-0.9087,-0.9515,-0.9602,-0.9689,-0.9951,-1.0038,-1.0038,-1.0038,-1.0038,-1.0038,-1.0038,-1.0641,-1.1241,-1.1677,-1.279,-1.3568,-1.4088,-1.4489,-1.465,-1.465,-1.4482,-1.4398,-1.4398,-1.4398,-1.4321,-1.4088,-1.4088,-1.4088,-1.4088,-1.4088,-1.4243,-1.4398,-1.465,-1.4824,-1.509,-1.509,-1.5249,-1.5394,0.0,0.0,0.0,0.0,0.0,0.0,0.0,0.0,0.0,0.0,0.0,0.0,0.0,0.0,0.0,0.0,0.0,0.0,2.0845,1.9991,1.9279,1.8667,1.8084,1.7523,1.7067,1.5979,1.4625,1.3016,1.1994,1.1191,1.0647,1.0128,0.9932,1.0019,0.9965,1.0093,1.0342,1.0342,1.0646,1.1225,1.1526,1.2032,1.2583,0.0,0.0,0.0,0.0,0.0,0.0,0.0,0.0,0.0,0.7256,0.6408,0.569,0.4619,0.4079,0.3825,0.3576,0.3377,0.3238,0.3167,0.2968,0.2747,0.2672,0.1492,0.0,-0.1021,-0.1572,-0.2142,-0.2941,-0.3822,-0.4826,-0.6085,-0.689,-0.7669,-0.8564,-0.8828,-0.8911,-0.9087,-0.9257,-0.9519,-0.9689,-0.9689,-0.9777,-0.9951,-1.0038,-1.0038,-1.0038,-1.0294,-1.0809,-1.1413,-1.21,-1.279,-1.3568,-1.3899,-1.4075,-1.425,-1.425,-1.4237,-1.4398,-1.4243,-1.4166,-1.4088,-1.4088,-1.4088,-1.4088,-1.4088,-1.4173,-1.4243,-1.4398,-1.4566,-1.465,-1.4741,-1.5068,-1.5394,0.0,0.0,0.0,0.0,0.0,0.0,0.0,0.0,0.0,0.0,0.0,0.0,0.0,0.0,0.0,0.0,0.0,0.0,0.0,1.9798,1.9186,1.8614,1.8139,1.759,1.6965,1.5863,1.4592,1.3185,1.25,1.1797,1.1132,1.0894,1.0756,1.0809,1.0794,1.088,1.1083,1.1083,1.1388,1.1873,1.2182,1.249,1.2805,0.0,0.0,0.0,0.0,0.0,0.0,0.0,0.0,0.0,0.7251,0.6404,0.5554,0.4619,0.4102,0.3869,0.3547,0.3268,0.3045,0.3122,0.2827,0.2277,0.165,0.0393,-0.0786,-0.1572,-0.1886,-0.2294,-0.3075,-0.3971,-0.49,-0.6208,-0.7037,-0.7757,-0.8476,-0.874,-0.8828,-0.8911,-0.9087,-0.9257,-0.9602,-0.9602,-0.9689,-0.9951,-1.0038,-1.0038,-1.0038,-1.0207,-1.0549,-1.0977,-1.1585,-1.2277,-1.2966,-1.3392,-1.3652,-1.3828,-1.3913,-1.399,-1.3977,-1.4082,-1.4088,-1.4088,-1.4088,-1.4088,-1.4088,-1.4088,-1.4088,-1.4088,-1.4243,-1.4237,-1.4237,-1.4321,-1.4573,-1.4901,0.0,0.0,0.0,0.0,0.0,0.0,0.0,0.0,0.0,0.0,0.0,0.0,0.0,0.0,0.0,0.0,0.0,0.0,0.0,0.0,1.9158,1.8614,1.8247,1.7634,1.6684,1.571,1.4825,1.3961,1.3349,1.2591,1.163,1.1878,1.1805,1.1552,1.1519,1.1576,1.1719,1.1719,1.1957,1.2367,1.2683,1.2744,1.2683,1.2367,0.0,0.0,0.0,0.0,0.0,0.0,0.0,0.0,0.7186,0.6338,0.5484,0.4567,0.412,0.3883,0.3557,0.3129,0.2824,0.3124,0.2357,0.1257,0.0079,-0.11,-0.1887,-0.1887,-0.2042,-0.2447,-0.3387,-0.4129,-0.4982,-0.6364,-0.7121,-0.776,-0.8476,-0.8568,-0.8656,-0.8828,-0.8911,-0.9087,-0.9515,-0.9602,-0.9689,-0.9951,-1.0038,-1.0038,-1.0038,-1.0207,-1.0381,-1.0549,-1.1241,-1.1757,-1.2277,-1.2875,-1.3222,-1.3307,-1.3476,-1.3476,-1.3307,-1.3828,-1.4088,-1.4088,-1.4088,-1.4088,-1.4088,-1.4088,-1.4088,-1.4088,-1.4088,-1.4088,-1.4004,-1.3737,-1.3828,-1.4082,0.0,0.0,0.0,0.0,0.0,0.0,0.0,0.0,0.0,0.0,0.0,0.0,0.0,0.0,0.0,0.0,0.0,0.0,0.0,0.0,1.9028,1.8614,1.8084,1.7534,1.6955,1.6043,1.5205,1.445,1.3423,1.2761,1.2432,1.2418,1.2466,1.2675,1.2464,1.247,1.257,1.2448,1.2427,1.256,1.2621,1.2498,1.2243,1.1996,1.1615,0.0,0.0,0.0,0.0,0.0,0.0,0.0,0.7251,0.6408,0.5645,0.4884,0.4448,0.413,0.3723,0.3208,0.273,0.2665,0.1491,0.0079,-0.11,-0.1729,-0.2044,-0.1887,-0.2042,-0.2434,-0.3313,-0.4162,-0.5118,-0.6319,-0.7228,-0.8032,-0.8568,-0.8568,-0.8652,-0.8652,-0.8656,-0.8828,-0.9345,-0.9345,-0.9519,-0.9951,-1.0038,-1.0038,-1.0038,-1.0038,-1.0125,-1.0381,-1.0554,-1.0809,-1.1332,-1.1843,-1.2106,-1.2272,-1.2705,-1.2875,-1.2875,-1.3476,-1.3913,-1.4088,-1.4088,-1.4088,-1.4088,-1.4088,-1.4088,-1.4088,-1.3913,-1.3822,-1.3737,-1.3561,-1.3568,-1.3737,0.0,0.0,0.0,0.0,0.0,0.0,0.0,0.0,0.0,0.0,0.0,0.0,0.0,0.0,0.0,0.0,0.0,0.0,0.0,0.0,1.9093,1.8614,1.803,1.7434,1.6797,1.5891,1.5048,1.4286,1.3552,1.3138,1.2983,1.297,1.3022,1.3162,1.2924,1.2808,1.2683,1.256,1.2436,1.2375,1.2375,1.2189,1.1809,1.1622,1.1373,1.1122,1.1122,0.0,0.0,0.0,0.0,0.0,0.0,0.0,0.5789,0.5195,0.4768,0.4458,0.3902,0.3312,0.2589,0.1804,0.0471,-0.0864,-0.165,-0.1965,-0.2123,-0.2042,-0.2198,-0.2588,-0.3448,-0.423,-0.5194,-0.6446,-0.7382,-0.8032,-0.8568,-0.8568,-0.8568,-0.8568,-0.8568,-0.874,-0.9262,-0.9262,-0.9519,-0.9951,-1.0038,-1.0038,-1.0038,-1.0038,-1.0038,-1.012,-1.0207,-1.0463,-1.0809,-1.1241,-1.1585,-1.1666,-1.2015,-1.2363,-1.2619,-1.3222,-1.3652,-1.3913,-1.3997,-1.4004,-1.3913,-1.3913,-1.3828,-1.3743,-1.3652,-1.3568,-1.3568,-1.3307,-1.3313,-1.3398,0.0,0.0,0.0,0.0,0.0,0.0,0.0,0.0,0.0,0.0,0.0,0.0,0.0,0.0,0.0,0.0,0.0,0.0,0.0,0.0,0.0,1.8614,1.803,1.7367,1.6664,1.569,1.4842,1.4104,1.3739,1.3584,1.3574,1.3547,1.3486,1.3491,1.3211,1.2928,1.2683,1.2428,1.2243,1.2127,1.2127,1.1872,1.156,1.1365,1.1247,1.1122,1.1122,1.0933,1.0555,1.0034,0.0,0.0,0.0,0.0,0.5903,0.5537,0.525,0.4857,0.4079,0.3245,0.2276,0.0864,-0.0314,-0.1335,-0.1807,-0.1965,-0.2121,-0.2196,-0.2353,-0.2746,-0.3606,-0.4297,-0.517,-0.6615,-0.7357,-0.7998,-0.8564,-0.8568,-0.8568,-0.8568,-0.8568,-0.874,-0.9262,-0.9262,-0.9519,-0.9951,-1.0038,-1.0038,-1.0038,-1.0038,-0.9951,-0.9951,-1.012,-1.0207,-1.0376,-1.0809,-1.0982,-1.0982,-1.1327,-1.1671,-1.2106,-1.279,-1.3307,-1.3652,-1.3828,-1.3828,-1.3568,-1.3568,-1.3392,-1.3307,-1.3222,-1.3222,-1.3222,-1.2973,-1.2887,-1.2887,0.0,0.0,0.0,0.0,0.0,0.0,0.0,0.0,0.0,0.0,2.4258,0.0,0.0,0.0,0.0,0.0,0.0,0.0,2.0233,0.0,0.0,1.8614,1.8127,1.7562,1.6886,1.6044,1.5423,1.5018,1.4216,1.4106,1.4619,1.4176,1.3962,1.3879,1.3433,1.3155,1.292,1.2683,1.2375,1.2127,1.2127,1.1809,1.1373,1.1303,1.1247,1.1122,1.124,1.1059,1.0674,1.0155,0.932,0.0,0.0,0.0,0.6299,0.5961,0.5615,0.5136,0.4108,0.2974,0.1729,0.0393,-0.0314,-0.0943,-0.1729,-0.1887,-0.2043,-0.2354,-0.251,-0.2746,-0.3606,-0.4245,-0.5083,-0.6599,-0.7264,-0.7861,-0.8544,-0.8568,-0.8568,-0.8568,-0.8568,-0.874,-0.9262,-0.9262,-0.9519,-0.9951,-1.0038,-1.0038,-1.0038,-1.0038,-0.9864,-0.9689,-0.9689,-0.9602,-0.9432,-0.9689,-0.9859,-0.9859,-1.0294,-1.0636,-1.0895,-1.1585,-1.2448,-1.3398,-1.3313,-1.3228,-1.3137,-1.2966,-1.279,-1.279,-1.2619,-1.2534,-1.254,-1.2203,-1.2129,-1.2123,0.0,0.0,0.0,0.0,0.0,0.0,0.0,0.0,0.0,0.0,0.0,2.4695,0.0,0.0,0.0,2.237,2.1541,2.0709,1.9823,1.9158,1.8614,1.8189,1.7767,1.7021,1.6031,1.5771,1.5327,1.4716,1.4778,1.4804,1.4785,1.4735,1.448,1.407,1.3631,1.3329,1.3155,1.2858,1.2498,1.2182,1.212,1.1872,1.1498,1.1553,1.1607,1.1632,1.1696,1.1553,1.1174,1.0438,0.9495,0.857,0.7914,0.0,0.0,0.0,0.603,0.5382,0.3812,0.2511,0.1336,0.055,-0.0471,-0.1415,-0.1808,-0.1963,-0.2119,-0.2433,-0.2511,-0.2746,-0.3606,-0.4234,-0.5065,-0.6595,-0.7246,-0.7834,-0.854,-0.8568,-0.8568,-0.8568,-0.8568,-0.874,-0.9262,-0.9262,-0.9519,-0.9951,-1.0038,-1.0038,-1.0038,-1.0038,-0.9864,-0.9602,-0.9602,-0.9515,-0.9262,-0.9345,-0.9432,-0.9432,-0.9777,-1.0033,-1.0202,-1.0809,-1.1585,-1.2448,-1.2619,-1.2448,-1.21,-1.1929,-1.1843,-1.1757,-1.1671,-1.1671,-1.1757,-1.1677,-1.1596,-1.1596,0.0,0.0,0.0,0.0,0.0,0.0,0.0,0.0,0.0,0.0,0.0,0.0,0.0,0.0,0.0,0.0,2.1541,2.061,1.9512,1.9052,1.8567,1.8059,1.7629,1.6904,1.5825,1.5917,1.5569,1.4809,1.5349,1.5401,1.5074,1.5206,1.4942,1.4428,1.3941,1.3631,1.3511,1.3164,1.2858,1.2605,1.2428,1.2173,1.1992,1.2054,1.2138,1.2226,1.216,1.1914,1.1491,1.0604,0.9631,0.873,0.8075,0.7449,0.0,0.0,0.0,0.5269,0.3583,0.2275,0.1178,0.0707,-0.0471,-0.1572,-0.1887,-0.2042,-0.2198,-0.2431,-0.2511,-0.2746,-0.3606,-0.4214,-0.502,-0.6456,-0.7184,-0.7773,-0.8471,-0.8536,-0.8568,-0.8568,-0.8568,-0.874,-0.9262,-0.9262,-0.9519,-0.9951,-1.0038,-1.0038,-1.0038,-0.9951,-0.9777,-0.9515,-0.9428,-0.9345,-0.9087,-0.9087,-0.9087,-0.9087,-0.9345,-0.9515,-0.9593,-1.0033,-1.0463,-1.0977,-1.1585,-1.1499,-1.089,-1.0804,-1.0717,-1.0544,-1.0544,-1.0631,-1.0804,-1.0804,-1.0804,-1.0804,0.0,0.0,0.0,0.0,0.0,0.0,0.0,0.0,0.0,0.0,0.0,0.0,2.4147,2.3508,2.2859,2.2263,2.1554,2.0723,1.9668,1.9105,1.8721,1.8578,1.8201,0.0,1.7126,1.6969,1.6705,1.6213,1.5997,1.5863,1.5826,1.5526,1.5303,1.5098,1.4428,1.413,1.413,1.389,1.364,1.339,1.3103,1.2992,1.3028,1.2788,1.2745,1.2706,1.2564,1.203,1.1292,1.0534,0.9561,0.8548,0.8102,0.7651,0.717,0.0,0.0,0.0,0.3521,0.2353,0.1178,0.0707,0.0079,-0.0786,-0.1808,-0.1965,-0.2043,-0.2433,-0.2511,-0.2746,-0.3606,-0.4155,-0.4896,-0.6298,-0.7022,-0.7602,-0.8195,-0.8455,-0.8568,-0.8568,-0.8568,-0.874,-0.9262,-0.9262,-0.9519,-0.9951,-1.0038,-1.0038,-1.0038,-0.9777,-0.9519,-0.9345,-0.9087,-0.8823,-0.8656,-0.8656,-0.8656,-0.8656,-0.8823,-0.8819,-0.8723,-0.9165,-0.9165,-0.8807,-0.9941,-1.0207,-0.9941,-0.9497,-0.9323,-0.9323,-0.9323,-0.9323,-0.9318,-0.9318,-0.9318,-0.9323,0.0,0.0,0.0,0.0,0.0,0.0,0.0,0.0,0.0,0.0,0.0,0.0,0.0,2.3205,2.2731,2.2543,2.1348,2.0233,1.9525,1.9064,1.859,1.813,1.7868,1.7375,1.6564,1.6793,1.6685,1.6159,1.6303,1.6208,1.5914,1.5672,1.5488,1.5303,1.4902,1.4734,1.4753,1.4763,1.4732,1.4496,1.4342,1.4132,1.3908,1.3467,1.3289,1.3186,1.2764,1.2325,1.1847,1.09,1.003,0.9168,0.8646,0.8072,0.7487,0.6934,0.6015,0.4927,0.4068,0.2978,0.1884,0.1257,0.0314,-0.0628,-0.1415,-0.1885,-0.2198,-0.2431,-0.2511,-0.2746,-0.3606,-0.4153,-0.4888,-0.6288,-0.7174,-0.7836,-0.8429,-0.8793,-0.9003,-0.8828,-0.8828,-0.8828,-0.8999,-0.9174,-0.9432,-0.9689,-0.9864,-1.0038,-1.0038,-0.9777,-0.9519,-0.9349,-0.8999,-0.8828,-0.8568,-0.8472,-0.8472,-0.8568,-0.8384,-0.8292,-0.8372,-0.8552,-0.8464,-0.8201,-0.8552,-0.8723,-0.8811,-0.8632,-0.8456,-0.8285,-0.8285,-0.8277,-0.8269,-0.8269,-0.8269,-0.8356,0.0,0.0,0.0,0.0,0.0,0.0,0.0,0.0,0.0,0.0,0.0,0.0,0.0,0.0,2.2832,2.2346,2.1042,2.0067,1.9565,1.9105,1.8684,1.8223,1.8054,1.7589,1.683,1.7134,1.7035,1.6514,1.6714,1.6591,1.6087,1.5904,1.572,1.5488,1.5409,1.5358,1.5377,1.5463,1.5529,1.5554,1.5322,1.5046,1.4754,1.4221,1.3982,1.3807,1.3375,1.2862,1.2378,1.1409,1.0513,0.9695,0.9008,0.8327,0.765,0.7026,0.6251,0.547,0.4693,0.3759,0.2744,0.1884,0.0942,-0.0,-0.0707,-0.1335,-0.1883,-0.2431,-0.2431,-0.2666,-0.3526,-0.3995,-0.4794,-0.6139,-0.7086,-0.7808,-0.8259,-0.8738,-0.8901,-0.8645,-0.8611,-0.8644,-0.8644,-0.8819,-0.899,-0.9253,-0.9428,-0.951,-0.951,-0.9248,-0.9078,-0.8819,-0.8644,-0.8472,-0.8388,-0.8204,-0.8204,-0.8388,-0.8032,-0.7852,-0.7845,-0.7845,-0.7669,-0.7408,-0.7319,-0.7584,-0.794,-0.776,-0.7588,-0.7411,-0.7408,-0.7312,-0.7305,-0.7305,-0.7305,-0.7221,0.0,0.0,0.0,0.0,0.0,0.0,0.0,0.0,0.0,2.5422,0.0,0.0,0.0,0.0,0.0,2.1746,2.0871,2.0258,1.985,1.9356,1.904,1.904,1.8786,1.8476,1.8139,1.8162,1.7888,1.7334,1.7334,1.6998,1.6431,1.6181,1.5961,1.5712,1.6009,1.6135,1.6103,1.593,1.611,1.6485,1.5983,1.5758,1.5689,1.5146,1.4821,1.4569,1.4274,1.3622,1.2826,1.2003,1.1037,1.0067,0.9231,0.8475,0.7727,0.7338,0.671,0.6089,0.0,0.0,0.0,0.2744,0.196,0.1097,0.0235,-0.0471,-0.1178,-0.2275,-0.2353,-0.243,-0.329,-0.3759,-0.4535,-0.5931,-0.6838,-0.7509,-0.7756,-0.8222,-0.845,-0.7951,-0.8095,-0.8193,-0.8197,-0.8197,-0.8288,-0.8548,-0.8548,-0.8548,-0.8548,-0.8285,-0.8113,-0.7852,-0.7852,-0.7852,-0.7852,-0.7856,-0.7856,-0.7852,-0.7856,-0.7584,-0.7051,-0.7051,-0.6786,-0.6343,-0.6343,-0.6789,-0.7415,-0.6972,-0.6795,-0.6704,-0.652,-0.634,-0.6343,-0.6343,-0.6257,-0.6083,0.0,0.0,0.0,0.0,0.0,0.0,2.6708,2.6279,2.5721,0.0,0.0,0.0,2.4261,2.3814,2.3128,2.2189,2.1431,2.0795,2.0409,1.9952,1.9656,1.946,1.9629,1.9396,1.8637,1.8881,1.8605,1.7744,1.7534,1.7211,1.6705,1.6353,1.6239,1.6267,1.6257,1.654,1.7021,1.6957,1.7025,1.7161,1.6853,1.6692,1.6528,1.5817,1.5396,1.5213,1.4617,1.4114,1.3615,1.2813,1.1929,1.0812,0.9301,0.8403,0.7876,0.7338,0.6945,0.6553,0.5938,0.0,0.0,0.0,0.0,0.0,0.0784,-0.0157,-0.1178,-0.204,-0.2196,-0.243,-0.329,-0.3682,-0.4226,-0.5157,-0.6287,-0.7187,-0.7513,-0.7947,-0.8138,-0.7758,-0.7729,-0.7628,-0.7394,-0.758,-0.7753,-0.7841,-0.7925,-0.8009,-0.8009,-0.7841,-0.758,-0.7319,-0.7136,-0.7136,-0.7136,-0.6789,-0.6789,-0.7136,-0.6605,-0.6428,-0.6609,-0.608,-0.5813,-0.5636,-0.5636,-0.5813,-0.5994,-0.6346,-0.6343,-0.5988,-0.5897,-0.5719,-0.5364,-0.5364,-0.528,-0.5104,0.0,0.0,0.0,0.0,0.0,0.0,2.6674,2.6279,2.577,0.0,0.0,0.0,2.4893,2.4388,2.3941,2.3598,2.2887,2.2314,2.1827,2.138,2.1017,2.0754,2.0815,2.0581,1.9988,1.9842,1.9392,1.8591,1.8164,1.779,1.7427,1.7198,1.7153,1.7276,1.7205,1.7329,1.7645,1.7757,1.7713,1.7666,1.7483,1.7314,1.7116,1.6482,1.6123,1.5912,1.5401,1.4974,1.4482,1.3768,1.2512,1.1037,0.9533,0.8708,0.825,0.7718,0.7407,0.7019,0.656,0.5938,0.5237,0.4462,0.0,0.0,0.141,0.0392,-0.0628,-0.1569,-0.1962,-0.2276,-0.2979,-0.3372,-0.3763,-0.4384,-0.5218,-0.5975,-0.6691,-0.7228,-0.7449,-0.7054,-0.7098,-0.7039,-0.6783,-0.6841,-0.6874,-0.6874,-0.6868,-0.6779,-0.6599,-0.6514,-0.6425,-0.6251,-0.6074,-0.6071,-0.6071,-0.5811,-0.5811,-0.6071,-0.563,-0.5542,-0.5716,-0.5188,-0.4924,-0.4743,-0.4743,-0.4743,-0.4832,-0.5277,-0.5453,-0.5364,-0.5186,-0.4919,-0.4563,-0.4472,-0.4387,-0.4304,0.0,0.0,0.0,2.776,2.743,2.7053,2.6573,2.6293,2.6032,0.0,2.581,2.5892,2.6138,2.5598,2.5228,2.5384,2.4776,2.4184,2.3654,2.3134,2.2764,2.2524,2.2224,2.1963,2.1746,2.0999,2.0355,1.9841,1.9221,1.8794,1.8611,1.8427,1.8412,1.843,1.8459,1.8274,1.8031,1.8235,1.8202,1.8008,1.7784,1.7647,1.7461,1.7116,1.683,1.6682,1.6342,1.5991,1.5497,1.4625,1.2945,1.1105,1.0067,0.9311,0.8703,0.8327,0.7944,0.7561,0.7334,0.6637,0.586,0.5237,0.4226,0.0,0.2037,0.102,0.0079,-0.1021,-0.1572,-0.2043,-0.2669,-0.2904,-0.3217,-0.3684,-0.3915,-0.4457,-0.5628,-0.628,-0.6447,-0.6157,-0.6296,-0.6367,-0.6218,-0.6078,-0.5974,-0.5974,-0.5542,-0.5191,-0.4921,-0.4921,-0.4921,-0.4921,-0.4919,-0.483,-0.4832,-0.483,-0.483,-0.483,-0.4741,-0.4652,-0.4561,-0.4208,-0.3941,-0.376,-0.376,-0.376,-0.376,-0.403,-0.4476,-0.4832,-0.4478,-0.403,-0.3669,-0.34,-0.3403,-0.3497,0.0,0.0,2.8025,2.776,2.7369,2.6989,2.6624,2.6759,2.6787,2.6574,2.692,2.7203,2.715,2.6671,2.6238,2.591,2.5319,2.4742,2.4312,2.3909,2.3589,2.3434,2.3581,2.3406,2.2831,2.262,2.2125,2.1348,2.0859,2.0354,1.9831,1.9552,1.9411,1.9401,1.8987,1.8847,1.8874,1.8576,1.8414,1.8202,1.7852,1.7706,1.7647,1.7461,1.7332,1.7323,1.7097,1.6751,1.6184,1.4768,1.3382,1.2131,1.1105,1.0143,0.9311,0.8932,0.8551,0.8169,0.7787,0.7173,0.6475,0.5699,0.4616,0.0,0.2588,0.1491,0.0393,-0.0707,-0.1335,-0.1886,-0.2433,-0.2589,-0.2746,-0.3139,-0.337,-0.3837,-0.4776,-0.5182,-0.539,-0.5416,-0.5554,-0.5709,-0.5563,-0.5424,-0.5407,-0.5407,-0.5056,-0.4748,-0.4476,-0.4476,-0.4476,-0.4476,-0.4206,-0.403,-0.3855,-0.3674,-0.3583,-0.3583,-0.3403,-0.3403,-0.3494,-0.305,-0.2781,-0.2781,-0.2781,-0.2781,-0.2781,-0.3317,-0.3674,-0.3944,-0.4216,-0.3585,-0.2506,-0.1969,-0.161,-0.1342,2.8458,2.8255,2.8035,2.776,2.773,2.7636,2.7301,2.7554,2.7717,2.748,2.7567,2.7702,2.7955,2.7628,2.7357,2.7334,2.6894,2.6475,2.5994,2.5596,2.534,2.5095,2.5019,2.4832,2.4528,2.3919,2.3332,2.2766,2.1929,2.1437,2.1122,2.0736,2.06,2.0654,2.0139,1.976,1.9584,1.9121,1.8731,1.8539,1.8066,1.7862,1.7862,1.7803,1.7745,1.7735,1.751,1.7088,1.6394,1.5196,1.4034,1.3011,1.1996,1.1111,1.0218,0.976,0.9231,0.8775,0.8241,0.7633,0.7019,0.6247,0.5237,0.0,0.0,0.2196,0.1099,0.0079,-0.0628,-0.1257,-0.1805,-0.212,-0.2357,-0.2592,-0.2746,-0.2978,-0.3526,-0.4151,-0.4641,-0.4933,-0.5076,-0.5216,-0.5273,-0.5053,-0.4801,-0.442,-0.4251,-0.4034,-0.3587,-0.3587,-0.3587,-0.3587,-0.3317,-0.3138,-0.3051,-0.2781,-0.269,-0.269,-0.2601,-0.2601,-0.269,-0.2333,-0.2154,-0.2154,-0.1885,-0.1705,-0.1525,-0.1882,-0.1882,-0.1882,-0.242,-0.2061,-0.0985,-0.0358,0.009,0.0358,2.8797,2.8703,2.862,2.8259,2.8467,2.8592,2.8237,2.8527,2.8743,2.8533,2.8266,2.8269,2.8807,2.861,2.8505,2.8779,2.8494,2.8073,2.7604,2.7276,2.7004,2.6759,2.6404,2.619,2.619,2.5173,2.4491,2.4122,2.3105,2.2549,2.2435,2.2002,2.1813,2.1839,2.1273,2.0752,2.0226,1.9759,1.932,1.8942,1.8472,1.8212,1.8076,1.8076,1.8076,1.8008,1.7784,1.7295,1.6603,1.5692,1.476,1.3745,1.2886,1.2077,1.1186,1.0588,0.9986,0.9301,0.8703,0.8097,0.7484,0.6872,0.5938,0.4927,0.0,0.0,0.0,0.0942,0.0392,-0.0235,-0.0943,-0.1415,-0.1729,-0.1887,-0.1962,-0.2118,-0.2353,-0.3215,-0.3919,-0.4387,-0.4622,-0.4756,-0.4911,-0.469,-0.4219,-0.3466,-0.3442,-0.3304,-0.2963,-0.2875,-0.2875,-0.2875,-0.2604,-0.2513,-0.2424,-0.2243,-0.2064,-0.2064,-0.2064,-0.2064,-0.2064,-0.1705,-0.1525,-0.1525,-0.0987,-0.0538,-0.0179,-0.0269,-0.0,0.0358,-0.0359,-0.0179,0.0448,0.1345,0.1704,0.1972,3.002,3.0251,3.0474,3.0064,2.9857,2.9619,2.9265,2.9561,2.9839,2.9946,2.9917,2.9864,2.9772,2.9613,2.9406,2.9074,2.8795,2.8463,2.8137,2.7929,2.775,2.775,2.7464,2.7312,2.7312,2.6634,2.6062,2.5751,2.5149,2.4493,2.3755,2.3285,2.2857,2.2457,2.1901,2.1388,2.0933,2.0484,1.9977,1.9473,1.9407,1.9008,1.8414,1.8337,1.8269,1.8202,1.7842,1.7432,1.7028,1.6412,1.5551,1.4689,1.4049,1.3105,1.2077,1.1409,1.0588,0.969,0.9079,0.8475,0.7872,0.7257,0.6325,0.5312,0.4538,0.0,0.2511,0.1647,0.0,0.1098,0.0079,0.0,0.0,-0.1257,-0.1414,-0.157,-0.204,-0.2273,-0.2665,-0.3446,-0.3771,-0.3936,-0.3936,-0.3778,-0.3568,-0.3202,-0.3132,-0.3077,-0.2872,-0.2875,-0.2875,-0.2875,-0.2604,-0.2424,-0.2243,-0.1974,-0.1705,-0.1525,-0.1525,-0.1525,-0.1436,-0.0987,-0.0628,-0.0179,0.0269,0.0628,0.0897,0.1075,0.1432,0.188,0.1076,0.1076,0.1794,0.3048,0.3585,0.3669,3.1029,3.0883,3.0828,3.0463,3.0515,3.0522,3.0249,3.0398,3.0589,3.0526,3.0468,3.0316,3.0205,2.9989,2.977,2.9486,2.9198,2.8904,2.8637,2.8527,2.8448,2.8352,2.8094,2.7947,2.7947,2.7399,2.6953,2.6625,2.5972,2.537,2.4824,2.4079,2.3505,2.316,2.2506,2.1951,2.1565,2.1135,2.0752,2.0313,2.0248,1.9987,1.966,1.9121,1.8664,1.8405,1.8134,1.7784,1.7373,1.683,1.6123,1.5471,1.4911,1.4122,1.3251,1.2652,1.17,1.0812,1.0062,0.9311,0.8637,0.8021,0.7169,0.6314,0.5464,0.4616,0.3682,0.282,0.0,0.0,0.0,0.0,0.0,0.0,-0.0236,-0.0707,-0.1256,-0.157,-0.2041,-0.2981,-0.3137,-0.3215,-0.3215,-0.3363,-0.3273,-0.2838,-0.2995,-0.3051,-0.282,-0.2856,-0.2873,-0.2694,-0.2424,-0.2243,-0.1974,-0.1705,-0.1525,-0.1436,-0.1436,-0.1256,-0.0897,-0.0269,0.0269,0.0807,0.1344,0.1972,0.269,0.2776,0.3042,0.3401,0.3312,0.3223,0.3135,0.4119,0.4654,0.5008,3.2256,3.1908,3.159,3.1255,3.1384,3.1427,3.1202,3.1199,3.1179,3.0965,3.0821,3.0675,3.0485,3.0316,3.0119,2.9858,2.9621,2.9396,2.9152,2.9059,2.9013,2.8935,2.8701,2.8591,2.8591,2.811,2.7765,2.7464,2.682,2.6279,2.5769,2.4924,2.4297,2.3975,2.322,2.2677,2.231,2.1889,2.1514,2.1198,2.1083,2.0955,2.0764,1.9835,1.9121,1.8664,1.8472,1.8192,1.7842,1.7304,1.6751,1.6254,1.57,1.5054,1.433,1.3665,1.2865,1.1916,1.1174,1.0432,0.976,0.9226,0.8385,0.754,0.6696,0.5851,0.4927,0.4068,0.3604,0.0,0.0,0.0,0.2038,0.1804,0.0,0.0471,0.0157,-0.0314,-0.1099,-0.2434,-0.2591,-0.2591,-0.2591,-0.2789,-0.2825,-0.2602,-0.278,-0.2935,-0.2869,-0.2841,-0.2784,-0.2604,-0.2334,-0.2064,-0.1885,-0.1436,-0.1076,-0.0987,-0.0987,-0.0628,-0.009,0.0538,0.1256,0.2062,0.2418,0.3135,0.4036,0.4297,0.4563,0.4921,0.5453,0.5447,0.5176,0.5447,0.5894,0.6337,3.3949,3.3688,3.34,3.2996,3.2699,3.2437,3.2109,3.193,3.1748,3.1334,3.1295,3.1117,3.0733,3.0692,3.0526,3.0189,3.006,2.9886,2.9697,2.9563,2.9473,2.9473,2.935,2.9259,2.9259,2.9013,2.8716,2.8463,2.8046,2.75,2.6849,2.6065,2.5481,2.4894,2.415,2.3636,2.3292,2.2823,2.2384,2.2051,2.2111,2.1925,2.1526,2.0291,1.9573,1.9243,1.8865,1.8664,1.8375,1.7842,1.7432,1.7028,1.6482,1.5903,1.5321,1.4522,1.3723,1.2931,1.2418,1.1822,1.123,1.0858,0.9965,0.8993,0.8232,0.7234,0.6234,0.5384,0.4927,0.4467,0.3841,0.3526,0.321,0.2896,0.2429,0.0,0.0,0.1724,0.047,-0.165,-0.1965,-0.1965,-0.1965,-0.1967,-0.2066,-0.244,-0.2495,-0.2636,-0.2867,-0.2931,-0.2875,-0.2875,-0.2424,-0.2154,-0.2154,-0.1076,-0.0359,-0.0,0.0179,0.0538,0.0987,0.1525,0.2511,0.3767,0.3851,0.4119,0.4748,0.5366,0.5897,0.6428,0.7136,0.7834,0.8261,0.7383,0.7302,0.783,3.4074,3.3895,3.3615,3.319,3.2862,3.2588,3.2301,3.2144,3.2002,3.1748,3.1562,3.1389,3.1117,3.0975,3.0814,3.0617,3.0384,3.0248,3.0162,3.0033,2.9973,2.9973,2.9842,2.9754,2.9754,2.9499,2.9273,2.9013,2.9042,2.8801,2.821,2.7954,2.7483,2.6816,2.6117,2.5535,2.4987,2.4307,2.3849,2.3665,2.3492,2.3119,2.2516,2.0941,2.0172,1.9966,1.966,1.9407,1.9198,1.8731,1.8385,1.7969,1.7432,1.6872,1.6306,1.5799,1.5084,1.4442,1.4099,1.3368,1.2631,1.2391,1.1588,1.0708,1.0034,0.9125,0.8134,0.7294,0.6842,0.6388,0.5693,0.5381,0.5068,0.4606,0.4217,0.3906,0.0,0.337,0.2978,0.1958,0.0628,-0.0236,-0.0236,-0.0471,-0.0709,-0.0874,-0.1152,-0.1349,-0.1444,-0.1408,-0.1346,-0.1256,-0.1076,-0.0807,-0.0448,-0.009,0.0448,0.0897,0.1705,0.2333,0.2869,0.3496,0.4032,0.4385,0.4919,0.5453,0.616,0.6776,0.7482,0.8097,0.8794,0.9405,0.984,0.9052,0.9144,0.9845,3.4197,3.4049,3.3815,3.3397,3.305,3.2784,3.2588,3.2521,3.2403,3.2179,3.202,3.1839,3.1617,3.1466,3.1295,3.1145,3.0885,3.0757,3.0634,3.0485,3.0359,3.0316,3.0231,3.0303,3.0549,3.0402,3.0356,3.0406,3.0402,3.0172,2.9638,2.9387,2.8928,2.8254,2.7619,2.7042,2.6472,2.5747,2.5419,2.5236,2.4743,2.4306,2.3838,2.2438,2.1728,2.1413,2.103,2.0831,2.0698,2.0342,1.9822,1.9303,1.8922,1.8389,1.7877,1.76,1.7062,1.6527,1.6111,1.5444,1.4773,1.4486,1.3807,1.3049,1.235,1.1421,1.0483,0.9637,0.9025,0.8424,0.7821,0.7439,0.7061,0.6458,0.615,0.5607,0.0,0.4924,0.4929,0.4462,0.2665,0.1492,0.1492,0.1256,0.102,0.0863,0.0569,0.05,0.0588,0.0609,0.0623,0.0806,0.0806,0.0896,0.1254,0.1434,0.1792,0.2241,0.296,0.3587,0.4212,0.4924,0.5366,0.5447,0.6157,0.6776,0.7478,0.8265,0.8969,0.9763,1.0448,1.1139,1.1483,1.0702,1.1047,1.2003,3.434,3.4269,3.4117,3.3753,3.3375,3.3117,3.3055,3.3006,3.2912,3.2672,3.2557,3.2422,3.2144,3.2108,3.202,3.1768,3.1565,3.1376,3.1162,3.0902,3.0692,3.0601,3.0618,3.0949,3.1705,3.1722,3.194,3.2426,3.2089,3.1614,3.109,3.0458,2.9825,2.9197,2.8668,2.8167,2.7687,2.7184,2.6856,2.6587,2.5998,2.5649,2.5459,2.4703,2.4062,2.3463,2.3012,2.2865,2.2798,2.2412,2.1688,2.0994,2.0898,2.0401,1.9872,1.9788,1.9466,1.9005,1.8385,1.7979,1.7593,1.6989,1.6559,1.5961,1.5032,1.4179,1.3315,1.2338,1.1458,1.0713,1.0124,0.9541,0.903,0.8599,0.7995,0.7383,0.6692,0.6458,0.615,0.5774,0.4304,0.3295,0.3141,0.3141,0.2982,0.2589,0.2567,0.2628,0.2941,0.2922,0.2897,0.2955,0.2957,0.2957,0.2957,0.3227,0.3496,0.3857,0.3941,0.4385,0.5188,0.5891,0.6511,0.6953,0.7658,0.8177,0.8694,0.9657,1.0448,1.1241,1.2095,1.2863,1.3451,1.2498,1.3014,1.4307,3.4604,3.4473,3.4455,3.4851,3.4165,3.3502,3.3404,3.3375,3.3268,3.2943,3.2816,3.2669,3.2506,3.2386,3.23,3.2248,3.1986,3.1806,3.177,3.1528,3.1594,3.21,3.2111,3.2445,3.3209,3.3143,3.306,3.3064,3.3197,3.3027,3.2514,3.2435,3.2021,3.1278,3.0728,3.0163,2.9554,2.8905,2.8245,2.7661,2.7657,2.7406,2.6996,2.687,2.6631,2.6197,2.4268,2.3525,2.3525,2.3325,2.2884,2.2388,2.2161,2.1658,2.1198,2.1005,2.0684,2.0298,1.9971,1.9665,1.9354,1.9164,1.8759,1.8266,1.799,1.7053,1.6076,1.5516,1.4649,1.369,1.2818,1.2324,1.1691,1.0622,0.9513,0.8756,0.8367,0.8067,0.7685,0.7302,0.6689,0.5767,0.4229,0.3763,0.3528,0.3214,0.3044,0.3117,0.3273,0.3262,0.3332,0.3398,0.3401,0.3491,0.3671,0.3941,0.4387,0.5008,0.5359,0.598,0.6868,0.7562,0.8261,0.8882,0.9401,1.0009,1.0621,1.1214,1.1992,1.2857,1.3542,1.4475,1.5318,1.4713,1.4887,1.5394,3.5912,3.5826,3.5784,3.6138,3.5572,3.5016,3.4806,3.4778,3.4673,3.4401,3.4243,3.4168,3.406,3.3978,3.3928,3.3928,3.3713,3.3578,3.351,3.3248,3.326,3.3604,3.3564,3.3831,3.457,3.4467,3.4477,3.4525,3.4494,3.422,3.3762,3.3705,3.3298,3.2648,3.2114,3.1549,3.097,3.0279,2.9681,2.9246,2.9309,2.9073,0.0,2.8434,2.8247,2.7841,2.6204,2.5394,2.5031,2.4896,2.4401,2.3851,2.3779,2.3294,2.2833,2.2874,2.2577,2.2248,2.1909,2.165,2.1396,2.1185,2.1031,2.0793,2.0576,1.995,1.9211,1.8385,1.7567,1.6657,1.5432,1.4711,1.3886,1.2325,1.1527,1.0926,1.0622,1.0461,1.0082,0.9567,0.9336,0.8576,0.6981,0.5687,0.4844,0.453,0.443,0.435,0.4294,0.4391,0.4486,0.4583,0.4628,0.4828,0.5181,0.5447,0.5888,0.6593,0.7119,0.7822,0.8707,0.9314,1.0009,1.0707,1.1139,1.174,1.2431,1.2851,1.3529,1.4378,1.5379,1.6288,1.7041,1.7107,1.687,1.6714,3.7506,3.7471,3.7348,3.7392,3.723,3.7026,3.6823,3.6574,3.6362,3.6164,3.6076,3.6035,3.5945,3.5945,3.5945,3.5945,3.5774,3.5643,3.5598,3.5287,3.5118,3.5084,3.4995,3.5257,3.5864,3.5801,3.5896,3.6224,3.5776,3.5328,3.4911,3.4464,3.4052,3.3598,3.313,3.261,3.2003,3.1407,3.1131,3.1058,3.0822,3.051,3.0194,2.969,2.9331,2.898,2.839,2.7617,2.6782,2.6564,2.5921,2.5227,2.539,2.5069,2.4584,2.4803,2.4647,2.4339,2.3921,2.3689,2.3481,2.3116,2.3223,2.3391,2.2883,2.2726,2.2295,2.1158,2.04,1.9499,1.8095,1.6954,1.5677,1.414,1.3723,1.3506,1.3135,1.3179,1.2954,1.2311,1.2004,0.0,1.0525,0.8277,0.6692,0.623,0.623,0.6155,0.5851,0.5964,0.6095,0.6251,0.6373,0.6697,0.7041,0.7298,0.7826,0.844,0.9043,0.974,1.0616,1.1058,1.1671,1.2357,1.2784,1.3379,1.3957,1.4475,1.5061,1.5884,1.7188,1.8069,1.8621,1.9283,1.8966,1.8327,3.7827,3.7696,3.7718,3.826,3.8241,3.83,3.8801,3.7567,3.65,3.6362,3.6333,3.6305,3.6219,3.6219,3.6219,3.6219,3.6095,3.5999,3.5999,3.5836,3.5983,3.6598,3.6507,3.6734,3.7399,3.718,3.697,3.6741,3.6468,3.6114,3.5671,3.5328,3.4941,3.4528,3.4037,3.3427,3.2772,3.2312,3.2256,3.2407,3.2048,3.1751,3.1477,3.0896,3.0495,3.0147,2.9532,2.8597,2.7577,2.7255,2.6921,2.6574,2.6471,2.6158,2.5901,2.5906,2.5791,2.5557,2.5308,2.5216,2.5181,2.5085,2.5133,2.5169,2.5296,2.4876,2.4378,2.4118,2.3077,2.1832,2.0875,1.8843,1.7123,1.6573,1.6009,1.5651,1.5573,1.5547,1.5382,1.4977,1.4632,1.4134,1.3273,1.0502,0.8595,0.7995,0.7995,0.7918,0.778,0.7823,0.7903,0.8047,0.8261,0.8452,0.854,0.9139,0.9575,0.9918,1.0778,1.1386,1.2003,1.2687,1.3366,1.3971,1.423,1.4727,1.5394,1.5665,1.6468,1.7674,1.8798,1.9502,1.9963,2.0595,2.0904,2.0981,3.9296,3.9169,3.9126,3.9393,3.9326,3.9286,3.9519,3.8752,3.8115,3.7968,3.7941,3.7941,3.7914,3.784,3.7794,3.7794,3.7681,3.7606,3.7606,3.7477,3.7552,3.7918,3.7831,3.7885,3.815,3.7913,3.7614,3.7377,3.7013,3.6655,3.635,3.595,3.5599,3.5283,3.4592,3.402,3.3543,3.3208,3.3102,3.3156,3.2904,3.2602,3.2336,3.1946,3.1564,3.1043,3.051,2.9827,2.9093,2.8222,2.7709,2.751,2.7377,2.7242,2.7095,2.7095,2.7027,2.6879,2.6744,2.6663,2.6595,2.6595,2.6663,2.6744,2.6879,2.6675,2.6406,2.6047,2.5329,2.4275,2.2767,2.1167,1.9856,1.9117,1.8594,1.8251,1.8138,1.8185,1.8041,1.7523,1.7262,1.6716,1.5748,1.4103,1.2244,1.0381,0.9948,0.9653,0.9363,0.9171,0.9206,0.9505,0.9784,1.0183,1.0697,1.1214,1.1724,1.2242,1.2753,1.3275,1.3717,1.4139,1.465,1.5325,1.5409,1.5899,1.6796,1.7602,1.8399,1.9256,2.0216,2.0981,2.1507,2.1907,2.2446,2.2745,4.066,4.0539,4.0408,4.0272,4.0138,3.9977,3.981,3.9721,3.9623,3.9432,3.9425,3.9425,3.9425,3.9309,3.9237,3.9237,3.9147,3.9082,3.9082,3.8997,3.8939,3.8939,3.884,3.8732,3.8634,3.8332,3.8083,3.7895,3.7487,3.7167,3.6935,3.6516,3.6156,3.5871,3.5144,3.469,3.4431,3.4084,3.3899,3.3797,3.3555,3.3314,3.3018,3.2819,3.2422,3.1905,3.145,3.1043,3.0569,2.9518,2.8789,2.8352,2.8338,2.8338,2.8338,2.8338,2.8208,2.8157,2.8157,2.8065,2.792,2.792,2.8065,2.8157,2.8157,2.8222,2.8153,2.7618,2.7277,2.6496,2.4553,2.3704,2.2943,2.1788,2.1381,2.1095,2.0762,2.0825,2.071,2.0136,1.9814,1.9293,1.8235,1.7639,1.6173,1.3489,1.2432,1.1652,1.1074,1.0867,1.0953,1.1277,1.1629,1.2231,1.2996,1.3503,1.4015,1.4615,1.4796,1.5151,1.5499,1.5575,1.5906,1.6492,1.6566,1.7212,1.8247,1.952,2.0216,2.0663,2.1527,2.2295,2.2968,2.3276,2.3655,2.4032,4.0769,4.0673,4.0543,4.0389,4.0269,4.0139,4.0081,4.0002,3.9857,3.9532,3.9502,3.9502,3.9502,3.9427,3.9376,3.9376,3.938,3.9346,3.9346,3.9346,3.9346,3.9346,3.9147,3.9017,3.896,3.8676,3.841,3.815,3.8,3.7774,3.7503,3.7185,3.6736,3.6259,3.5854,3.5588,3.5436,3.4911,3.4706,3.4756,3.425,3.3949,3.3745,3.3398,3.2996,3.268,3.2382,3.1977,3.1564,3.1291,3.0524,2.9608,2.9393,2.938,2.938,2.938,2.9317,2.9317,2.9317,2.9317,2.9317,2.9317,2.9317,2.9317,2.9317,2.9317,2.9366,2.9247,2.8711,2.795,2.7065,2.6557,2.5848,2.4833,2.4588,2.4193,2.3454,2.339,2.3272,2.294,2.2493,2.182,2.1032,2.0245,1.9249,1.7929,1.5707,1.4162,1.3393,1.3567,1.3701,1.4058,1.4434,1.4851,1.5411,1.5996,1.6413,1.6413,1.669,1.6788,1.6796,1.7033,1.744,1.7836,1.8238,1.8868,1.9747,2.0837,2.1461,2.1756,2.2756,2.3372,2.3886,2.436,2.4719,2.4945,4.0859,4.0776,4.0694,4.0602,4.0496,4.0422,4.0356,4.0286,4.0177,4.0001,3.9878,3.9791,3.9785,3.9739,3.967,3.9647,3.9594,3.9588,3.9588,3.9539,3.9514,3.9514,3.9369,3.929,3.9245,3.897,3.8796,3.8658,3.8364,3.8119,3.788,3.7559,3.7069,3.6468,3.6409,3.6224,3.5881,3.5688,3.5436,3.5148,3.4802,3.4431,3.4101,3.3848,3.3539,3.3208,3.3011,3.2726,3.2477,3.2312,3.1507,3.0539,3.0464,3.0389,3.0389,3.0389,3.0389,3.0389,3.0389,3.0389,3.0389,3.0389,3.0389,3.0389,3.0389,3.0389,3.0389,3.0389,3.0232,2.9944,2.9432,2.9073,2.8541,2.7641,2.7243,2.69,2.6362,2.613,2.5864,2.5468,2.5061,2.4512,2.364,2.3043,2.2178,2.0928,1.8203,1.6275,1.5602,1.5497,1.5667,1.6152,1.6569,1.7041,1.7751,1.8169,1.8426,1.8426,1.8372,1.831,1.8238,1.847,1.8859,1.9562,2.0187,2.0653,2.1048,2.2145,2.2745,2.3106,2.3852,2.4443,2.4969,2.5324,2.5594,2.5931,4.094,4.0885,4.0811,4.0765,4.0706,4.0642,4.0593,4.0554,4.0489,4.0441,4.0302,4.0177,4.0059,3.9998,3.9937,3.9895,3.981,3.9788,3.9788,3.9743,3.9717,3.9735,3.9575,3.9502,3.9452,3.9219,3.9101,3.9045,3.8725,3.846,3.8234,3.7827,3.7356,3.6834,3.6856,3.6696,3.6367,3.6284,3.6028,3.5633,3.5345,3.4991,3.4529,3.4399,3.4101,3.3694,3.3658,3.3435,3.3245,3.314,3.2516,3.1694,3.158,3.1522,3.1522,3.1522,3.1522,3.1522,3.1522,3.1522,3.1522,3.1522,3.1522,3.1522,3.1522,3.1522,3.1522,3.1522,3.1637,3.1641,3.1433,3.1232,3.084,3.0036,2.966,2.9271,2.8788,2.8467,2.8126,2.768,2.7343,2.6808,2.6052,2.5418,2.4644,2.3394,2.113,1.9219,1.8024,1.787,1.804,1.847,1.8797,1.9349,2.013,2.0236,2.0333,2.0343,2.0041,1.9894,1.9737,2.0041,2.0575,2.1278,2.1962,2.2349,2.2489,2.3338,2.3936,2.436,2.4874,2.537,2.5886,2.6107,2.6427,2.6688,4.1008,4.0935,4.0906,4.0897,4.084,4.0798,4.08,4.0788,4.0769,4.0694,4.0694,4.0569,4.0233,4.0139,4.0101,4.0101,4.0042,4.0002,4.0002,4.0002,4.0001,3.9996,3.987,3.9717,3.9599,3.9452,3.9298,3.9101,3.9017,3.8873,3.8585,3.805,3.765,3.7374,3.7185,3.7069,3.697,3.6713,3.6468,3.6259,3.5898,3.5543,3.5178,3.4977,3.4643,3.43,3.43,3.4101,3.3899,3.3899,3.3694,3.3382,3.2911,3.2788,3.2788,3.2788,3.2788,3.2788,3.2788,3.2788,3.2788,3.2788,3.2788,3.2788,3.2788,3.2788,3.2788,3.2788,3.2857,3.298,3.2964,3.2964,3.2761,3.1982,3.1721,3.1285,3.0464,3.0164,2.9849,2.9597,2.9148,2.8635,2.804,2.7415,2.6566,2.5342,2.4872,2.3445,2.0896,2.0858,2.1034,2.1314,2.139,2.1628,2.2253,2.2124,2.2059,2.2059,2.169,2.1461,2.1461,2.2059,2.2596,2.3001,2.3372,2.3801,2.4215,2.4576,2.4933,2.5312,2.5758,2.6094,2.6414,2.6824,2.7095,2.7297,4.1069,4.1055,4.1042,4.1037,4.0987,4.094,4.0929,4.0904,4.0858,4.083,4.0809,4.0742,4.0623,4.0466,4.0356,4.0302,4.0288,4.027,4.027,4.0233,4.0196,4.0196,4.008,3.9979,3.9933,3.9717,3.9551,3.9452,3.9192,3.8884,3.8541,3.8252,3.7967,3.7595,3.7559,3.7392,3.722,3.7147,3.6935,3.6615,3.6409,3.6071,3.5588,3.5333,3.5071,3.4851,3.4739,3.4643,3.4594,3.4594,3.4546,3.4399,3.4168,3.3662,3.3118,3.3118,3.3118,3.3118,3.3118,3.3118,3.3118,3.3118,3.3118,3.3118,3.3118,3.3118,3.3171,3.3261,3.333,3.3382,3.3575,3.3523,3.3407,3.3149,3.2945,3.2641,3.2248,3.1844,3.1503,3.1213,3.0878,3.0495,2.9959,2.9531,2.8914,2.7895,2.7352,2.585,2.2942,2.2889,2.3018,2.3198,2.3356,2.3588,2.3963,2.3829,2.3621,2.3327,2.2905,2.283,2.2957,2.3537,2.3975,2.4371,2.4659,2.4886,2.517,2.5499,2.5918,2.6289,2.6633,2.704,2.7377,2.7577,2.796,2.8338,4.1107,4.1103,4.1097,4.1108,4.1074,4.1042,4.1042,4.1,4.0961,4.0948,4.091,4.0867,4.0878,4.0754,4.0602,4.0519,4.0476,4.0482,4.0482,4.0411,4.0377,4.0379,4.027,4.0196,4.0138,3.9935,3.9758,3.9647,3.9298,3.8989,3.8634,3.8496,3.8238,3.7933,3.7828,3.7649,3.741,3.7392,3.7223,3.6952,3.6794,3.6492,3.6071,3.581,3.5605,3.5379,3.5316,3.527,3.527,3.5241,3.5195,3.5148,3.4994,3.4497,3.3949,3.3813,3.371,3.3658,3.3658,3.3658,3.3607,3.3607,3.3607,3.3607,3.3607,3.3607,3.3591,3.371,3.3761,3.3761,3.3949,3.3899,3.3848,3.3848,3.371,3.3539,3.3419,3.314,3.2873,3.2625,3.2312,3.1977,3.1564,3.1145,3.054,2.9676,2.9052,2.7773,2.5732,2.5232,2.5087,2.5181,2.5193,2.5276,2.5429,2.5087,2.4802,2.4504,2.4227,2.4154,2.4276,2.485,2.5217,2.5441,2.5734,2.5943,2.6151,2.6471,2.6879,2.7242,2.7564,2.796,2.83,2.8546,2.8853,2.9233,4.1112,4.1112,4.111,4.1101,4.1101,4.1116,4.1101,4.1097,4.1074,4.1022,4.1017,4.1019,4.1019,4.0957,4.0849,4.072,4.0646,4.0622,4.0622,4.0539,4.0511,4.0518,4.043,4.036,4.0214,4.008,3.9914,3.9693,3.935,3.912,3.8892,3.8725,3.851,3.8289,3.8038,3.781,3.7613,3.7503,3.7392,3.7334,3.7143,3.6873,3.6615,3.6468,3.6182,3.5977,3.5994,3.595,3.595,3.5854,3.5766,3.5633,3.5412,3.5291,3.5088,3.4643,3.4448,3.4349,3.4349,3.425,3.4151,3.4151,3.4151,3.4151,3.4151,3.4101,3.4101,3.4101,3.4101,3.4101,3.4101,3.4101,3.4101,3.4101,3.4101,3.4101,3.4101,3.4,3.3848,3.371,3.345,3.3171,3.2857,3.2281,3.1649,3.0837,3.0058,2.9393,2.8917,2.7815,2.7162,2.7095,2.6688,2.6564,2.6782,2.6094,2.5676,2.5676,2.5453,2.5382,2.5453,2.6013,2.6289,2.6302,2.6645,2.6905,2.7108,2.7484,2.7815,2.8157,2.8481,2.8817,2.9212,2.956,2.9747,2.9931,4.1172,4.1172,4.1172,4.1171,4.1171,4.1151,4.1107,4.1107,4.1086,4.1082,4.1072,4.1081,4.1078,4.1013,4.0955,4.0937,4.0757,4.0681,4.0673,4.0617,4.0592,4.0577,4.0508,4.046,4.0432,4.0252,3.996,3.9551,3.9413,3.9221,3.8979,3.8862,3.8695,3.8446,3.8318,3.8153,3.7984,3.788,3.7828,3.7739,3.7613,3.7394,3.7188,3.7034,3.6917,3.6799,3.6638,3.6597,3.6557,3.6385,3.6318,3.6216,3.5985,3.5871,3.5667,3.4977,3.4804,3.4739,3.4739,3.4643,3.4546,3.4546,3.4497,3.4399,3.4399,3.4349,3.425,3.425,3.4151,3.4101,3.4101,3.4101,3.4101,3.4101,3.4101,3.4101,3.4101,3.4,3.3848,3.371,3.345,3.324,3.3027,3.2656,3.2185,3.1637,3.1102,3.0615,3.0147,2.947,2.8712,2.7762,2.7696,2.751,2.7323,2.6973,2.6676,2.6471,2.6277,2.6277,2.662,2.7015,2.7297,2.7443,2.7762,2.8026,2.8157,2.856,2.8944,2.9233,2.9435,2.9685,3.0007,3.0222,3.0464,3.0718,4.1191,4.1191,4.1191,4.1191,4.1191,4.1191,4.1152,4.1152,4.1151,4.1151,4.1128,4.1105,4.1103,4.1072,4.1055,4.1057,4.0894,4.0787,4.075,4.0675,4.0626,4.0598,4.0554,4.0543,4.0495,4.0323,4.0021,3.9599,3.9496,3.9335,3.9092,3.9036,3.8873,3.8664,3.8541,3.8396,3.8267,3.8171,3.8122,3.8072,3.7898,3.7756,3.765,3.7523,3.745,3.7394,3.7301,3.7226,3.7206,3.6995,3.6913,3.6811,3.6557,3.6367,3.6174,3.5739,3.5379,3.5118,3.5118,3.5024,3.4851,3.4804,3.4739,3.4691,3.4691,3.4643,3.4546,3.4546,3.4448,3.4349,3.4349,3.425,3.4201,3.4201,3.4151,3.4101,3.4101,3.405,3.3949,3.3899,3.3694,3.3503,3.3398,3.3118,3.2726,3.2272,3.1807,3.1349,3.0999,3.0524,2.9794,2.8853,2.8675,2.8481,2.8287,2.8078,2.7802,2.7511,2.7537,2.7617,2.7815,2.8091,2.8352,2.8481,2.8803,2.898,2.9107,2.9512,2.9808,3.004,3.0237,3.0553,3.0792,3.0955,3.119,3.1321,4.1172,4.1191,4.1191,4.1191,4.1191,4.1191,4.1191,4.1191,4.1191,4.1191,4.1152,4.1112,4.1112,4.1126,4.1101,4.1094,4.0992,4.0902,4.083,4.0757,4.0694,4.0615,4.0598,4.0573,4.0504,4.0358,4.01,3.9739,3.9599,3.9427,3.9237,3.9156,3.9045,3.8921,3.8755,3.8615,3.8541,3.8419,3.8372,3.8354,3.8153,3.8086,3.8086,3.7948,3.7913,3.7913,3.7913,3.7862,3.7792,3.765,3.7504,3.7354,3.7111,3.6878,3.6696,3.6609,3.6131,3.5588,3.5543,3.5396,3.5182,3.5024,3.4994,3.4994,3.4994,3.4977,3.4994,3.4994,3.4835,3.4739,3.4739,3.4546,3.4399,3.4349,3.425,3.4201,3.4151,3.4151,3.4101,3.4101,3.3949,3.3848,3.3694,3.345,3.3134,3.2711,3.2272,3.1879,3.1652,3.119,3.0658,3.0101,2.9685,2.9435,2.9435,2.9107,2.8903,2.8748,2.8903,2.898,2.898,2.9198,2.9324,2.9484,2.9747,2.987,3.0054,3.0372,3.0598,3.0763,3.1073,3.1321,3.1509,3.1724,3.1781,3.1853,4.1112,4.1152,4.1191,4.1191,4.1191,4.1191,4.1191,4.1191,4.1191,4.1191,4.1191,4.1172,4.1172,4.1172,4.1151,4.109,4.1082,4.1035,4.0979,4.0848,4.074,4.0681,4.0635,4.0564,4.0504,4.0304,4.012,3.9954,3.9712,3.9502,3.9369,3.9237,3.9129,3.9073,3.8979,3.8892,3.8833,3.8762,3.8732,3.8732,3.8572,3.8523,3.8491,3.8473,3.8491,3.8491,3.8428,3.8396,3.8332,3.8101,3.8,3.7931,3.765,3.7431,3.7226,3.7069,3.6794,3.6509,3.6259,3.6002,3.58,3.5577,3.5487,3.5487,3.5487,3.5379,3.5333,3.5333,3.5165,3.5041,3.5041,3.4899,3.4756,3.4659,3.4594,3.4546,3.43,3.425,3.425,3.4101,3.3899,3.3694,3.3694,3.345,3.324,3.3043,3.2672,3.2437,3.2287,3.1838,3.1495,3.1437,3.0613,3.0068,3.0007,2.9747,2.9685,2.987,2.9685,2.9747,2.987,3.0068,3.0176,3.0329,3.0658,3.0911,3.1102,3.1394,3.1625,3.1811,3.1966,3.212,3.2231,3.2287,3.2287,3.2287,4.1108,4.1112,4.1152,4.1191,4.1191,4.1191,4.1191,4.1191,4.1191,4.1191,4.1191,4.1191,4.1191,4.1191,4.1191,4.1152,4.1151,4.1125,4.1066,4.0968,4.0857,4.0757,4.0694,4.0607,4.0495,4.0377,4.0252,4.0119,3.9935,3.9758,3.9551,3.9452,3.9324,3.9156,3.9101,3.9073,3.8989,3.8921,3.891,3.891,3.8803,3.8755,3.8755,3.8755,3.8755,3.8773,3.8743,3.8695,3.8634,3.851,3.8415,3.83,3.8168,3.7966,3.7739,3.7613,3.7185,3.6684,3.6485,3.636,3.6233,3.6002,3.5958,3.5958,3.5958,3.5915,3.5854,3.5844,3.5711,3.5577,3.5503,3.5304,3.5118,3.5041,3.4947,3.4851,3.4643,3.4546,3.4448,3.4349,3.4,3.3797,3.371,3.345,3.3256,3.3203,3.292,3.2757,3.2648,3.2247,3.1966,3.1966,3.1306,3.0896,3.0837,3.0763,3.0763,3.0837,3.0763,3.0763,3.0837,3.0896,3.1014,3.1131,3.1321,3.1552,3.1796,3.191,3.212,3.2342,3.2398,3.2523,3.2648,3.2648,3.2648,3.2648,4.1097,4.1105,4.111,4.1171,4.1171,4.1172,4.1172,4.1191,4.1191,4.1191,4.1191,4.1191,4.1191,4.1191,4.1191,4.1191,4.1191,4.1171,4.1103,4.1046,4.0954,4.082,4.073,4.0607,4.0499,4.0447,4.036,4.0252,4.0158,3.9998,3.9762,3.967,3.9477,3.9237,3.921,3.9156,3.9101,3.9064,3.9007,3.9007,3.8979,3.895,3.895,3.895,3.895,3.895,3.895,3.8921,3.8862,3.8833,3.8743,3.8603,3.8572,3.8396,3.8201,3.8068,3.7504,3.6908,3.6748,3.665,3.6609,3.6468,3.6468,3.6468,3.6468,3.6468,3.6444,3.6377,3.6233,3.6088,3.5932,3.5756,3.5577,3.5412,3.5321,3.5228,3.5024,3.493,3.4804,3.4594,3.425,3.3949,3.3797,3.3503,3.3361,3.3361,3.3058,3.2897,3.2951,3.2539,3.2302,3.2302,3.1838,3.161,3.161,3.161,3.161,3.161,3.161,3.161,3.161,3.161,3.1724,3.1838,3.1838,3.2079,3.2373,3.2428,3.2563,3.2765,3.2819,3.2904,3.3112,3.3058,3.3058,3.3058,4.1096,4.1104,4.1099,4.1101,4.1108,4.1112,4.1112,4.1152,4.1191,4.1191,4.1191,4.1191,4.1191,4.1191,4.1191,4.1191,4.1191,4.1172,4.1091,4.1099,4.1028,4.0897,4.0707,4.0573,4.0489,4.0499,4.0466,4.0396,4.027,4.0119,3.9975,3.9785,3.9575,3.9376,3.9264,3.9156,3.9101,3.9101,3.9101,3.9101,3.9073,3.9073,3.9073,3.9073,3.9073,3.9073,3.9073,3.9073,3.9073,3.9007,3.8997,3.895,3.8822,3.8664,3.8523,3.8249,3.7948,3.765,3.7317,3.7164,3.7031,3.697,3.6948,3.6948,3.6948,3.6948,3.6891,3.6771,3.6632,3.6509,3.6301,3.6191,3.6036,3.5817,3.5773,3.5667,3.5379,3.5321,3.5152,3.4899,3.4497,3.4201,3.4101,3.371,3.3503,3.3503,3.3096,3.2951,3.3112,3.2757,3.2594,3.2594,3.215,3.194,3.194,3.194,3.194,3.194,3.194,3.194,3.194,3.194,3.2079,3.2342,3.2342,3.2523,3.2843,3.2989,3.315,3.324,3.3398,3.3503,3.3658,3.3503,3.345,3.345,4.1013,4.1047,4.1051,4.1081,4.1094,4.1103,4.1108,4.1112,4.1152,4.1191,4.1191,4.1191,4.1191,4.1191,4.1191,4.1191,4.1191,4.1171,4.111,4.1101,4.1013,4.0849,4.072,4.0598,4.0504,4.0492,4.0476,4.046,4.0411,4.0307,4.012,3.9998,3.9804,3.9502,3.9376,3.9245,3.9156,3.9129,3.9101,3.9101,3.9101,3.9129,3.9156,3.9156,3.9202,3.9275,3.9275,3.9229,3.9156,3.9129,3.912,3.9045,3.8989,3.8902,3.8815,3.8634,3.8396,3.8201,3.8052,3.7721,3.7449,3.7392,3.7354,3.7354,3.7354,3.7354,3.7317,3.7143,3.6992,3.6873,3.665,3.6502,3.6335,3.6148,3.6079,3.5993,3.58,3.5684,3.5503,3.5241,3.4944,3.461,3.4399,3.4151,3.3949,3.3745,3.3555,3.3398,3.3361,3.3134,3.2973,3.292,3.2773,3.2539,3.2247,3.2247,3.2247,3.2247,3.2247,3.2302,3.2373,3.2373,3.2484,3.2703,3.2812,3.2973,3.3309,3.3398,3.3607,3.3797,3.3848,3.3899,3.3949,3.4,3.4,3.4,4.096,4.096,4.1,4.1061,4.1061,4.1081,4.1099,4.1107,4.1111,4.1152,4.1191,4.1191,4.1191,4.1191,4.1191,4.1191,4.1191,4.1171,4.111,4.1097,4.1022,4.0849,4.0745,4.066,4.0539,4.0504,4.0489,4.0489,4.0495,4.043,4.027,4.0177,3.9977,3.9693,3.9526,3.9376,3.9264,3.921,3.9202,3.9202,3.9202,3.921,3.9264,3.9264,3.9317,3.9432,3.9432,3.9362,3.9264,3.9264,3.9237,3.9202,3.9202,3.912,3.9007,3.891,3.8743,3.8603,3.8541,3.8285,3.7949,3.781,3.7757,3.7757,3.7757,3.7757,3.7703,3.754,3.7429,3.7261,3.6992,3.6811,3.6609,3.6402,3.6318,3.6251,3.6105,3.5993,3.5861,3.5605,3.5362,3.5085,3.4818,3.4578,3.4382,3.4184,3.3933,3.3745,3.3642,3.3555,3.345,3.3346,3.3256,3.3081,3.2726,3.2563,3.2523,3.2578,3.2523,3.2578,3.2757,3.2757,3.292,3.315,3.3309,3.3503,3.3745,3.3899,3.4101,3.43,3.43,3.4349,3.4448,3.4497,3.4578,3.4626,4.0907,4.0888,4.0913,4.0988,4.1007,4.1028,4.109,4.1097,4.1108,4.1091,4.1152,4.1191,4.1191,4.1191,4.1191,4.1191,4.1191,4.1172,4.1092,4.1104,4.1033,4.0917,4.0769,4.066,4.0607,4.0539,4.0489,4.0489,4.0489,4.0476,4.0396,4.0251,4.01,3.9892,3.9693,3.9526,3.9401,3.938,3.9418,3.9418,3.9418,3.9406,3.9401,3.9401,3.9452,3.9483,3.9483,3.9452,3.9401,3.9401,3.9388,3.9418,3.9391,3.9275,3.9073,3.9007,3.895,3.8881,3.8822,3.875,3.8596,3.8201,3.8101,3.8101,3.8101,3.8101,3.8068,3.8018,3.7951,3.7775,3.7301,3.7167,3.6992,3.6568,3.6502,3.6444,3.6301,3.6233,3.6165,3.6019,3.5756,3.556,3.5424,3.5021,3.4833,3.4816,3.4366,3.405,3.3899,3.3899,3.3899,3.3899,3.3658,3.3503,3.3503,3.2904,3.2718,3.2897,3.2703,3.2757,3.3112,3.3112,3.3361,3.3694,3.3848,3.405,3.43,3.4448,3.4594,3.4707,3.4707,3.4899,3.5088,3.5105,3.5165,3.5224,4.0823,4.0837,4.084,4.0926,4.0921,4.0974,4.1072,4.1101,4.1101,4.1091,4.1152,4.1191,4.1191,4.1191,4.1191,4.1191,4.1152,4.1111,4.1103,4.109,4.1064,4.096,4.0828,4.0726,4.0593,4.0534,4.0489,4.0489,4.0489,4.0492,4.0466,4.0377,4.0252,4.0098,3.9892,3.9739,3.9599,3.9521,3.9471,3.9471,3.9521,3.957,3.9623,3.9717,3.9785,3.9848,3.9848,3.9781,3.967,3.9623,3.9551,3.9471,3.9395,3.929,3.9156,3.9147,3.9073,3.9036,3.8892,3.8851,3.8762,3.8478,3.835,3.8318,3.8318,3.8318,3.8285,3.8223,3.8104,3.7949,3.7613,3.7339,3.7091,3.6771,3.6585,3.6444,3.6301,3.6259,3.6233,3.6165,3.6079,3.5949,3.5711,3.5577,3.5424,3.5224,3.4961,3.4739,3.4594,3.4594,3.4546,3.4448,3.4399,3.43,3.4201,3.3435,3.3134,3.3203,3.324,3.3382,3.3642,3.3745,3.3949,3.425,3.4464,3.4642,3.4802,3.5055,3.5195,3.535,3.535,3.5396,3.5441,3.5549,3.5577,3.5667,4.0796,4.08,4.0804,4.0848,4.0869,4.0924,4.1,4.1072,4.1104,4.1103,4.113,4.1172,4.1191,4.1191,4.1191,4.1152,4.1111,4.1105,4.1099,4.1094,4.1081,4.1045,4.0915,4.0784,4.0642,4.0564,4.0523,4.0489,4.0489,4.0508,4.0495,4.0466,4.0379,4.0272,4.0099,3.9958,3.9848,3.9739,3.9693,3.9693,3.9758,3.9807,3.9854,3.9958,4.0019,4.0099,4.0099,4.0019,3.9916,3.9876,3.9766,3.9647,3.9526,3.9401,3.9298,3.9283,3.9229,3.9175,3.9064,3.8979,3.8892,3.8713,3.859,3.8515,3.8515,3.8515,3.8515,3.8469,3.8368,3.8168,3.7897,3.765,3.7356,3.697,3.6731,3.6568,3.6402,3.6343,3.6259,3.6233,3.6251,3.6208,3.6019,3.5993,3.5817,3.5515,3.535,3.5211,3.5118,3.5118,3.5071,3.5071,3.5008,3.4913,3.4866,3.4317,3.3984,3.3745,3.3797,3.3984,3.4267,3.4317,3.4561,3.4866,3.5038,3.5178,3.5316,3.556,3.5711,3.5756,3.5756,3.58,3.5861,3.5949,3.5975,3.6019,4.079,4.079,4.0803,4.0788,4.0846,4.0878,4.0896,4.1007,4.1081,4.1104,4.1105,4.1112,4.1172,4.1191,4.1172,4.1112,4.1105,4.1099,4.1097,4.1104,4.1105,4.11,4.0979,4.084,4.0718,4.064,4.0573,4.0504,4.0504,4.0489,4.0489,4.0495,4.0466,4.0413,4.0288,4.0177,4.0098,4.0057,4.0017,4.0017,4.0017,4.0059,4.012,4.012,4.0177,4.0233,4.0233,4.0177,4.012,4.0101,4.002,3.9892,3.9712,3.9575,3.9502,3.9432,3.9425,3.9373,3.9237,3.912,3.8979,3.8939,3.881,3.8707,3.8707,3.8707,3.8707,3.8707,3.8609,3.8446,3.8168,3.8002,3.7739,3.7206,3.697,3.6731,3.6544,3.6402,3.6301,3.6301,3.6301,3.6301,3.6301,3.6233,3.6036,3.5667,3.5667,3.5622,3.547,3.547,3.5515,3.5622,3.5515,3.547,3.547,3.5316,3.5038,3.4546,3.4448,3.4561,3.488,3.4864,3.5115,3.547,3.5622,3.5711,3.5861,3.5975,3.6019,3.6019,3.6019,3.6105,3.6208,3.6208,3.6251,3.6301,4.079,4.079,4.0803,4.0788,4.0815,4.0839,4.0896,4.0967,4.1037,4.1094,4.1099,4.111,4.1112,4.1172,4.1172,4.1112,4.1105,4.1097,4.1091,4.1101,4.109,4.1105,4.1013,4.0929,4.0849,4.0694,4.0598,4.0573,4.0523,4.0489,4.0489,4.0508,4.0495,4.0466,4.0396,4.0325,4.0252,4.0177,4.0158,4.0158,4.0215,4.0233,4.027,4.0379,4.0413,4.0432,4.0432,4.0396,4.0325,4.0196,4.0119,4.0036,3.9954,3.9804,3.9647,3.9623,3.957,3.9471,3.9395,3.9237,3.9045,3.8921,3.881,3.8707,3.8707,3.8707,3.8707,3.8707,3.8658,3.8578,3.8382,3.8186,3.7897,3.7413,3.7185,3.6913,3.6544,3.6444,3.6402,3.6301,3.6301,3.6301,3.6301,3.6301,3.6233,3.6079,3.6079,3.6036,3.5888,3.5888,3.5888,3.5932,3.5888,3.5888,3.5888,3.5827,3.5543,3.5038,3.5148,3.5224,3.5424,3.5532,3.5711,3.5888,3.6036,3.6079,3.614,3.6191,3.6216,3.6216,3.6216,3.6259,3.6276,3.6276,3.6301,3.6301,4.079,4.079,4.0803,4.0796,4.08,4.0796,4.0849,4.0904,4.0974,4.1042,4.1081,4.1103,4.1091,4.1152,4.1171,4.111,4.1103,4.1097,4.1111,4.1104,4.1097,4.1094,4.1075,4.102,4.0957,4.0798,4.0707,4.0598,4.0519,4.0489,4.0489,4.0489,4.0508,4.0495,4.046,4.0427,4.0396,4.0362,4.0325,4.0362,4.0379,4.0413,4.0392,4.046,4.0495,4.0495,4.0495,4.0479,4.0444,4.0379,4.029,4.0177,4.0118,3.9996,3.987,3.9848,3.9785,3.9717,3.9575,3.9376,3.9156,3.8979,3.8822,3.8707,3.8707,3.8707,3.8707,3.8707,3.8707,3.8658,3.8478,3.835,3.8119,3.7703,3.7411,3.7129,3.6771,3.6684,3.6544,3.6402,3.6402,3.6343,3.6301,3.6301,3.6259,3.6225,3.6225,3.6182,3.6122,3.6079,3.6105,3.6131,3.6131,3.6131,3.6131,3.6131,3.6002,3.5705,3.5694,3.5756,3.5905,3.5949,3.6036,3.6148,3.6233,3.6251,3.6233,3.6301,3.6301,3.6301,3.6301,3.6301,3.6301,3.6301,3.6301,3.6301,4.079,4.079,4.079,4.079,4.0796,4.08,4.08,4.0859,4.0921,4.0993,4.1057,4.1094,4.1108,4.1152,4.1151,4.1108,4.1103,4.1097,4.1091,4.1111,4.1104,4.1097,4.1096,4.107,4.102,4.0935,4.0815,4.0635,4.0564,4.0519,4.0523,4.0523,4.0489,4.0489,4.0489,4.0492,4.0499,4.0499,4.0499,4.0499,4.0499,4.0495,4.0489,4.0489,4.0489,4.0489,4.0489,4.0489,4.0508,4.0515,4.043,4.0325,4.0272,4.0196,4.0118,4.0058,4.0038,3.9996,3.9826,3.9575,3.9298,3.9101,3.8881,3.8719,3.8719,3.8707,3.8707,3.8707,3.8707,3.8658,3.8559,3.8478,3.8318,3.7985,3.7703,3.7394,3.7087,3.6926,3.6725,3.6585,3.6544,3.6502,3.6402,3.636,3.6318,3.6251,3.6208,3.6208,3.6208,3.6208,3.6233,3.6301,3.6301,3.6301,3.6301,3.6301,3.6301,3.6301,3.6148,3.6105,3.6208,3.6208,3.6251,3.6301,3.6301,3.6301,3.6301,3.6301,3.6301,3.6301,3.6301,3.6301,3.6301,3.6343,3.636,3.636,4.079,4.079,4.079,4.079,4.0796,4.08,4.08,4.0858,4.0915,4.0996,4.1056,4.1104,4.1099,4.1113,4.1112,4.1091,4.1105,4.1099,4.1097,4.1091,4.1108,4.1108,4.1097,4.1096,4.1089,4.096,4.0869,4.0776,4.0648,4.0598,4.0592,4.0523,4.0489,4.0489,4.0489,4.0489,4.0508,4.0508,4.0508,4.0508,4.0508,4.0508,4.0489,4.0489,4.0489,4.0489,4.0489,4.0489,4.0489,4.0508,4.0495,4.0449,4.0396,4.0325,4.0271,4.0271,4.0234,4.0138,4.0077,3.9804,3.9502,3.9298,3.9073,3.8851,3.8792,3.875,3.8707,3.8707,3.8707,3.8707,3.8676,3.8559,3.8415,3.8119,3.7984,3.7774,3.7334,3.7238,3.7105,3.6788,3.6725,3.6661,3.6643,3.6544,3.6461,3.6461,3.636,3.6301,3.6301,3.6301,3.6301,3.6301,3.6301,3.6301,3.6301,3.6301,3.6301,3.6301,3.6259,3.6259,3.6301,3.6301,3.6301,3.6301,3.6301,3.6301,3.6301,3.6301,3.6301,3.6301,3.6301,3.6301,3.6301,3.6444,3.6544,3.6643,4.079,4.079,4.079,4.079,4.0803,4.0796,4.0796,4.0834,4.0869,4.0932,4.0994,4.107,4.1097,4.1131,4.1132,4.1092,4.1108,4.1107,4.1103,4.1101,4.1099,4.1094,4.1108,4.1097,4.11,4.1045,4.0972,4.0897,4.0742,4.0648,4.0598,4.0569,4.0539,4.0489,4.0489,4.0489,4.0489,4.0489,4.0489,4.0489,4.0489,4.0489,4.0489,4.0489,4.0489,4.0489,4.0489,4.0489,4.0489,4.0489,4.0495,4.0502,4.0466,4.0449,4.0413,4.0413,4.0362,4.029,4.0196,3.9916,3.9599,3.9401,3.9129,3.8862,3.8822,3.875,3.8707,3.8707,3.8707,3.8707,3.8707,3.8658,3.8528,3.8318,3.8204,3.8036,3.7685,3.7594,3.7429,3.7087,3.6948,3.6846,3.6748,3.6585,3.6502,3.6502,3.6402,3.6301,3.6301,3.6301,3.6301,3.6301,3.6301,3.6301,3.6301,3.6301,3.6301,3.6301,3.6301,3.6301,3.6301,3.6301,3.6301,3.6301,3.6301,3.6301,3.6301,3.6301,3.6343,3.6402,3.6402,3.6485,3.6609,3.6667,3.6788,3.693]}]]